<?xml version="1.0" encoding="UTF-8" standalone="no" ?>
<gpx xmlns="http://www.topografix.com/GPX/1/1" xmlns:xsi="http://www.w3.org/2001/XMLSchema-instance" xsi:schemaLocation="http://www.topografix.com/GPX/1/1 http://www.topografix.com/GPX/1/1/gpx.xsd" version="1.1" creator="VisuGPX - https://www.visugpx.com">
  <metadata>
    <name>bec rouge col du retour</name>
  </metadata>
  <trk>
    <name><![CDATA[bec rouge col du retour 001]]></name>
    <trkseg>
      <trkpt lat="45.60287" lon="6.88867">
        <ele>1233.1</ele>
        <time>2018-02-04T07:45:05Z</time>
      </trkpt>
      <trkpt lat="45.60286" lon="6.88867">
        <ele>1233.1</ele>
        <time>2018-02-04T07:45:06Z</time>
      </trkpt>
      <trkpt lat="45.60286" lon="6.88867">
        <ele>1238.18</ele>
        <time>2018-02-04T07:45:10Z</time>
      </trkpt>
      <trkpt lat="45.60286" lon="6.88867">
        <ele>1242.24</ele>
        <time>2018-02-04T07:45:11Z</time>
      </trkpt>
      <trkpt lat="45.60286" lon="6.88867">
        <ele>1246.34</ele>
        <time>2018-02-04T07:45:12Z</time>
      </trkpt>
      <trkpt lat="45.60286" lon="6.88868">
        <ele>1249.63</ele>
        <time>2018-02-04T07:45:13Z</time>
      </trkpt>
      <trkpt lat="45.60286" lon="6.8887">
        <ele>1254.36</ele>
        <time>2018-02-04T07:45:15Z</time>
      </trkpt>
      <trkpt lat="45.60286" lon="6.8887">
        <ele>1257.56</ele>
        <time>2018-02-04T07:45:17Z</time>
      </trkpt>
      <trkpt lat="45.60286" lon="6.88871">
        <ele>1261.36</ele>
        <time>2018-02-04T07:45:21Z</time>
      </trkpt>
      <trkpt lat="45.60286" lon="6.88871">
        <ele>1262.02</ele>
        <time>2018-02-04T07:45:23Z</time>
      </trkpt>
      <trkpt lat="45.60288" lon="6.88872">
        <ele>1263.5</ele>
        <time>2018-02-04T07:45:48Z</time>
      </trkpt>
      <trkpt lat="45.60289" lon="6.8887">
        <ele>1263.58</ele>
        <time>2018-02-04T07:46:09Z</time>
      </trkpt>
      <trkpt lat="45.60287" lon="6.88871">
        <ele>1263.47</ele>
        <time>2018-02-04T07:46:52Z</time>
      </trkpt>
      <trkpt lat="45.60291" lon="6.88878">
        <ele>1263.95</ele>
        <time>2018-02-04T07:47:12Z</time>
      </trkpt>
      <trkpt lat="45.60292" lon="6.88882">
        <ele>1266.45</ele>
        <time>2018-02-04T07:47:26Z</time>
      </trkpt>
      <trkpt lat="45.60293" lon="6.88885">
        <ele>1266.6</ele>
        <time>2018-02-04T07:48:08Z</time>
      </trkpt>
      <trkpt lat="45.60298" lon="6.88895">
        <ele>1268.16</ele>
        <time>2018-02-04T07:48:24Z</time>
      </trkpt>
      <trkpt lat="45.60302" lon="6.88904">
        <ele>1270.67</ele>
        <time>2018-02-04T07:48:41Z</time>
      </trkpt>
      <trkpt lat="45.60306" lon="6.88918">
        <ele>1273.57</ele>
        <time>2018-02-04T07:48:58Z</time>
      </trkpt>
      <trkpt lat="45.6031" lon="6.88932">
        <ele>1276.69</ele>
        <time>2018-02-04T07:49:18Z</time>
      </trkpt>
      <trkpt lat="45.60314" lon="6.88947">
        <ele>1279.74</ele>
        <time>2018-02-04T07:49:35Z</time>
      </trkpt>
      <trkpt lat="45.60318" lon="6.88955">
        <ele>1281.54</ele>
        <time>2018-02-04T07:49:48Z</time>
      </trkpt>
      <trkpt lat="45.60318" lon="6.88939">
        <ele>1282.99</ele>
        <time>2018-02-04T07:50:01Z</time>
      </trkpt>
      <trkpt lat="45.60317" lon="6.88917">
        <ele>1282.1</ele>
        <time>2018-02-04T07:50:14Z</time>
      </trkpt>
      <trkpt lat="45.60315" lon="6.88891">
        <ele>1280.73</ele>
        <time>2018-02-04T07:50:28Z</time>
      </trkpt>
      <trkpt lat="45.60313" lon="6.88867">
        <ele>1279.39</ele>
        <time>2018-02-04T07:50:44Z</time>
      </trkpt>
      <trkpt lat="45.60319" lon="6.88852">
        <ele>1279.62</ele>
        <time>2018-02-04T07:50:59Z</time>
      </trkpt>
      <trkpt lat="45.60325" lon="6.88832">
        <ele>1282.78</ele>
        <time>2018-02-04T07:51:16Z</time>
      </trkpt>
      <trkpt lat="45.60326" lon="6.88816">
        <ele>1285.82</ele>
        <time>2018-02-04T07:51:32Z</time>
      </trkpt>
      <trkpt lat="45.60326" lon="6.88798">
        <ele>1288.95</ele>
        <time>2018-02-04T07:51:48Z</time>
      </trkpt>
      <trkpt lat="45.60326" lon="6.88785">
        <ele>1291.19</ele>
        <time>2018-02-04T07:52:05Z</time>
      </trkpt>
      <trkpt lat="45.60328" lon="6.88774">
        <ele>1292.53</ele>
        <time>2018-02-04T07:52:21Z</time>
      </trkpt>
      <trkpt lat="45.60331" lon="6.88761">
        <ele>1295.54</ele>
        <time>2018-02-04T07:52:37Z</time>
      </trkpt>
      <trkpt lat="45.60335" lon="6.8874">
        <ele>1298.55</ele>
        <time>2018-02-04T07:52:56Z</time>
      </trkpt>
      <trkpt lat="45.60338" lon="6.88722">
        <ele>1301.48</ele>
        <time>2018-02-04T07:53:14Z</time>
      </trkpt>
      <trkpt lat="45.60342" lon="6.8871">
        <ele>1303.05</ele>
        <time>2018-02-04T07:53:30Z</time>
      </trkpt>
      <trkpt lat="45.60348" lon="6.88696">
        <ele>1306.16</ele>
        <time>2018-02-04T07:53:49Z</time>
      </trkpt>
      <trkpt lat="45.60353" lon="6.88679">
        <ele>1308.63</ele>
        <time>2018-02-04T07:54:07Z</time>
      </trkpt>
      <trkpt lat="45.60355" lon="6.88664">
        <ele>1311.7</ele>
        <time>2018-02-04T07:54:26Z</time>
      </trkpt>
      <trkpt lat="45.60354" lon="6.88659">
        <ele>1313.01</ele>
        <time>2018-02-04T07:54:47Z</time>
      </trkpt>
      <trkpt lat="45.60354" lon="6.88651">
        <ele>1314.15</ele>
        <time>2018-02-04T07:55:04Z</time>
      </trkpt>
      <trkpt lat="45.60358" lon="6.88641">
        <ele>1317.06</ele>
        <time>2018-02-04T07:55:21Z</time>
      </trkpt>
      <trkpt lat="45.60358" lon="6.88626">
        <ele>1320.11</ele>
        <time>2018-02-04T07:55:39Z</time>
      </trkpt>
      <trkpt lat="45.6036" lon="6.88616">
        <ele>1322.42</ele>
        <time>2018-02-04T07:55:57Z</time>
      </trkpt>
      <trkpt lat="45.60363" lon="6.8861">
        <ele>1325.31</ele>
        <time>2018-02-04T07:56:14Z</time>
      </trkpt>
      <trkpt lat="45.60364" lon="6.88602">
        <ele>1326</ele>
        <time>2018-02-04T07:56:31Z</time>
      </trkpt>
      <trkpt lat="45.60366" lon="6.88594">
        <ele>1328.85</ele>
        <time>2018-02-04T07:56:47Z</time>
      </trkpt>
      <trkpt lat="45.60364" lon="6.88587">
        <ele>1330.15</ele>
        <time>2018-02-04T07:57:05Z</time>
      </trkpt>
      <trkpt lat="45.60363" lon="6.88583">
        <ele>1330.97</ele>
        <time>2018-02-04T07:57:22Z</time>
      </trkpt>
      <trkpt lat="45.60363" lon="6.88579">
        <ele>1331.87</ele>
        <time>2018-02-04T07:57:38Z</time>
      </trkpt>
      <trkpt lat="45.60368" lon="6.88571">
        <ele>1333.78</ele>
        <time>2018-02-04T07:57:54Z</time>
      </trkpt>
      <trkpt lat="45.60376" lon="6.88579">
        <ele>1336.82</ele>
        <time>2018-02-04T07:58:09Z</time>
      </trkpt>
      <trkpt lat="45.60383" lon="6.88586">
        <ele>1339.83</ele>
        <time>2018-02-04T07:58:23Z</time>
      </trkpt>
      <trkpt lat="45.60385" lon="6.88592">
        <ele>1341.24</ele>
        <time>2018-02-04T07:58:40Z</time>
      </trkpt>
      <trkpt lat="45.6039" lon="6.88603">
        <ele>1344.28</ele>
        <time>2018-02-04T07:58:57Z</time>
      </trkpt>
      <trkpt lat="45.60393" lon="6.88615">
        <ele>1346.64</ele>
        <time>2018-02-04T07:59:11Z</time>
      </trkpt>
      <trkpt lat="45.60396" lon="6.8863">
        <ele>1349.47</ele>
        <time>2018-02-04T07:59:28Z</time>
      </trkpt>
      <trkpt lat="45.60398" lon="6.88635">
        <ele>1351.54</ele>
        <time>2018-02-04T07:59:40Z</time>
      </trkpt>
      <trkpt lat="45.60403" lon="6.88636">
        <ele>1352.62</ele>
        <time>2018-02-04T08:00:04Z</time>
      </trkpt>
      <trkpt lat="45.60403" lon="6.88636">
        <ele>1352.61</ele>
        <time>2018-02-04T08:00:08Z</time>
      </trkpt>
      <trkpt lat="45.604" lon="6.88635">
        <ele>1352.09</ele>
        <time>2018-02-04T08:00:33Z</time>
      </trkpt>
      <trkpt lat="45.60399" lon="6.88637">
        <ele>1351.84</ele>
        <time>2018-02-04T08:00:55Z</time>
      </trkpt>
      <trkpt lat="45.60398" lon="6.88637">
        <ele>1352.36</ele>
        <time>2018-02-04T08:01:19Z</time>
      </trkpt>
      <trkpt lat="45.60397" lon="6.88636">
        <ele>1352.3</ele>
        <time>2018-02-04T08:01:41Z</time>
      </trkpt>
      <trkpt lat="45.604" lon="6.88635">
        <ele>1352.13</ele>
        <time>2018-02-04T08:01:46Z</time>
      </trkpt>
      <trkpt lat="45.60402" lon="6.88632">
        <ele>1351.75</ele>
        <time>2018-02-04T08:02:10Z</time>
      </trkpt>
      <trkpt lat="45.604" lon="6.88636">
        <ele>1351.96</ele>
        <time>2018-02-04T08:02:27Z</time>
      </trkpt>
      <trkpt lat="45.60405" lon="6.88626">
        <ele>1352.96</ele>
        <time>2018-02-04T08:02:43Z</time>
      </trkpt>
      <trkpt lat="45.60408" lon="6.88612">
        <ele>1356.19</ele>
        <time>2018-02-04T08:02:59Z</time>
      </trkpt>
      <trkpt lat="45.60409" lon="6.88598">
        <ele>1359.25</ele>
        <time>2018-02-04T08:03:14Z</time>
      </trkpt>
      <trkpt lat="45.60412" lon="6.88584">
        <ele>1362.01</ele>
        <time>2018-02-04T08:03:31Z</time>
      </trkpt>
      <trkpt lat="45.60413" lon="6.88573">
        <ele>1364.13</ele>
        <time>2018-02-04T08:03:45Z</time>
      </trkpt>
      <trkpt lat="45.60414" lon="6.88558">
        <ele>1366.89</ele>
        <time>2018-02-04T08:04:01Z</time>
      </trkpt>
      <trkpt lat="45.60418" lon="6.88544">
        <ele>1369.34</ele>
        <time>2018-02-04T08:04:15Z</time>
      </trkpt>
      <trkpt lat="45.60421" lon="6.88531">
        <ele>1371.86</ele>
        <time>2018-02-04T08:04:31Z</time>
      </trkpt>
      <trkpt lat="45.60422" lon="6.88519">
        <ele>1374.93</ele>
        <time>2018-02-04T08:04:49Z</time>
      </trkpt>
      <trkpt lat="45.60423" lon="6.88512">
        <ele>1377.4</ele>
        <time>2018-02-04T08:05:03Z</time>
      </trkpt>
      <trkpt lat="45.60425" lon="6.88498">
        <ele>1379.95</ele>
        <time>2018-02-04T08:05:22Z</time>
      </trkpt>
      <trkpt lat="45.60422" lon="6.88488">
        <ele>1382.64</ele>
        <time>2018-02-04T08:05:37Z</time>
      </trkpt>
      <trkpt lat="45.60421" lon="6.88476">
        <ele>1385.47</ele>
        <time>2018-02-04T08:05:53Z</time>
      </trkpt>
      <trkpt lat="45.60421" lon="6.88465">
        <ele>1388.32</ele>
        <time>2018-02-04T08:06:12Z</time>
      </trkpt>
      <trkpt lat="45.6042" lon="6.88459">
        <ele>1389.93</ele>
        <time>2018-02-04T08:06:26Z</time>
      </trkpt>
      <trkpt lat="45.60423" lon="6.88452">
        <ele>1391.86</ele>
        <time>2018-02-04T08:06:43Z</time>
      </trkpt>
      <trkpt lat="45.60426" lon="6.88438">
        <ele>1394.95</ele>
        <time>2018-02-04T08:07:00Z</time>
      </trkpt>
      <trkpt lat="45.60428" lon="6.88424">
        <ele>1396.89</ele>
        <time>2018-02-04T08:07:14Z</time>
      </trkpt>
      <trkpt lat="45.60436" lon="6.88415">
        <ele>1399.34</ele>
        <time>2018-02-04T08:07:30Z</time>
      </trkpt>
      <trkpt lat="45.60438" lon="6.88401">
        <ele>1402.21</ele>
        <time>2018-02-04T08:07:48Z</time>
      </trkpt>
      <trkpt lat="45.60446" lon="6.88389">
        <ele>1404.61</ele>
        <time>2018-02-04T08:08:07Z</time>
      </trkpt>
      <trkpt lat="45.60452" lon="6.88384">
        <ele>1406.64</ele>
        <time>2018-02-04T08:08:22Z</time>
      </trkpt>
      <trkpt lat="45.60458" lon="6.88378">
        <ele>1409.35</ele>
        <time>2018-02-04T08:08:37Z</time>
      </trkpt>
      <trkpt lat="45.60458" lon="6.88379">
        <ele>1409.88</ele>
        <time>2018-02-04T08:08:59Z</time>
      </trkpt>
      <trkpt lat="45.60456" lon="6.88381">
        <ele>1409.96</ele>
        <time>2018-02-04T08:09:14Z</time>
      </trkpt>
      <trkpt lat="45.60448" lon="6.88379">
        <ele>1409.66</ele>
        <time>2018-02-04T08:09:47Z</time>
      </trkpt>
      <trkpt lat="45.60451" lon="6.88379">
        <ele>1409.71</ele>
        <time>2018-02-04T08:10:25Z</time>
      </trkpt>
      <trkpt lat="45.60453" lon="6.88371">
        <ele>1409.4</ele>
        <time>2018-02-04T08:10:41Z</time>
      </trkpt>
      <trkpt lat="45.60459" lon="6.88357">
        <ele>1412.59</ele>
        <time>2018-02-04T08:10:56Z</time>
      </trkpt>
      <trkpt lat="45.60463" lon="6.88342">
        <ele>1415.73</ele>
        <time>2018-02-04T08:11:11Z</time>
      </trkpt>
      <trkpt lat="45.60471" lon="6.88337">
        <ele>1418.94</ele>
        <time>2018-02-04T08:11:24Z</time>
      </trkpt>
      <trkpt lat="45.60477" lon="6.8835">
        <ele>1422.1</ele>
        <time>2018-02-04T08:11:38Z</time>
      </trkpt>
      <trkpt lat="45.60482" lon="6.88347">
        <ele>1424.49</ele>
        <time>2018-02-04T08:11:53Z</time>
      </trkpt>
      <trkpt lat="45.60485" lon="6.88329">
        <ele>1427.55</ele>
        <time>2018-02-04T08:12:07Z</time>
      </trkpt>
      <trkpt lat="45.60487" lon="6.88316">
        <ele>1430.57</ele>
        <time>2018-02-04T08:12:23Z</time>
      </trkpt>
      <trkpt lat="45.60485" lon="6.88307">
        <ele>1432.75</ele>
        <time>2018-02-04T08:12:35Z</time>
      </trkpt>
      <trkpt lat="45.60489" lon="6.88295">
        <ele>1435.84</ele>
        <time>2018-02-04T08:12:52Z</time>
      </trkpt>
      <trkpt lat="45.6049" lon="6.88281">
        <ele>1438.97</ele>
        <time>2018-02-04T08:13:09Z</time>
      </trkpt>
      <trkpt lat="45.60496" lon="6.88267">
        <ele>1441.97</ele>
        <time>2018-02-04T08:13:24Z</time>
      </trkpt>
      <trkpt lat="45.60498" lon="6.88254">
        <ele>1444.48</ele>
        <time>2018-02-04T08:13:40Z</time>
      </trkpt>
      <trkpt lat="45.60503" lon="6.88242">
        <ele>1447.56</ele>
        <time>2018-02-04T08:13:56Z</time>
      </trkpt>
      <trkpt lat="45.60508" lon="6.8823">
        <ele>1450.73</ele>
        <time>2018-02-04T08:14:12Z</time>
      </trkpt>
      <trkpt lat="45.60511" lon="6.88217">
        <ele>1453.92</ele>
        <time>2018-02-04T08:14:27Z</time>
      </trkpt>
      <trkpt lat="45.60515" lon="6.88203">
        <ele>1456.25</ele>
        <time>2018-02-04T08:14:44Z</time>
      </trkpt>
      <trkpt lat="45.60517" lon="6.88198">
        <ele>1458.48</ele>
        <time>2018-02-04T08:14:58Z</time>
      </trkpt>
      <trkpt lat="45.60519" lon="6.88192">
        <ele>1460.12</ele>
        <time>2018-02-04T08:15:13Z</time>
      </trkpt>
      <trkpt lat="45.60522" lon="6.88179">
        <ele>1463.26</ele>
        <time>2018-02-04T08:15:29Z</time>
      </trkpt>
      <trkpt lat="45.60525" lon="6.88168">
        <ele>1465.93</ele>
        <time>2018-02-04T08:15:46Z</time>
      </trkpt>
      <trkpt lat="45.60528" lon="6.88158">
        <ele>1468.26</ele>
        <time>2018-02-04T08:16:00Z</time>
      </trkpt>
      <trkpt lat="45.6053" lon="6.88148">
        <ele>1470.33</ele>
        <time>2018-02-04T08:16:13Z</time>
      </trkpt>
      <trkpt lat="45.60531" lon="6.88138">
        <ele>1473.5</ele>
        <time>2018-02-04T08:16:30Z</time>
      </trkpt>
      <trkpt lat="45.6053" lon="6.88124">
        <ele>1476.33</ele>
        <time>2018-02-04T08:16:46Z</time>
      </trkpt>
      <trkpt lat="45.60536" lon="6.88119">
        <ele>1478.7</ele>
        <time>2018-02-04T08:17:01Z</time>
      </trkpt>
      <trkpt lat="45.6054" lon="6.8813">
        <ele>1481.03</ele>
        <time>2018-02-04T08:17:16Z</time>
      </trkpt>
      <trkpt lat="45.60545" lon="6.88144">
        <ele>1483.7</ele>
        <time>2018-02-04T08:17:36Z</time>
      </trkpt>
      <trkpt lat="45.60549" lon="6.88152">
        <ele>1485.83</ele>
        <time>2018-02-04T08:17:53Z</time>
      </trkpt>
      <trkpt lat="45.60552" lon="6.88157">
        <ele>1487.65</ele>
        <time>2018-02-04T08:18:08Z</time>
      </trkpt>
      <trkpt lat="45.60556" lon="6.88161">
        <ele>1489.33</ele>
        <time>2018-02-04T08:18:21Z</time>
      </trkpt>
      <trkpt lat="45.60562" lon="6.88174">
        <ele>1492.42</ele>
        <time>2018-02-04T08:18:36Z</time>
      </trkpt>
      <trkpt lat="45.60567" lon="6.88183">
        <ele>1495.15</ele>
        <time>2018-02-04T08:18:52Z</time>
      </trkpt>
      <trkpt lat="45.60573" lon="6.88183">
        <ele>1496.38</ele>
        <time>2018-02-04T08:19:06Z</time>
      </trkpt>
      <trkpt lat="45.60579" lon="6.88188">
        <ele>1498.84</ele>
        <time>2018-02-04T08:19:20Z</time>
      </trkpt>
      <trkpt lat="45.60582" lon="6.88191">
        <ele>1500.83</ele>
        <time>2018-02-04T08:19:37Z</time>
      </trkpt>
      <trkpt lat="45.60586" lon="6.88194">
        <ele>1501.93</ele>
        <time>2018-02-04T08:19:52Z</time>
      </trkpt>
      <trkpt lat="45.60593" lon="6.88199">
        <ele>1504.33</ele>
        <time>2018-02-04T08:20:09Z</time>
      </trkpt>
      <trkpt lat="45.60599" lon="6.882">
        <ele>1505.37</ele>
        <time>2018-02-04T08:20:18Z</time>
      </trkpt>
      <trkpt lat="45.60608" lon="6.88203">
        <ele>1506.25</ele>
        <time>2018-02-04T08:20:36Z</time>
      </trkpt>
      <trkpt lat="45.60609" lon="6.88211">
        <ele>1508.22</ele>
        <time>2018-02-04T08:20:52Z</time>
      </trkpt>
      <trkpt lat="45.60612" lon="6.88209">
        <ele>1510.52</ele>
        <time>2018-02-04T08:21:05Z</time>
      </trkpt>
      <trkpt lat="45.60607" lon="6.8819">
        <ele>1512.47</ele>
        <time>2018-02-04T08:21:23Z</time>
      </trkpt>
      <trkpt lat="45.60606" lon="6.88178">
        <ele>1514.35</ele>
        <time>2018-02-04T08:21:38Z</time>
      </trkpt>
      <trkpt lat="45.60603" lon="6.88166">
        <ele>1516.46</ele>
        <time>2018-02-04T08:21:53Z</time>
      </trkpt>
      <trkpt lat="45.60606" lon="6.88153">
        <ele>1519.15</ele>
        <time>2018-02-04T08:22:10Z</time>
      </trkpt>
      <trkpt lat="45.60607" lon="6.88143">
        <ele>1520.62</ele>
        <time>2018-02-04T08:22:24Z</time>
      </trkpt>
      <trkpt lat="45.60613" lon="6.88129">
        <ele>1522.55</ele>
        <time>2018-02-04T08:22:40Z</time>
      </trkpt>
      <trkpt lat="45.60615" lon="6.88133">
        <ele>1524.97</ele>
        <time>2018-02-04T08:22:55Z</time>
      </trkpt>
      <trkpt lat="45.60621" lon="6.88141">
        <ele>1527.35</ele>
        <time>2018-02-04T08:23:10Z</time>
      </trkpt>
      <trkpt lat="45.60628" lon="6.8815">
        <ele>1529.86</ele>
        <time>2018-02-04T08:23:28Z</time>
      </trkpt>
      <trkpt lat="45.60634" lon="6.88155">
        <ele>1532.01</ele>
        <time>2018-02-04T08:23:43Z</time>
      </trkpt>
      <trkpt lat="45.60638" lon="6.8816">
        <ele>1533.74</ele>
        <time>2018-02-04T08:24:03Z</time>
      </trkpt>
      <trkpt lat="45.60645" lon="6.88165">
        <ele>1535.58</ele>
        <time>2018-02-04T08:24:18Z</time>
      </trkpt>
      <trkpt lat="45.60646" lon="6.88169">
        <ele>1536.87</ele>
        <time>2018-02-04T08:24:31Z</time>
      </trkpt>
      <trkpt lat="45.60651" lon="6.88174">
        <ele>1539.13</ele>
        <time>2018-02-04T08:24:46Z</time>
      </trkpt>
      <trkpt lat="45.60659" lon="6.88184">
        <ele>1541.52</ele>
        <time>2018-02-04T08:25:03Z</time>
      </trkpt>
      <trkpt lat="45.60662" lon="6.8819">
        <ele>1543.76</ele>
        <time>2018-02-04T08:25:16Z</time>
      </trkpt>
      <trkpt lat="45.60659" lon="6.88196">
        <ele>1545.45</ele>
        <time>2018-02-04T08:25:30Z</time>
      </trkpt>
      <trkpt lat="45.60663" lon="6.88202">
        <ele>1546.65</ele>
        <time>2018-02-04T08:25:44Z</time>
      </trkpt>
      <trkpt lat="45.60667" lon="6.88208">
        <ele>1549</ele>
        <time>2018-02-04T08:25:57Z</time>
      </trkpt>
      <trkpt lat="45.60669" lon="6.88223">
        <ele>1551.72</ele>
        <time>2018-02-04T08:26:14Z</time>
      </trkpt>
      <trkpt lat="45.60672" lon="6.88235">
        <ele>1554.26</ele>
        <time>2018-02-04T08:26:31Z</time>
      </trkpt>
      <trkpt lat="45.60671" lon="6.88247">
        <ele>1556.56</ele>
        <time>2018-02-04T08:26:46Z</time>
      </trkpt>
      <trkpt lat="45.60673" lon="6.88259">
        <ele>1558.87</ele>
        <time>2018-02-04T08:27:02Z</time>
      </trkpt>
      <trkpt lat="45.60675" lon="6.88272">
        <ele>1560.84</ele>
        <time>2018-02-04T08:27:16Z</time>
      </trkpt>
      <trkpt lat="45.60676" lon="6.88283">
        <ele>1563.15</ele>
        <time>2018-02-04T08:27:30Z</time>
      </trkpt>
      <trkpt lat="45.60681" lon="6.88289">
        <ele>1565.03</ele>
        <time>2018-02-04T08:27:43Z</time>
      </trkpt>
      <trkpt lat="45.60681" lon="6.88294">
        <ele>1566.04</ele>
        <time>2018-02-04T08:28:05Z</time>
      </trkpt>
      <trkpt lat="45.60683" lon="6.88294">
        <ele>1567.36</ele>
        <time>2018-02-04T08:28:22Z</time>
      </trkpt>
      <trkpt lat="45.60689" lon="6.88288">
        <ele>1568.38</ele>
        <time>2018-02-04T08:28:39Z</time>
      </trkpt>
      <trkpt lat="45.6069" lon="6.8828">
        <ele>1569.68</ele>
        <time>2018-02-04T08:28:55Z</time>
      </trkpt>
      <trkpt lat="45.60694" lon="6.88273">
        <ele>1572.2</ele>
        <time>2018-02-04T08:29:10Z</time>
      </trkpt>
      <trkpt lat="45.60703" lon="6.88261">
        <ele>1574.54</ele>
        <time>2018-02-04T08:29:25Z</time>
      </trkpt>
      <trkpt lat="45.60706" lon="6.88252">
        <ele>1577.12</ele>
        <time>2018-02-04T08:29:39Z</time>
      </trkpt>
      <trkpt lat="45.60713" lon="6.88243">
        <ele>1579.85</ele>
        <time>2018-02-04T08:29:55Z</time>
      </trkpt>
      <trkpt lat="45.60711" lon="6.88243">
        <ele>1579.41</ele>
        <time>2018-02-04T08:30:14Z</time>
      </trkpt>
      <trkpt lat="45.6071" lon="6.88244">
        <ele>1579.46</ele>
        <time>2018-02-04T08:30:36Z</time>
      </trkpt>
      <trkpt lat="45.6071" lon="6.88244">
        <ele>1579.19</ele>
        <time>2018-02-04T08:30:56Z</time>
      </trkpt>
      <trkpt lat="45.60712" lon="6.88235">
        <ele>1581.47</ele>
        <time>2018-02-04T08:31:13Z</time>
      </trkpt>
      <trkpt lat="45.60716" lon="6.8822">
        <ele>1584.12</ele>
        <time>2018-02-04T08:31:30Z</time>
      </trkpt>
      <trkpt lat="45.60718" lon="6.88205">
        <ele>1587.26</ele>
        <time>2018-02-04T08:31:45Z</time>
      </trkpt>
      <trkpt lat="45.60723" lon="6.88191">
        <ele>1589.91</ele>
        <time>2018-02-04T08:32:00Z</time>
      </trkpt>
      <trkpt lat="45.60726" lon="6.88178">
        <ele>1592.25</ele>
        <time>2018-02-04T08:32:14Z</time>
      </trkpt>
      <trkpt lat="45.60727" lon="6.88171">
        <ele>1595.27</ele>
        <time>2018-02-04T08:32:28Z</time>
      </trkpt>
      <trkpt lat="45.60726" lon="6.88155">
        <ele>1598.07</ele>
        <time>2018-02-04T08:32:45Z</time>
      </trkpt>
      <trkpt lat="45.60728" lon="6.88144">
        <ele>1600.82</ele>
        <time>2018-02-04T08:33:00Z</time>
      </trkpt>
      <trkpt lat="45.60729" lon="6.88135">
        <ele>1603.8</ele>
        <time>2018-02-04T08:33:16Z</time>
      </trkpt>
      <trkpt lat="45.60727" lon="6.88124">
        <ele>1605.77</ele>
        <time>2018-02-04T08:33:30Z</time>
      </trkpt>
      <trkpt lat="45.60729" lon="6.88111">
        <ele>1608.82</ele>
        <time>2018-02-04T08:33:45Z</time>
      </trkpt>
      <trkpt lat="45.60724" lon="6.88105">
        <ele>1611.38</ele>
        <time>2018-02-04T08:33:57Z</time>
      </trkpt>
      <trkpt lat="45.60725" lon="6.88094">
        <ele>1614.15</ele>
        <time>2018-02-04T08:34:13Z</time>
      </trkpt>
      <trkpt lat="45.6073" lon="6.88088">
        <ele>1616.78</ele>
        <time>2018-02-04T08:34:26Z</time>
      </trkpt>
      <trkpt lat="45.60737" lon="6.8809">
        <ele>1618.8</ele>
        <time>2018-02-04T08:34:40Z</time>
      </trkpt>
      <trkpt lat="45.60742" lon="6.88096">
        <ele>1621.87</ele>
        <time>2018-02-04T08:34:56Z</time>
      </trkpt>
      <trkpt lat="45.60744" lon="6.8809">
        <ele>1624.49</ele>
        <time>2018-02-04T08:35:12Z</time>
      </trkpt>
      <trkpt lat="45.60742" lon="6.88079">
        <ele>1626.83</ele>
        <time>2018-02-04T08:35:28Z</time>
      </trkpt>
      <trkpt lat="45.60743" lon="6.88067">
        <ele>1629.68</ele>
        <time>2018-02-04T08:35:45Z</time>
      </trkpt>
      <trkpt lat="45.60747" lon="6.88051">
        <ele>1632.72</ele>
        <time>2018-02-04T08:36:02Z</time>
      </trkpt>
      <trkpt lat="45.60754" lon="6.88044">
        <ele>1635.26</ele>
        <time>2018-02-04T08:36:16Z</time>
      </trkpt>
      <trkpt lat="45.6076" lon="6.88039">
        <ele>1638.32</ele>
        <time>2018-02-04T08:36:32Z</time>
      </trkpt>
      <trkpt lat="45.6077" lon="6.88033">
        <ele>1639.98</ele>
        <time>2018-02-04T08:36:49Z</time>
      </trkpt>
      <trkpt lat="45.60778" lon="6.88036">
        <ele>1641.72</ele>
        <time>2018-02-04T08:37:02Z</time>
      </trkpt>
      <trkpt lat="45.60776" lon="6.88037">
        <ele>1642.86</ele>
        <time>2018-02-04T08:37:21Z</time>
      </trkpt>
      <trkpt lat="45.60776" lon="6.88036">
        <ele>1643.34</ele>
        <time>2018-02-04T08:37:37Z</time>
      </trkpt>
      <trkpt lat="45.60783" lon="6.88043">
        <ele>1644.69</ele>
        <time>2018-02-04T08:37:53Z</time>
      </trkpt>
      <trkpt lat="45.60795" lon="6.8804">
        <ele>1647.83</ele>
        <time>2018-02-04T08:38:09Z</time>
      </trkpt>
      <trkpt lat="45.60803" lon="6.8804">
        <ele>1650.14</ele>
        <time>2018-02-04T08:38:20Z</time>
      </trkpt>
      <trkpt lat="45.60807" lon="6.88034">
        <ele>1652.63</ele>
        <time>2018-02-04T08:38:34Z</time>
      </trkpt>
      <trkpt lat="45.6081" lon="6.88031">
        <ele>1654.82</ele>
        <time>2018-02-04T08:38:50Z</time>
      </trkpt>
      <trkpt lat="45.60809" lon="6.8803">
        <ele>1654.97</ele>
        <time>2018-02-04T08:39:11Z</time>
      </trkpt>
      <trkpt lat="45.60812" lon="6.88025">
        <ele>1655.44</ele>
        <time>2018-02-04T08:39:27Z</time>
      </trkpt>
      <trkpt lat="45.60825" lon="6.8802">
        <ele>1658.35</ele>
        <time>2018-02-04T08:39:44Z</time>
      </trkpt>
      <trkpt lat="45.60833" lon="6.88015">
        <ele>1661.42</ele>
        <time>2018-02-04T08:39:57Z</time>
      </trkpt>
      <trkpt lat="45.60836" lon="6.88017">
        <ele>1663.86</ele>
        <time>2018-02-04T08:40:11Z</time>
      </trkpt>
      <trkpt lat="45.60833" lon="6.88018">
        <ele>1662.78</ele>
        <time>2018-02-04T08:40:30Z</time>
      </trkpt>
      <trkpt lat="45.60832" lon="6.88017">
        <ele>1662.86</ele>
        <time>2018-02-04T08:40:58Z</time>
      </trkpt>
      <trkpt lat="45.60833" lon="6.88016">
        <ele>1662.36</ele>
        <time>2018-02-04T08:41:26Z</time>
      </trkpt>
      <trkpt lat="45.60834" lon="6.88018">
        <ele>1662.52</ele>
        <time>2018-02-04T08:42:00Z</time>
      </trkpt>
      <trkpt lat="45.60835" lon="6.88018">
        <ele>1663.27</ele>
        <time>2018-02-04T08:42:25Z</time>
      </trkpt>
      <trkpt lat="45.60835" lon="6.88019">
        <ele>1663.65</ele>
        <time>2018-02-04T08:42:48Z</time>
      </trkpt>
      <trkpt lat="45.60839" lon="6.88017">
        <ele>1663.99</ele>
        <time>2018-02-04T08:43:07Z</time>
      </trkpt>
      <trkpt lat="45.6085" lon="6.88023">
        <ele>1667.18</ele>
        <time>2018-02-04T08:43:24Z</time>
      </trkpt>
      <trkpt lat="45.60857" lon="6.88036">
        <ele>1670.12</ele>
        <time>2018-02-04T08:43:40Z</time>
      </trkpt>
      <trkpt lat="45.60859" lon="6.88053">
        <ele>1672.69</ele>
        <time>2018-02-04T08:43:56Z</time>
      </trkpt>
      <trkpt lat="45.60857" lon="6.88076">
        <ele>1675.67</ele>
        <time>2018-02-04T08:44:17Z</time>
      </trkpt>
      <trkpt lat="45.6086" lon="6.88086">
        <ele>1678.37</ele>
        <time>2018-02-04T08:44:33Z</time>
      </trkpt>
      <trkpt lat="45.60871" lon="6.88075">
        <ele>1680.97</ele>
        <time>2018-02-04T08:44:50Z</time>
      </trkpt>
      <trkpt lat="45.60874" lon="6.88072">
        <ele>1683.52</ele>
        <time>2018-02-04T08:45:03Z</time>
      </trkpt>
      <trkpt lat="45.60876" lon="6.88072">
        <ele>1683.38</ele>
        <time>2018-02-04T08:45:15Z</time>
      </trkpt>
      <trkpt lat="45.60875" lon="6.88073">
        <ele>1682.96</ele>
        <time>2018-02-04T08:46:08Z</time>
      </trkpt>
      <trkpt lat="45.60875" lon="6.88073">
        <ele>1683.36</ele>
        <time>2018-02-04T08:46:30Z</time>
      </trkpt>
      <trkpt lat="45.60873" lon="6.88075">
        <ele>1682.52</ele>
        <time>2018-02-04T08:46:50Z</time>
      </trkpt>
      <trkpt lat="45.60872" lon="6.88076">
        <ele>1682.79</ele>
        <time>2018-02-04T08:48:29Z</time>
      </trkpt>
      <trkpt lat="45.60873" lon="6.88075">
        <ele>1683.27</ele>
        <time>2018-02-04T08:49:35Z</time>
      </trkpt>
      <trkpt lat="45.60872" lon="6.88076">
        <ele>1683.7</ele>
        <time>2018-02-04T08:50:32Z</time>
      </trkpt>
      <trkpt lat="45.60874" lon="6.88074">
        <ele>1684.19</ele>
        <time>2018-02-04T08:50:45Z</time>
      </trkpt>
      <trkpt lat="45.60876" lon="6.88071">
        <ele>1684.86</ele>
        <time>2018-02-04T08:50:59Z</time>
      </trkpt>
      <trkpt lat="45.60878" lon="6.88073">
        <ele>1685.06</ele>
        <time>2018-02-04T08:51:11Z</time>
      </trkpt>
      <trkpt lat="45.60883" lon="6.88075">
        <ele>1686.43</ele>
        <time>2018-02-04T08:51:23Z</time>
      </trkpt>
      <trkpt lat="45.60886" lon="6.8808">
        <ele>1688.81</ele>
        <time>2018-02-04T08:51:38Z</time>
      </trkpt>
      <trkpt lat="45.60889" lon="6.8809">
        <ele>1691.94</ele>
        <time>2018-02-04T08:51:52Z</time>
      </trkpt>
      <trkpt lat="45.60888" lon="6.881">
        <ele>1694.88</ele>
        <time>2018-02-04T08:52:08Z</time>
      </trkpt>
      <trkpt lat="45.60886" lon="6.88109">
        <ele>1697.14</ele>
        <time>2018-02-04T08:52:21Z</time>
      </trkpt>
      <trkpt lat="45.60891" lon="6.88123">
        <ele>1699.56</ele>
        <time>2018-02-04T08:52:40Z</time>
      </trkpt>
      <trkpt lat="45.60892" lon="6.88132">
        <ele>1702.01</ele>
        <time>2018-02-04T08:53:00Z</time>
      </trkpt>
      <trkpt lat="45.60894" lon="6.8814">
        <ele>1703.35</ele>
        <time>2018-02-04T08:53:17Z</time>
      </trkpt>
      <trkpt lat="45.60894" lon="6.88142">
        <ele>1704.59</ele>
        <time>2018-02-04T08:53:40Z</time>
      </trkpt>
      <trkpt lat="45.60893" lon="6.88148">
        <ele>1704.82</ele>
        <time>2018-02-04T08:53:54Z</time>
      </trkpt>
      <trkpt lat="45.60896" lon="6.88148">
        <ele>1706.13</ele>
        <time>2018-02-04T08:54:08Z</time>
      </trkpt>
      <trkpt lat="45.60899" lon="6.88143">
        <ele>1707.76</ele>
        <time>2018-02-04T08:54:25Z</time>
      </trkpt>
      <trkpt lat="45.60904" lon="6.88139">
        <ele>1709.68</ele>
        <time>2018-02-04T08:54:39Z</time>
      </trkpt>
      <trkpt lat="45.60912" lon="6.8813">
        <ele>1712.38</ele>
        <time>2018-02-04T08:54:56Z</time>
      </trkpt>
      <trkpt lat="45.6092" lon="6.88123">
        <ele>1715.47</ele>
        <time>2018-02-04T08:55:12Z</time>
      </trkpt>
      <trkpt lat="45.60927" lon="6.88121">
        <ele>1717.48</ele>
        <time>2018-02-04T08:55:30Z</time>
      </trkpt>
      <trkpt lat="45.6093" lon="6.88119">
        <ele>1718.63</ele>
        <time>2018-02-04T08:55:44Z</time>
      </trkpt>
      <trkpt lat="45.60933" lon="6.88124">
        <ele>1721.56</ele>
        <time>2018-02-04T08:56:01Z</time>
      </trkpt>
      <trkpt lat="45.60936" lon="6.88119">
        <ele>1723.23</ele>
        <time>2018-02-04T08:56:16Z</time>
      </trkpt>
      <trkpt lat="45.60941" lon="6.88127">
        <ele>1725.27</ele>
        <time>2018-02-04T08:56:32Z</time>
      </trkpt>
      <trkpt lat="45.6094" lon="6.88141">
        <ele>1728.01</ele>
        <time>2018-02-04T08:56:49Z</time>
      </trkpt>
      <trkpt lat="45.6094" lon="6.88154">
        <ele>1730.75</ele>
        <time>2018-02-04T08:57:05Z</time>
      </trkpt>
      <trkpt lat="45.60942" lon="6.88164">
        <ele>1733.46</ele>
        <time>2018-02-04T08:57:19Z</time>
      </trkpt>
      <trkpt lat="45.60941" lon="6.88171">
        <ele>1735.9</ele>
        <time>2018-02-04T08:57:36Z</time>
      </trkpt>
      <trkpt lat="45.60942" lon="6.88176">
        <ele>1737.44</ele>
        <time>2018-02-04T08:57:51Z</time>
      </trkpt>
      <trkpt lat="45.60944" lon="6.88183">
        <ele>1738.81</ele>
        <time>2018-02-04T08:58:05Z</time>
      </trkpt>
      <trkpt lat="45.60951" lon="6.88176">
        <ele>1741.87</ele>
        <time>2018-02-04T08:58:22Z</time>
      </trkpt>
      <trkpt lat="45.60962" lon="6.88167">
        <ele>1745.05</ele>
        <time>2018-02-04T08:58:43Z</time>
      </trkpt>
      <trkpt lat="45.60971" lon="6.88157">
        <ele>1747.68</ele>
        <time>2018-02-04T08:59:02Z</time>
      </trkpt>
      <trkpt lat="45.60978" lon="6.88151">
        <ele>1750.13</ele>
        <time>2018-02-04T08:59:18Z</time>
      </trkpt>
      <trkpt lat="45.6098" lon="6.88145">
        <ele>1752.01</ele>
        <time>2018-02-04T08:59:36Z</time>
      </trkpt>
      <trkpt lat="45.60983" lon="6.88143">
        <ele>1752.78</ele>
        <time>2018-02-04T08:59:56Z</time>
      </trkpt>
      <trkpt lat="45.60987" lon="6.88138">
        <ele>1753.76</ele>
        <time>2018-02-04T09:00:16Z</time>
      </trkpt>
      <trkpt lat="45.60994" lon="6.88131">
        <ele>1756.37</ele>
        <time>2018-02-04T09:00:33Z</time>
      </trkpt>
      <trkpt lat="45.61" lon="6.88128">
        <ele>1758.98</ele>
        <time>2018-02-04T09:00:48Z</time>
      </trkpt>
      <trkpt lat="45.61002" lon="6.88128">
        <ele>1759.87</ele>
        <time>2018-02-04T09:01:10Z</time>
      </trkpt>
      <trkpt lat="45.61005" lon="6.88125">
        <ele>1760.01</ele>
        <time>2018-02-04T09:01:29Z</time>
      </trkpt>
      <trkpt lat="45.61004" lon="6.8813">
        <ele>1761.53</ele>
        <time>2018-02-04T09:01:49Z</time>
      </trkpt>
      <trkpt lat="45.61002" lon="6.88133">
        <ele>1761.96</ele>
        <time>2018-02-04T09:02:08Z</time>
      </trkpt>
      <trkpt lat="45.61" lon="6.88137">
        <ele>1763.41</ele>
        <time>2018-02-04T09:02:28Z</time>
      </trkpt>
      <trkpt lat="45.61005" lon="6.88132">
        <ele>1764.59</ele>
        <time>2018-02-04T09:02:43Z</time>
      </trkpt>
      <trkpt lat="45.61012" lon="6.88127">
        <ele>1765.94</ele>
        <time>2018-02-04T09:02:57Z</time>
      </trkpt>
      <trkpt lat="45.61024" lon="6.88117">
        <ele>1768.81</ele>
        <time>2018-02-04T09:03:15Z</time>
      </trkpt>
      <trkpt lat="45.61035" lon="6.8811">
        <ele>1770.92</ele>
        <time>2018-02-04T09:03:32Z</time>
      </trkpt>
      <trkpt lat="45.61044" lon="6.88105">
        <ele>1773.59</ele>
        <time>2018-02-04T09:03:47Z</time>
      </trkpt>
      <trkpt lat="45.61051" lon="6.88097">
        <ele>1775.42</ele>
        <time>2018-02-04T09:04:01Z</time>
      </trkpt>
      <trkpt lat="45.6106" lon="6.88095">
        <ele>1777.02</ele>
        <time>2018-02-04T09:04:17Z</time>
      </trkpt>
      <trkpt lat="45.61067" lon="6.881">
        <ele>1779.87</ele>
        <time>2018-02-04T09:04:35Z</time>
      </trkpt>
      <trkpt lat="45.61067" lon="6.88107">
        <ele>1782.06</ele>
        <time>2018-02-04T09:04:50Z</time>
      </trkpt>
      <trkpt lat="45.61063" lon="6.88111">
        <ele>1784.7</ele>
        <time>2018-02-04T09:05:07Z</time>
      </trkpt>
      <trkpt lat="45.61065" lon="6.88112">
        <ele>1785.28</ele>
        <time>2018-02-04T09:05:30Z</time>
      </trkpt>
      <trkpt lat="45.61064" lon="6.8812">
        <ele>1786.65</ele>
        <time>2018-02-04T09:05:46Z</time>
      </trkpt>
      <trkpt lat="45.61068" lon="6.8812">
        <ele>1787.53</ele>
        <time>2018-02-04T09:06:01Z</time>
      </trkpt>
      <trkpt lat="45.6107" lon="6.88118">
        <ele>1788.92</ele>
        <time>2018-02-04T09:06:17Z</time>
      </trkpt>
      <trkpt lat="45.61071" lon="6.88122">
        <ele>1790.23</ele>
        <time>2018-02-04T09:06:31Z</time>
      </trkpt>
      <trkpt lat="45.61076" lon="6.8812">
        <ele>1791.74</ele>
        <time>2018-02-04T09:06:47Z</time>
      </trkpt>
      <trkpt lat="45.61084" lon="6.88121">
        <ele>1794.79</ele>
        <time>2018-02-04T09:07:04Z</time>
      </trkpt>
      <trkpt lat="45.61082" lon="6.88133">
        <ele>1797.88</ele>
        <time>2018-02-04T09:07:17Z</time>
      </trkpt>
      <trkpt lat="45.61071" lon="6.88136">
        <ele>1800.49</ele>
        <time>2018-02-04T09:07:33Z</time>
      </trkpt>
      <trkpt lat="45.61071" lon="6.88144">
        <ele>1802.48</ele>
        <time>2018-02-04T09:07:46Z</time>
      </trkpt>
      <trkpt lat="45.61067" lon="6.88159">
        <ele>1805.3</ele>
        <time>2018-02-04T09:08:04Z</time>
      </trkpt>
      <trkpt lat="45.61069" lon="6.88161">
        <ele>1807.9</ele>
        <time>2018-02-04T09:08:20Z</time>
      </trkpt>
      <trkpt lat="45.6107" lon="6.88167">
        <ele>1809.75</ele>
        <time>2018-02-04T09:08:35Z</time>
      </trkpt>
      <trkpt lat="45.61068" lon="6.88181">
        <ele>1812.07</ele>
        <time>2018-02-04T09:08:52Z</time>
      </trkpt>
      <trkpt lat="45.61074" lon="6.88182">
        <ele>1814.51</ele>
        <time>2018-02-04T09:09:05Z</time>
      </trkpt>
      <trkpt lat="45.61084" lon="6.8817">
        <ele>1816.8</ele>
        <time>2018-02-04T09:09:21Z</time>
      </trkpt>
      <trkpt lat="45.61094" lon="6.88166">
        <ele>1817.16</ele>
        <time>2018-02-04T09:09:36Z</time>
      </trkpt>
      <trkpt lat="45.61107" lon="6.88159">
        <ele>1818.22</ele>
        <time>2018-02-04T09:09:51Z</time>
      </trkpt>
      <trkpt lat="45.61119" lon="6.88153">
        <ele>1819.75</ele>
        <time>2018-02-04T09:10:09Z</time>
      </trkpt>
      <trkpt lat="45.61129" lon="6.88152">
        <ele>1822.87</ele>
        <time>2018-02-04T09:10:25Z</time>
      </trkpt>
      <trkpt lat="45.61137" lon="6.8815">
        <ele>1825.3</ele>
        <time>2018-02-04T09:10:43Z</time>
      </trkpt>
      <trkpt lat="45.61141" lon="6.88146">
        <ele>1827.92</ele>
        <time>2018-02-04T09:10:59Z</time>
      </trkpt>
      <trkpt lat="45.61149" lon="6.8815">
        <ele>1830.28</ele>
        <time>2018-02-04T09:11:16Z</time>
      </trkpt>
      <trkpt lat="45.61157" lon="6.88155">
        <ele>1833.09</ele>
        <time>2018-02-04T09:11:31Z</time>
      </trkpt>
      <trkpt lat="45.61165" lon="6.88155">
        <ele>1835.95</ele>
        <time>2018-02-04T09:11:45Z</time>
      </trkpt>
      <trkpt lat="45.61176" lon="6.88152">
        <ele>1838.54</ele>
        <time>2018-02-04T09:12:03Z</time>
      </trkpt>
      <trkpt lat="45.61179" lon="6.88153">
        <ele>1840.04</ele>
        <time>2018-02-04T09:12:22Z</time>
      </trkpt>
      <trkpt lat="45.61186" lon="6.88147">
        <ele>1842.55</ele>
        <time>2018-02-04T09:12:37Z</time>
      </trkpt>
      <trkpt lat="45.61192" lon="6.88147">
        <ele>1845.4</ele>
        <time>2018-02-04T09:12:51Z</time>
      </trkpt>
      <trkpt lat="45.61199" lon="6.88144">
        <ele>1848.09</ele>
        <time>2018-02-04T09:13:06Z</time>
      </trkpt>
      <trkpt lat="45.61207" lon="6.88136">
        <ele>1850.44</ele>
        <time>2018-02-04T09:13:21Z</time>
      </trkpt>
      <trkpt lat="45.61212" lon="6.8813">
        <ele>1851.69</ele>
        <time>2018-02-04T09:13:35Z</time>
      </trkpt>
      <trkpt lat="45.61216" lon="6.88125">
        <ele>1852.56</ele>
        <time>2018-02-04T09:13:51Z</time>
      </trkpt>
      <trkpt lat="45.61221" lon="6.8812">
        <ele>1853.57</ele>
        <time>2018-02-04T09:14:08Z</time>
      </trkpt>
      <trkpt lat="45.61225" lon="6.88111">
        <ele>1854.53</ele>
        <time>2018-02-04T09:14:22Z</time>
      </trkpt>
      <trkpt lat="45.6123" lon="6.88102">
        <ele>1855.87</ele>
        <time>2018-02-04T09:14:37Z</time>
      </trkpt>
      <trkpt lat="45.61233" lon="6.88096">
        <ele>1856.54</ele>
        <time>2018-02-04T09:14:58Z</time>
      </trkpt>
      <trkpt lat="45.6124" lon="6.88098">
        <ele>1859.66</ele>
        <time>2018-02-04T09:15:12Z</time>
      </trkpt>
      <trkpt lat="45.61238" lon="6.88112">
        <ele>1862.35</ele>
        <time>2018-02-04T09:15:29Z</time>
      </trkpt>
      <trkpt lat="45.61237" lon="6.88128">
        <ele>1864.86</ele>
        <time>2018-02-04T09:15:48Z</time>
      </trkpt>
      <trkpt lat="45.61237" lon="6.88131">
        <ele>1865.3</ele>
        <time>2018-02-04T09:15:54Z</time>
      </trkpt>
      <trkpt lat="45.61235" lon="6.88143">
        <ele>1867.04</ele>
        <time>2018-02-04T09:16:08Z</time>
      </trkpt>
      <trkpt lat="45.61233" lon="6.88154">
        <ele>1869.29</ele>
        <time>2018-02-04T09:16:24Z</time>
      </trkpt>
      <trkpt lat="45.61231" lon="6.88169">
        <ele>1870.85</ele>
        <time>2018-02-04T09:16:40Z</time>
      </trkpt>
      <trkpt lat="45.61232" lon="6.88174">
        <ele>1872.8</ele>
        <time>2018-02-04T09:16:52Z</time>
      </trkpt>
      <trkpt lat="45.61233" lon="6.88176">
        <ele>1873.4</ele>
        <time>2018-02-04T09:17:11Z</time>
      </trkpt>
      <trkpt lat="45.61233" lon="6.88175">
        <ele>1873.55</ele>
        <time>2018-02-04T09:17:30Z</time>
      </trkpt>
      <trkpt lat="45.61234" lon="6.88174">
        <ele>1873.19</ele>
        <time>2018-02-04T09:17:52Z</time>
      </trkpt>
      <trkpt lat="45.61236" lon="6.88184">
        <ele>1874.77</ele>
        <time>2018-02-04T09:18:06Z</time>
      </trkpt>
      <trkpt lat="45.6124" lon="6.88188">
        <ele>1877.82</ele>
        <time>2018-02-04T09:18:21Z</time>
      </trkpt>
      <trkpt lat="45.61242" lon="6.88188">
        <ele>1879.24</ele>
        <time>2018-02-04T09:18:34Z</time>
      </trkpt>
      <trkpt lat="45.61242" lon="6.88195">
        <ele>1880.98</ele>
        <time>2018-02-04T09:18:51Z</time>
      </trkpt>
      <trkpt lat="45.61246" lon="6.88196">
        <ele>1882.79</ele>
        <time>2018-02-04T09:19:06Z</time>
      </trkpt>
      <trkpt lat="45.61249" lon="6.88198">
        <ele>1884.47</ele>
        <time>2018-02-04T09:19:21Z</time>
      </trkpt>
      <trkpt lat="45.61252" lon="6.88206">
        <ele>1885.92</ele>
        <time>2018-02-04T09:19:38Z</time>
      </trkpt>
      <trkpt lat="45.61258" lon="6.88203">
        <ele>1888.48</ele>
        <time>2018-02-04T09:19:53Z</time>
      </trkpt>
      <trkpt lat="45.61259" lon="6.88209">
        <ele>1890.48</ele>
        <time>2018-02-04T09:20:09Z</time>
      </trkpt>
      <trkpt lat="45.61265" lon="6.88199">
        <ele>1891.62</ele>
        <time>2018-02-04T09:20:23Z</time>
      </trkpt>
      <trkpt lat="45.61267" lon="6.8821">
        <ele>1894.19</ele>
        <time>2018-02-04T09:20:40Z</time>
      </trkpt>
      <trkpt lat="45.6126" lon="6.88228">
        <ele>1896.24</ele>
        <time>2018-02-04T09:20:57Z</time>
      </trkpt>
      <trkpt lat="45.6125" lon="6.88242">
        <ele>1898.98</ele>
        <time>2018-02-04T09:21:13Z</time>
      </trkpt>
      <trkpt lat="45.61238" lon="6.8825">
        <ele>1900.6</ele>
        <time>2018-02-04T09:21:29Z</time>
      </trkpt>
      <trkpt lat="45.61233" lon="6.8825">
        <ele>1901.22</ele>
        <time>2018-02-04T09:21:34Z</time>
      </trkpt>
      <trkpt lat="45.61222" lon="6.88256">
        <ele>1902.52</ele>
        <time>2018-02-04T09:21:47Z</time>
      </trkpt>
      <trkpt lat="45.61214" lon="6.88263">
        <ele>1903.5</ele>
        <time>2018-02-04T09:21:57Z</time>
      </trkpt>
      <trkpt lat="45.61213" lon="6.88275">
        <ele>1903.77</ele>
        <time>2018-02-04T09:22:09Z</time>
      </trkpt>
      <trkpt lat="45.61215" lon="6.88289">
        <ele>1905.16</ele>
        <time>2018-02-04T09:22:24Z</time>
      </trkpt>
      <trkpt lat="45.61214" lon="6.88296">
        <ele>1906.39</ele>
        <time>2018-02-04T09:22:31Z</time>
      </trkpt>
      <trkpt lat="45.6121" lon="6.88317">
        <ele>1909.71</ele>
        <time>2018-02-04T09:22:46Z</time>
      </trkpt>
      <trkpt lat="45.61208" lon="6.88333">
        <ele>1912.64</ele>
        <time>2018-02-04T09:23:00Z</time>
      </trkpt>
      <trkpt lat="45.61199" lon="6.88351">
        <ele>1915.02</ele>
        <time>2018-02-04T09:23:15Z</time>
      </trkpt>
      <trkpt lat="45.61193" lon="6.88364">
        <ele>1917.26</ele>
        <time>2018-02-04T09:23:30Z</time>
      </trkpt>
      <trkpt lat="45.61199" lon="6.88376">
        <ele>1920.24</ele>
        <time>2018-02-04T09:23:48Z</time>
      </trkpt>
      <trkpt lat="45.61208" lon="6.88373">
        <ele>1922.9</ele>
        <time>2018-02-04T09:24:05Z</time>
      </trkpt>
      <trkpt lat="45.61219" lon="6.88361">
        <ele>1924.01</ele>
        <time>2018-02-04T09:24:21Z</time>
      </trkpt>
      <trkpt lat="45.61229" lon="6.88348">
        <ele>1924.24</ele>
        <time>2018-02-04T09:24:36Z</time>
      </trkpt>
      <trkpt lat="45.61241" lon="6.8834">
        <ele>1925.54</ele>
        <time>2018-02-04T09:24:49Z</time>
      </trkpt>
      <trkpt lat="45.6125" lon="6.88332">
        <ele>1926.53</ele>
        <time>2018-02-04T09:25:01Z</time>
      </trkpt>
      <trkpt lat="45.61257" lon="6.88326">
        <ele>1928.35</ele>
        <time>2018-02-04T09:25:15Z</time>
      </trkpt>
      <trkpt lat="45.61267" lon="6.88313">
        <ele>1931.1</ele>
        <time>2018-02-04T09:25:31Z</time>
      </trkpt>
      <trkpt lat="45.61277" lon="6.88303">
        <ele>1933.33</ele>
        <time>2018-02-04T09:25:47Z</time>
      </trkpt>
      <trkpt lat="45.61289" lon="6.88301">
        <ele>1935.94</ele>
        <time>2018-02-04T09:26:03Z</time>
      </trkpt>
      <trkpt lat="45.61304" lon="6.88302">
        <ele>1938.78</ele>
        <time>2018-02-04T09:26:22Z</time>
      </trkpt>
      <trkpt lat="45.61307" lon="6.88299">
        <ele>1939.55</ele>
        <time>2018-02-04T09:26:26Z</time>
      </trkpt>
      <trkpt lat="45.61314" lon="6.8829">
        <ele>1939.96</ele>
        <time>2018-02-04T09:26:36Z</time>
      </trkpt>
      <trkpt lat="45.61322" lon="6.88278">
        <ele>1941.24</ele>
        <time>2018-02-04T09:26:51Z</time>
      </trkpt>
      <trkpt lat="45.61328" lon="6.8826">
        <ele>1941.02</ele>
        <time>2018-02-04T09:27:04Z</time>
      </trkpt>
      <trkpt lat="45.61339" lon="6.88256">
        <ele>1942.4</ele>
        <time>2018-02-04T09:27:18Z</time>
      </trkpt>
      <trkpt lat="45.61341" lon="6.88257">
        <ele>1942.6</ele>
        <time>2018-02-04T09:27:20Z</time>
      </trkpt>
      <trkpt lat="45.61354" lon="6.88265">
        <ele>1944.54</ele>
        <time>2018-02-04T09:27:36Z</time>
      </trkpt>
      <trkpt lat="45.61366" lon="6.88268">
        <ele>1946.47</ele>
        <time>2018-02-04T09:27:53Z</time>
      </trkpt>
      <trkpt lat="45.61378" lon="6.88271">
        <ele>1948.92</ele>
        <time>2018-02-04T09:28:08Z</time>
      </trkpt>
      <trkpt lat="45.61391" lon="6.88271">
        <ele>1950.21</ele>
        <time>2018-02-04T09:28:23Z</time>
      </trkpt>
      <trkpt lat="45.61401" lon="6.88273">
        <ele>1952.08</ele>
        <time>2018-02-04T09:28:39Z</time>
      </trkpt>
      <trkpt lat="45.61409" lon="6.8827">
        <ele>1954.1</ele>
        <time>2018-02-04T09:28:57Z</time>
      </trkpt>
      <trkpt lat="45.61417" lon="6.88273">
        <ele>1954.98</ele>
        <time>2018-02-04T09:29:17Z</time>
      </trkpt>
      <trkpt lat="45.61428" lon="6.88275">
        <ele>1958.1</ele>
        <time>2018-02-04T09:29:37Z</time>
      </trkpt>
      <trkpt lat="45.61437" lon="6.88279">
        <ele>1961.1</ele>
        <time>2018-02-04T09:29:50Z</time>
      </trkpt>
      <trkpt lat="45.61452" lon="6.88285">
        <ele>1963.85</ele>
        <time>2018-02-04T09:30:11Z</time>
      </trkpt>
      <trkpt lat="45.61463" lon="6.88289">
        <ele>1965.61</ele>
        <time>2018-02-04T09:30:29Z</time>
      </trkpt>
      <trkpt lat="45.61478" lon="6.88286">
        <ele>1968.36</ele>
        <time>2018-02-04T09:30:50Z</time>
      </trkpt>
      <trkpt lat="45.61487" lon="6.88284">
        <ele>1969.37</ele>
        <time>2018-02-04T09:31:04Z</time>
      </trkpt>
      <trkpt lat="45.61497" lon="6.88278">
        <ele>1971.96</ele>
        <time>2018-02-04T09:31:19Z</time>
      </trkpt>
      <trkpt lat="45.61509" lon="6.88275">
        <ele>1974.01</ele>
        <time>2018-02-04T09:31:36Z</time>
      </trkpt>
      <trkpt lat="45.61517" lon="6.88267">
        <ele>1975.69</ele>
        <time>2018-02-04T09:31:53Z</time>
      </trkpt>
      <trkpt lat="45.61526" lon="6.88263">
        <ele>1977.68</ele>
        <time>2018-02-04T09:32:07Z</time>
      </trkpt>
      <trkpt lat="45.6153" lon="6.88271">
        <ele>1980.57</ele>
        <time>2018-02-04T09:32:25Z</time>
      </trkpt>
      <trkpt lat="45.61534" lon="6.88282">
        <ele>1983.42</ele>
        <time>2018-02-04T09:32:41Z</time>
      </trkpt>
      <trkpt lat="45.61539" lon="6.88291">
        <ele>1986.36</ele>
        <time>2018-02-04T09:32:57Z</time>
      </trkpt>
      <trkpt lat="45.61546" lon="6.88293">
        <ele>1989.16</ele>
        <time>2018-02-04T09:33:13Z</time>
      </trkpt>
      <trkpt lat="45.61557" lon="6.88287">
        <ele>1991.87</ele>
        <time>2018-02-04T09:33:29Z</time>
      </trkpt>
      <trkpt lat="45.61563" lon="6.88281">
        <ele>1993.33</ele>
        <time>2018-02-04T09:33:42Z</time>
      </trkpt>
      <trkpt lat="45.61571" lon="6.8829">
        <ele>1996.16</ele>
        <time>2018-02-04T09:33:59Z</time>
      </trkpt>
      <trkpt lat="45.61579" lon="6.88287">
        <ele>1998.78</ele>
        <time>2018-02-04T09:34:15Z</time>
      </trkpt>
      <trkpt lat="45.61584" lon="6.88288">
        <ele>2000.54</ele>
        <time>2018-02-04T09:34:30Z</time>
      </trkpt>
      <trkpt lat="45.61591" lon="6.88293">
        <ele>2003.54</ele>
        <time>2018-02-04T09:34:48Z</time>
      </trkpt>
      <trkpt lat="45.61594" lon="6.88305">
        <ele>2006.58</ele>
        <time>2018-02-04T09:35:03Z</time>
      </trkpt>
      <trkpt lat="45.61594" lon="6.88317">
        <ele>2009.58</ele>
        <time>2018-02-04T09:35:21Z</time>
      </trkpt>
      <trkpt lat="45.61592" lon="6.88324">
        <ele>2011.23</ele>
        <time>2018-02-04T09:35:38Z</time>
      </trkpt>
      <trkpt lat="45.61592" lon="6.88321">
        <ele>2011.46</ele>
        <time>2018-02-04T09:36:04Z</time>
      </trkpt>
      <trkpt lat="45.61592" lon="6.88327">
        <ele>2011.55</ele>
        <time>2018-02-04T09:36:20Z</time>
      </trkpt>
      <trkpt lat="45.61594" lon="6.88348">
        <ele>2013.88</ele>
        <time>2018-02-04T09:36:37Z</time>
      </trkpt>
      <trkpt lat="45.61595" lon="6.88363">
        <ele>2015.63</ele>
        <time>2018-02-04T09:36:52Z</time>
      </trkpt>
      <trkpt lat="45.616" lon="6.88373">
        <ele>2018.58</ele>
        <time>2018-02-04T09:37:08Z</time>
      </trkpt>
      <trkpt lat="45.61609" lon="6.88361">
        <ele>2021.24</ele>
        <time>2018-02-04T09:37:24Z</time>
      </trkpt>
      <trkpt lat="45.61617" lon="6.8836">
        <ele>2023.64</ele>
        <time>2018-02-04T09:37:38Z</time>
      </trkpt>
      <trkpt lat="45.61625" lon="6.8836">
        <ele>2026.53</ele>
        <time>2018-02-04T09:37:53Z</time>
      </trkpt>
      <trkpt lat="45.61632" lon="6.88357">
        <ele>2029.55</ele>
        <time>2018-02-04T09:38:10Z</time>
      </trkpt>
      <trkpt lat="45.61642" lon="6.88353">
        <ele>2032.16</ele>
        <time>2018-02-04T09:38:26Z</time>
      </trkpt>
      <trkpt lat="45.61652" lon="6.88362">
        <ele>2035.19</ele>
        <time>2018-02-04T09:38:47Z</time>
      </trkpt>
      <trkpt lat="45.61655" lon="6.88376">
        <ele>2038.3</ele>
        <time>2018-02-04T09:39:02Z</time>
      </trkpt>
      <trkpt lat="45.61657" lon="6.88387">
        <ele>2041.39</ele>
        <time>2018-02-04T09:39:18Z</time>
      </trkpt>
      <trkpt lat="45.61663" lon="6.88397">
        <ele>2044.48</ele>
        <time>2018-02-04T09:39:35Z</time>
      </trkpt>
      <trkpt lat="45.61664" lon="6.88406">
        <ele>2047.41</ele>
        <time>2018-02-04T09:39:51Z</time>
      </trkpt>
      <trkpt lat="45.61666" lon="6.88415">
        <ele>2050.57</ele>
        <time>2018-02-04T09:40:07Z</time>
      </trkpt>
      <trkpt lat="45.61665" lon="6.88416">
        <ele>2051.88</ele>
        <time>2018-02-04T09:40:23Z</time>
      </trkpt>
      <trkpt lat="45.61665" lon="6.88414">
        <ele>2051.95</ele>
        <time>2018-02-04T09:40:46Z</time>
      </trkpt>
      <trkpt lat="45.61666" lon="6.88412">
        <ele>2052.32</ele>
        <time>2018-02-04T09:41:10Z</time>
      </trkpt>
      <trkpt lat="45.61665" lon="6.88412">
        <ele>2052.22</ele>
        <time>2018-02-04T09:41:31Z</time>
      </trkpt>
      <trkpt lat="45.61666" lon="6.88413">
        <ele>2052.09</ele>
        <time>2018-02-04T09:41:54Z</time>
      </trkpt>
      <trkpt lat="45.61666" lon="6.88414">
        <ele>2052.15</ele>
        <time>2018-02-04T09:42:21Z</time>
      </trkpt>
      <trkpt lat="45.61667" lon="6.88411">
        <ele>2051.8</ele>
        <time>2018-02-04T09:42:43Z</time>
      </trkpt>
      <trkpt lat="45.6167" lon="6.88412">
        <ele>2051.87</ele>
        <time>2018-02-04T09:43:08Z</time>
      </trkpt>
      <trkpt lat="45.61669" lon="6.8841">
        <ele>2052.21</ele>
        <time>2018-02-04T09:43:30Z</time>
      </trkpt>
      <trkpt lat="45.61667" lon="6.8841">
        <ele>2052.4</ele>
        <time>2018-02-04T09:43:56Z</time>
      </trkpt>
      <trkpt lat="45.61666" lon="6.8841">
        <ele>2052.39</ele>
        <time>2018-02-04T09:44:16Z</time>
      </trkpt>
      <trkpt lat="45.61669" lon="6.88417">
        <ele>2053.19</ele>
        <time>2018-02-04T09:44:34Z</time>
      </trkpt>
      <trkpt lat="45.61673" lon="6.88422">
        <ele>2055.08</ele>
        <time>2018-02-04T09:44:48Z</time>
      </trkpt>
      <trkpt lat="45.61675" lon="6.88431">
        <ele>2056.42</ele>
        <time>2018-02-04T09:45:08Z</time>
      </trkpt>
      <trkpt lat="45.61677" lon="6.88449">
        <ele>2059.68</ele>
        <time>2018-02-04T09:45:25Z</time>
      </trkpt>
      <trkpt lat="45.61684" lon="6.88451">
        <ele>2062.76</ele>
        <time>2018-02-04T09:45:37Z</time>
      </trkpt>
      <trkpt lat="45.61693" lon="6.88454">
        <ele>2065.92</ele>
        <time>2018-02-04T09:45:53Z</time>
      </trkpt>
      <trkpt lat="45.61701" lon="6.88458">
        <ele>2068.99</ele>
        <time>2018-02-04T09:46:09Z</time>
      </trkpt>
      <trkpt lat="45.61704" lon="6.88469">
        <ele>2072.06</ele>
        <time>2018-02-04T09:46:25Z</time>
      </trkpt>
      <trkpt lat="45.61702" lon="6.88481">
        <ele>2075.13</ele>
        <time>2018-02-04T09:46:43Z</time>
      </trkpt>
      <trkpt lat="45.61707" lon="6.88485">
        <ele>2077.54</ele>
        <time>2018-02-04T09:46:57Z</time>
      </trkpt>
      <trkpt lat="45.61711" lon="6.88489">
        <ele>2080.24</ele>
        <time>2018-02-04T09:47:14Z</time>
      </trkpt>
      <trkpt lat="45.61708" lon="6.88499">
        <ele>2082.89</ele>
        <time>2018-02-04T09:47:29Z</time>
      </trkpt>
      <trkpt lat="45.61705" lon="6.88508">
        <ele>2084.86</ele>
        <time>2018-02-04T09:47:44Z</time>
      </trkpt>
      <trkpt lat="45.61716" lon="6.88507">
        <ele>2087.28</ele>
        <time>2018-02-04T09:48:01Z</time>
      </trkpt>
      <trkpt lat="45.61729" lon="6.88507">
        <ele>2090.39</ele>
        <time>2018-02-04T09:48:22Z</time>
      </trkpt>
      <trkpt lat="45.61737" lon="6.88509">
        <ele>2093.49</ele>
        <time>2018-02-04T09:48:42Z</time>
      </trkpt>
      <trkpt lat="45.61732" lon="6.88519">
        <ele>2096.56</ele>
        <time>2018-02-04T09:49:00Z</time>
      </trkpt>
      <trkpt lat="45.61733" lon="6.88521">
        <ele>2097.84</ele>
        <time>2018-02-04T09:49:16Z</time>
      </trkpt>
      <trkpt lat="45.61739" lon="6.88523">
        <ele>2099.07</ele>
        <time>2018-02-04T09:49:27Z</time>
      </trkpt>
      <trkpt lat="45.61749" lon="6.88522">
        <ele>2102.22</ele>
        <time>2018-02-04T09:49:42Z</time>
      </trkpt>
      <trkpt lat="45.61755" lon="6.88522">
        <ele>2104.35</ele>
        <time>2018-02-04T09:49:57Z</time>
      </trkpt>
      <trkpt lat="45.61755" lon="6.88527">
        <ele>2106</ele>
        <time>2018-02-04T09:50:10Z</time>
      </trkpt>
      <trkpt lat="45.61753" lon="6.88531">
        <ele>2108.31</ele>
        <time>2018-02-04T09:50:26Z</time>
      </trkpt>
      <trkpt lat="45.61761" lon="6.88536">
        <ele>2110.11</ele>
        <time>2018-02-04T09:50:42Z</time>
      </trkpt>
      <trkpt lat="45.6177" lon="6.8854">
        <ele>2113.12</ele>
        <time>2018-02-04T09:50:58Z</time>
      </trkpt>
      <trkpt lat="45.61777" lon="6.88541">
        <ele>2115.28</ele>
        <time>2018-02-04T09:51:11Z</time>
      </trkpt>
      <trkpt lat="45.61783" lon="6.88542">
        <ele>2118.02</ele>
        <time>2018-02-04T09:51:23Z</time>
      </trkpt>
      <trkpt lat="45.61785" lon="6.88544">
        <ele>2120.03</ele>
        <time>2018-02-04T09:51:41Z</time>
      </trkpt>
      <trkpt lat="45.61783" lon="6.88547">
        <ele>2120.51</ele>
        <time>2018-02-04T09:51:53Z</time>
      </trkpt>
      <trkpt lat="45.61777" lon="6.88557">
        <ele>2123.52</ele>
        <time>2018-02-04T09:52:08Z</time>
      </trkpt>
      <trkpt lat="45.61774" lon="6.88569">
        <ele>2126.36</ele>
        <time>2018-02-04T09:52:24Z</time>
      </trkpt>
      <trkpt lat="45.61771" lon="6.88577">
        <ele>2128.47</ele>
        <time>2018-02-04T09:52:37Z</time>
      </trkpt>
      <trkpt lat="45.61781" lon="6.88575">
        <ele>2131.24</ele>
        <time>2018-02-04T09:52:53Z</time>
      </trkpt>
      <trkpt lat="45.61792" lon="6.88575">
        <ele>2134.19</ele>
        <time>2018-02-04T09:53:08Z</time>
      </trkpt>
      <trkpt lat="45.61799" lon="6.88576">
        <ele>2137.09</ele>
        <time>2018-02-04T09:53:28Z</time>
      </trkpt>
      <trkpt lat="45.61794" lon="6.88583">
        <ele>2138.8</ele>
        <time>2018-02-04T09:53:42Z</time>
      </trkpt>
      <trkpt lat="45.61787" lon="6.88593">
        <ele>2141.05</ele>
        <time>2018-02-04T09:53:54Z</time>
      </trkpt>
      <trkpt lat="45.61779" lon="6.886">
        <ele>2143.42</ele>
        <time>2018-02-04T09:54:09Z</time>
      </trkpt>
      <trkpt lat="45.61772" lon="6.8861">
        <ele>2146.5</ele>
        <time>2018-02-04T09:54:27Z</time>
      </trkpt>
      <trkpt lat="45.61767" lon="6.88617">
        <ele>2148.65</ele>
        <time>2018-02-04T09:54:39Z</time>
      </trkpt>
      <trkpt lat="45.6176" lon="6.88623">
        <ele>2150.95</ele>
        <time>2018-02-04T09:54:54Z</time>
      </trkpt>
      <trkpt lat="45.6175" lon="6.8863">
        <ele>2153.99</ele>
        <time>2018-02-04T09:55:13Z</time>
      </trkpt>
      <trkpt lat="45.61744" lon="6.88641">
        <ele>2157.15</ele>
        <time>2018-02-04T09:55:32Z</time>
      </trkpt>
      <trkpt lat="45.6174" lon="6.88652">
        <ele>2160.26</ele>
        <time>2018-02-04T09:55:50Z</time>
      </trkpt>
      <trkpt lat="45.61735" lon="6.88668">
        <ele>2163.32</ele>
        <time>2018-02-04T09:56:07Z</time>
      </trkpt>
      <trkpt lat="45.61734" lon="6.88679">
        <ele>2165.62</ele>
        <time>2018-02-04T09:56:20Z</time>
      </trkpt>
      <trkpt lat="45.61734" lon="6.88693">
        <ele>2168.03</ele>
        <time>2018-02-04T09:56:35Z</time>
      </trkpt>
      <trkpt lat="45.61733" lon="6.88705">
        <ele>2171.05</ele>
        <time>2018-02-04T09:56:50Z</time>
      </trkpt>
      <trkpt lat="45.61732" lon="6.88714">
        <ele>2173.69</ele>
        <time>2018-02-04T09:57:05Z</time>
      </trkpt>
      <trkpt lat="45.61731" lon="6.88725">
        <ele>2176.88</ele>
        <time>2018-02-04T09:57:21Z</time>
      </trkpt>
      <trkpt lat="45.61729" lon="6.8874">
        <ele>2179.94</ele>
        <time>2018-02-04T09:57:36Z</time>
      </trkpt>
      <trkpt lat="45.61735" lon="6.88746">
        <ele>2182.72</ele>
        <time>2018-02-04T09:57:53Z</time>
      </trkpt>
      <trkpt lat="45.61744" lon="6.88745">
        <ele>2185.76</ele>
        <time>2018-02-04T09:58:07Z</time>
      </trkpt>
      <trkpt lat="45.61754" lon="6.88745">
        <ele>2188.8</ele>
        <time>2018-02-04T09:58:24Z</time>
      </trkpt>
      <trkpt lat="45.61763" lon="6.88746">
        <ele>2191.84</ele>
        <time>2018-02-04T09:58:42Z</time>
      </trkpt>
      <trkpt lat="45.61772" lon="6.88746">
        <ele>2194.86</ele>
        <time>2018-02-04T09:58:58Z</time>
      </trkpt>
      <trkpt lat="45.61779" lon="6.88746">
        <ele>2197.64</ele>
        <time>2018-02-04T09:59:12Z</time>
      </trkpt>
      <trkpt lat="45.61784" lon="6.88742">
        <ele>2199.76</ele>
        <time>2018-02-04T09:59:23Z</time>
      </trkpt>
      <trkpt lat="45.61784" lon="6.88748">
        <ele>2201.83</ele>
        <time>2018-02-04T09:59:37Z</time>
      </trkpt>
      <trkpt lat="45.61779" lon="6.88762">
        <ele>2204.98</ele>
        <time>2018-02-04T09:59:55Z</time>
      </trkpt>
      <trkpt lat="45.61778" lon="6.88766">
        <ele>2207.14</ele>
        <time>2018-02-04T10:00:08Z</time>
      </trkpt>
      <trkpt lat="45.61777" lon="6.88774">
        <ele>2208.66</ele>
        <time>2018-02-04T10:00:25Z</time>
      </trkpt>
      <trkpt lat="45.61774" lon="6.88786">
        <ele>2211.15</ele>
        <time>2018-02-04T10:00:42Z</time>
      </trkpt>
      <trkpt lat="45.61774" lon="6.88797">
        <ele>2213.5</ele>
        <time>2018-02-04T10:01:00Z</time>
      </trkpt>
      <trkpt lat="45.61773" lon="6.88804">
        <ele>2215.84</ele>
        <time>2018-02-04T10:01:14Z</time>
      </trkpt>
      <trkpt lat="45.61775" lon="6.88806">
        <ele>2217.73</ele>
        <time>2018-02-04T10:01:28Z</time>
      </trkpt>
      <trkpt lat="45.61783" lon="6.88805">
        <ele>2220.21</ele>
        <time>2018-02-04T10:01:42Z</time>
      </trkpt>
      <trkpt lat="45.61791" lon="6.88806">
        <ele>2223.25</ele>
        <time>2018-02-04T10:01:57Z</time>
      </trkpt>
      <trkpt lat="45.618" lon="6.88808">
        <ele>2226.08</ele>
        <time>2018-02-04T10:02:14Z</time>
      </trkpt>
      <trkpt lat="45.61808" lon="6.88808">
        <ele>2229.23</ele>
        <time>2018-02-04T10:02:30Z</time>
      </trkpt>
      <trkpt lat="45.61816" lon="6.88809">
        <ele>2232.06</ele>
        <time>2018-02-04T10:02:47Z</time>
      </trkpt>
      <trkpt lat="45.6182" lon="6.88811">
        <ele>2234.01</ele>
        <time>2018-02-04T10:02:59Z</time>
      </trkpt>
      <trkpt lat="45.61827" lon="6.88815">
        <ele>2237.16</ele>
        <time>2018-02-04T10:03:14Z</time>
      </trkpt>
      <trkpt lat="45.61829" lon="6.8882">
        <ele>2239.98</ele>
        <time>2018-02-04T10:03:31Z</time>
      </trkpt>
      <trkpt lat="45.61828" lon="6.88819">
        <ele>2240.29</ele>
        <time>2018-02-04T10:03:54Z</time>
      </trkpt>
      <trkpt lat="45.61829" lon="6.88831">
        <ele>2241.22</ele>
        <time>2018-02-04T10:04:11Z</time>
      </trkpt>
      <trkpt lat="45.61832" lon="6.88845">
        <ele>2244.37</ele>
        <time>2018-02-04T10:04:26Z</time>
      </trkpt>
      <trkpt lat="45.61832" lon="6.88864">
        <ele>2247.07</ele>
        <time>2018-02-04T10:04:43Z</time>
      </trkpt>
      <trkpt lat="45.61834" lon="6.88876">
        <ele>2250.07</ele>
        <time>2018-02-04T10:04:58Z</time>
      </trkpt>
      <trkpt lat="45.61837" lon="6.88887">
        <ele>2253.19</ele>
        <time>2018-02-04T10:05:14Z</time>
      </trkpt>
      <trkpt lat="45.6184" lon="6.88899">
        <ele>2256.32</ele>
        <time>2018-02-04T10:05:30Z</time>
      </trkpt>
      <trkpt lat="45.61844" lon="6.88911">
        <ele>2259.47</ele>
        <time>2018-02-04T10:05:45Z</time>
      </trkpt>
      <trkpt lat="45.61846" lon="6.8892">
        <ele>2262.14</ele>
        <time>2018-02-04T10:05:59Z</time>
      </trkpt>
      <trkpt lat="45.61848" lon="6.88932">
        <ele>2265.1</ele>
        <time>2018-02-04T10:06:14Z</time>
      </trkpt>
      <trkpt lat="45.61848" lon="6.88943">
        <ele>2268.13</ele>
        <time>2018-02-04T10:06:31Z</time>
      </trkpt>
      <trkpt lat="45.61848" lon="6.88946">
        <ele>2269.66</ele>
        <time>2018-02-04T10:06:49Z</time>
      </trkpt>
      <trkpt lat="45.61848" lon="6.88945">
        <ele>2269.53</ele>
        <time>2018-02-04T10:07:13Z</time>
      </trkpt>
      <trkpt lat="45.6185" lon="6.88945">
        <ele>2269.38</ele>
        <time>2018-02-04T10:07:43Z</time>
      </trkpt>
      <trkpt lat="45.61848" lon="6.88946">
        <ele>2269.42</ele>
        <time>2018-02-04T10:07:54Z</time>
      </trkpt>
      <trkpt lat="45.61849" lon="6.88946">
        <ele>2269.02</ele>
        <time>2018-02-04T10:08:15Z</time>
      </trkpt>
      <trkpt lat="45.61849" lon="6.88943">
        <ele>2268.93</ele>
        <time>2018-02-04T10:08:41Z</time>
      </trkpt>
      <trkpt lat="45.61848" lon="6.88949">
        <ele>2269.46</ele>
        <time>2018-02-04T10:09:05Z</time>
      </trkpt>
      <trkpt lat="45.61844" lon="6.88958">
        <ele>2269.99</ele>
        <time>2018-02-04T10:09:19Z</time>
      </trkpt>
      <trkpt lat="45.61839" lon="6.88974">
        <ele>2273.1</ele>
        <time>2018-02-04T10:09:38Z</time>
      </trkpt>
      <trkpt lat="45.61834" lon="6.88986">
        <ele>2275.95</ele>
        <time>2018-02-04T10:09:58Z</time>
      </trkpt>
      <trkpt lat="45.6183" lon="6.89">
        <ele>2279.11</ele>
        <time>2018-02-04T10:10:17Z</time>
      </trkpt>
      <trkpt lat="45.61831" lon="6.89012">
        <ele>2281.74</ele>
        <time>2018-02-04T10:10:35Z</time>
      </trkpt>
      <trkpt lat="45.61831" lon="6.89025">
        <ele>2284.75</ele>
        <time>2018-02-04T10:10:51Z</time>
      </trkpt>
      <trkpt lat="45.61829" lon="6.89035">
        <ele>2287.76</ele>
        <time>2018-02-04T10:11:07Z</time>
      </trkpt>
      <trkpt lat="45.61826" lon="6.89047">
        <ele>2290.26</ele>
        <time>2018-02-04T10:11:23Z</time>
      </trkpt>
      <trkpt lat="45.6182" lon="6.89048">
        <ele>2293.37</ele>
        <time>2018-02-04T10:11:41Z</time>
      </trkpt>
      <trkpt lat="45.61816" lon="6.89038">
        <ele>2295.63</ele>
        <time>2018-02-04T10:11:54Z</time>
      </trkpt>
      <trkpt lat="45.61812" lon="6.8903">
        <ele>2297.86</ele>
        <time>2018-02-04T10:12:08Z</time>
      </trkpt>
      <trkpt lat="45.61803" lon="6.89031">
        <ele>2300.95</ele>
        <time>2018-02-04T10:12:26Z</time>
      </trkpt>
      <trkpt lat="45.61793" lon="6.89037">
        <ele>2303.9</ele>
        <time>2018-02-04T10:12:45Z</time>
      </trkpt>
      <trkpt lat="45.6178" lon="6.89036">
        <ele>2306.87</ele>
        <time>2018-02-04T10:13:04Z</time>
      </trkpt>
      <trkpt lat="45.61768" lon="6.89036">
        <ele>2309.98</ele>
        <time>2018-02-04T10:13:23Z</time>
      </trkpt>
      <trkpt lat="45.61756" lon="6.8904">
        <ele>2313.03</ele>
        <time>2018-02-04T10:13:44Z</time>
      </trkpt>
      <trkpt lat="45.6175" lon="6.89048">
        <ele>2316.06</ele>
        <time>2018-02-04T10:13:59Z</time>
      </trkpt>
      <trkpt lat="45.61749" lon="6.89065">
        <ele>2319.2</ele>
        <time>2018-02-04T10:14:17Z</time>
      </trkpt>
      <trkpt lat="45.61752" lon="6.89086">
        <ele>2322.27</ele>
        <time>2018-02-04T10:14:36Z</time>
      </trkpt>
      <trkpt lat="45.61755" lon="6.89097">
        <ele>2323.97</ele>
        <time>2018-02-04T10:14:46Z</time>
      </trkpt>
      <trkpt lat="45.61761" lon="6.89117">
        <ele>2324.66</ele>
        <time>2018-02-04T10:15:01Z</time>
      </trkpt>
      <trkpt lat="45.61762" lon="6.89131">
        <ele>2324.78</ele>
        <time>2018-02-04T10:15:13Z</time>
      </trkpt>
      <trkpt lat="45.61763" lon="6.89155">
        <ele>2326.54</ele>
        <time>2018-02-04T10:15:31Z</time>
      </trkpt>
      <trkpt lat="45.6176" lon="6.89175">
        <ele>2327.91</ele>
        <time>2018-02-04T10:15:48Z</time>
      </trkpt>
      <trkpt lat="45.61757" lon="6.89196">
        <ele>2330.64</ele>
        <time>2018-02-04T10:16:07Z</time>
      </trkpt>
      <trkpt lat="45.61755" lon="6.8922">
        <ele>2332.74</ele>
        <time>2018-02-04T10:16:26Z</time>
      </trkpt>
      <trkpt lat="45.61754" lon="6.89239">
        <ele>2334.31</ele>
        <time>2018-02-04T10:16:41Z</time>
      </trkpt>
      <trkpt lat="45.61749" lon="6.89259">
        <ele>2335.99</ele>
        <time>2018-02-04T10:16:59Z</time>
      </trkpt>
      <trkpt lat="45.61741" lon="6.89276">
        <ele>2338.52</ele>
        <time>2018-02-04T10:17:17Z</time>
      </trkpt>
      <trkpt lat="45.61735" lon="6.89292">
        <ele>2341.74</ele>
        <time>2018-02-04T10:17:34Z</time>
      </trkpt>
      <trkpt lat="45.61731" lon="6.89305">
        <ele>2344.94</ele>
        <time>2018-02-04T10:17:49Z</time>
      </trkpt>
      <trkpt lat="45.61728" lon="6.8932">
        <ele>2348.06</ele>
        <time>2018-02-04T10:18:06Z</time>
      </trkpt>
      <trkpt lat="45.61729" lon="6.89334">
        <ele>2350.82</ele>
        <time>2018-02-04T10:18:23Z</time>
      </trkpt>
      <trkpt lat="45.61729" lon="6.89345">
        <ele>2353.48</ele>
        <time>2018-02-04T10:18:39Z</time>
      </trkpt>
      <trkpt lat="45.61727" lon="6.89357">
        <ele>2355.48</ele>
        <time>2018-02-04T10:18:56Z</time>
      </trkpt>
      <trkpt lat="45.61727" lon="6.8937">
        <ele>2358.51</ele>
        <time>2018-02-04T10:19:12Z</time>
      </trkpt>
      <trkpt lat="45.61727" lon="6.89381">
        <ele>2361.29</ele>
        <time>2018-02-04T10:19:26Z</time>
      </trkpt>
      <trkpt lat="45.61728" lon="6.89396">
        <ele>2364.48</ele>
        <time>2018-02-04T10:19:41Z</time>
      </trkpt>
      <trkpt lat="45.61729" lon="6.8941">
        <ele>2367.62</ele>
        <time>2018-02-04T10:19:55Z</time>
      </trkpt>
      <trkpt lat="45.61731" lon="6.89423">
        <ele>2370.74</ele>
        <time>2018-02-04T10:20:09Z</time>
      </trkpt>
      <trkpt lat="45.61734" lon="6.89438">
        <ele>2373.71</ele>
        <time>2018-02-04T10:20:26Z</time>
      </trkpt>
      <trkpt lat="45.61736" lon="6.89452">
        <ele>2376.93</ele>
        <time>2018-02-04T10:20:41Z</time>
      </trkpt>
      <trkpt lat="45.61735" lon="6.89463">
        <ele>2380.11</ele>
        <time>2018-02-04T10:20:55Z</time>
      </trkpt>
      <trkpt lat="45.61727" lon="6.89472">
        <ele>2383.13</ele>
        <time>2018-02-04T10:21:11Z</time>
      </trkpt>
      <trkpt lat="45.61719" lon="6.89481">
        <ele>2386.32</ele>
        <time>2018-02-04T10:21:31Z</time>
      </trkpt>
      <trkpt lat="45.61713" lon="6.8949">
        <ele>2388.93</ele>
        <time>2018-02-04T10:21:46Z</time>
      </trkpt>
      <trkpt lat="45.6171" lon="6.89505">
        <ele>2392.03</ele>
        <time>2018-02-04T10:22:05Z</time>
      </trkpt>
      <trkpt lat="45.61714" lon="6.89516">
        <ele>2395.24</ele>
        <time>2018-02-04T10:22:21Z</time>
      </trkpt>
      <trkpt lat="45.61723" lon="6.89518">
        <ele>2397.33</ele>
        <time>2018-02-04T10:22:38Z</time>
      </trkpt>
      <trkpt lat="45.61731" lon="6.89525">
        <ele>2400.37</ele>
        <time>2018-02-04T10:22:55Z</time>
      </trkpt>
      <trkpt lat="45.61739" lon="6.89529">
        <ele>2403.43</ele>
        <time>2018-02-04T10:23:13Z</time>
      </trkpt>
      <trkpt lat="45.61747" lon="6.89533">
        <ele>2406.28</ele>
        <time>2018-02-04T10:23:29Z</time>
      </trkpt>
      <trkpt lat="45.61755" lon="6.89541">
        <ele>2409.35</ele>
        <time>2018-02-04T10:23:48Z</time>
      </trkpt>
      <trkpt lat="45.61755" lon="6.89551">
        <ele>2412.46</ele>
        <time>2018-02-04T10:24:03Z</time>
      </trkpt>
      <trkpt lat="45.61751" lon="6.8956">
        <ele>2415.01</ele>
        <time>2018-02-04T10:24:17Z</time>
      </trkpt>
      <trkpt lat="45.61753" lon="6.89568">
        <ele>2418.17</ele>
        <time>2018-02-04T10:24:32Z</time>
      </trkpt>
      <trkpt lat="45.6176" lon="6.89577">
        <ele>2421.06</ele>
        <time>2018-02-04T10:24:50Z</time>
      </trkpt>
      <trkpt lat="45.61763" lon="6.89587">
        <ele>2423.94</ele>
        <time>2018-02-04T10:25:07Z</time>
      </trkpt>
      <trkpt lat="45.61761" lon="6.89597">
        <ele>2426.07</ele>
        <time>2018-02-04T10:25:20Z</time>
      </trkpt>
      <trkpt lat="45.61764" lon="6.8961">
        <ele>2429.14</ele>
        <time>2018-02-04T10:25:38Z</time>
      </trkpt>
      <trkpt lat="45.61767" lon="6.89627">
        <ele>2430.74</ele>
        <time>2018-02-04T10:25:57Z</time>
      </trkpt>
      <trkpt lat="45.61766" lon="6.8964">
        <ele>2431.49</ele>
        <time>2018-02-04T10:26:10Z</time>
      </trkpt>
      <trkpt lat="45.61763" lon="6.89654">
        <ele>2432.25</ele>
        <time>2018-02-04T10:26:26Z</time>
      </trkpt>
      <trkpt lat="45.61762" lon="6.89668">
        <ele>2435.34</ele>
        <time>2018-02-04T10:26:42Z</time>
      </trkpt>
      <trkpt lat="45.61763" lon="6.89677">
        <ele>2437.31</ele>
        <time>2018-02-04T10:26:57Z</time>
      </trkpt>
      <trkpt lat="45.61763" lon="6.89684">
        <ele>2439.22</ele>
        <time>2018-02-04T10:27:15Z</time>
      </trkpt>
      <trkpt lat="45.61767" lon="6.89701">
        <ele>2441.95</ele>
        <time>2018-02-04T10:27:36Z</time>
      </trkpt>
      <trkpt lat="45.61768" lon="6.89712">
        <ele>2444.99</ele>
        <time>2018-02-04T10:27:50Z</time>
      </trkpt>
      <trkpt lat="45.6177" lon="6.89723">
        <ele>2447.71</ele>
        <time>2018-02-04T10:28:04Z</time>
      </trkpt>
      <trkpt lat="45.61769" lon="6.89737">
        <ele>2450.03</ele>
        <time>2018-02-04T10:28:18Z</time>
      </trkpt>
      <trkpt lat="45.6177" lon="6.89749">
        <ele>2452.45</ele>
        <time>2018-02-04T10:28:33Z</time>
      </trkpt>
      <trkpt lat="45.61771" lon="6.89766">
        <ele>2455.63</ele>
        <time>2018-02-04T10:28:51Z</time>
      </trkpt>
      <trkpt lat="45.61774" lon="6.89778">
        <ele>2458.66</ele>
        <time>2018-02-04T10:29:08Z</time>
      </trkpt>
      <trkpt lat="45.61776" lon="6.89791">
        <ele>2461.58</ele>
        <time>2018-02-04T10:29:25Z</time>
      </trkpt>
      <trkpt lat="45.61778" lon="6.89804">
        <ele>2464.43</ele>
        <time>2018-02-04T10:29:44Z</time>
      </trkpt>
      <trkpt lat="45.6178" lon="6.89821">
        <ele>2467.51</ele>
        <time>2018-02-04T10:30:04Z</time>
      </trkpt>
      <trkpt lat="45.61783" lon="6.89838">
        <ele>2470.65</ele>
        <time>2018-02-04T10:30:23Z</time>
      </trkpt>
      <trkpt lat="45.61786" lon="6.89858">
        <ele>2473.52</ele>
        <time>2018-02-04T10:30:46Z</time>
      </trkpt>
      <trkpt lat="45.6179" lon="6.89872">
        <ele>2476.34</ele>
        <time>2018-02-04T10:31:04Z</time>
      </trkpt>
      <trkpt lat="45.61795" lon="6.89886">
        <ele>2479.47</ele>
        <time>2018-02-04T10:31:24Z</time>
      </trkpt>
      <trkpt lat="45.61799" lon="6.89903">
        <ele>2482.58</ele>
        <time>2018-02-04T10:31:43Z</time>
      </trkpt>
      <trkpt lat="45.61804" lon="6.89918">
        <ele>2485.64</ele>
        <time>2018-02-04T10:32:04Z</time>
      </trkpt>
      <trkpt lat="45.61807" lon="6.89929">
        <ele>2488.66</ele>
        <time>2018-02-04T10:32:19Z</time>
      </trkpt>
      <trkpt lat="45.61813" lon="6.89942">
        <ele>2491.03</ele>
        <time>2018-02-04T10:32:36Z</time>
      </trkpt>
      <trkpt lat="45.61818" lon="6.89954">
        <ele>2494.22</ele>
        <time>2018-02-04T10:32:55Z</time>
      </trkpt>
      <trkpt lat="45.61825" lon="6.89973">
        <ele>2497.23</ele>
        <time>2018-02-04T10:33:18Z</time>
      </trkpt>
      <trkpt lat="45.61828" lon="6.89989">
        <ele>2500</ele>
        <time>2018-02-04T10:33:39Z</time>
      </trkpt>
      <trkpt lat="45.61827" lon="6.90005">
        <ele>2502.77</ele>
        <time>2018-02-04T10:33:57Z</time>
      </trkpt>
      <trkpt lat="45.61826" lon="6.9002">
        <ele>2505.58</ele>
        <time>2018-02-04T10:34:15Z</time>
      </trkpt>
      <trkpt lat="45.61826" lon="6.90035">
        <ele>2508.61</ele>
        <time>2018-02-04T10:34:35Z</time>
      </trkpt>
      <trkpt lat="45.61827" lon="6.90048">
        <ele>2511.7</ele>
        <time>2018-02-04T10:34:53Z</time>
      </trkpt>
      <trkpt lat="45.61831" lon="6.90061">
        <ele>2514.87</ele>
        <time>2018-02-04T10:35:14Z</time>
      </trkpt>
      <trkpt lat="45.61843" lon="6.90062">
        <ele>2517.94</ele>
        <time>2018-02-04T10:35:35Z</time>
      </trkpt>
      <trkpt lat="45.61849" lon="6.90061">
        <ele>2520.03</ele>
        <time>2018-02-04T10:35:49Z</time>
      </trkpt>
      <trkpt lat="45.61851" lon="6.9006">
        <ele>2521.64</ele>
        <time>2018-02-04T10:36:01Z</time>
      </trkpt>
      <trkpt lat="45.61852" lon="6.90065">
        <ele>2522.66</ele>
        <time>2018-02-04T10:36:13Z</time>
      </trkpt>
      <trkpt lat="45.61854" lon="6.90068">
        <ele>2524.5</ele>
        <time>2018-02-04T10:36:26Z</time>
      </trkpt>
      <trkpt lat="45.61863" lon="6.90069">
        <ele>2526.46</ele>
        <time>2018-02-04T10:36:42Z</time>
      </trkpt>
      <trkpt lat="45.61865" lon="6.90071">
        <ele>2528.7</ele>
        <time>2018-02-04T10:36:58Z</time>
      </trkpt>
      <trkpt lat="45.61864" lon="6.9007">
        <ele>2528.65</ele>
        <time>2018-02-04T10:37:23Z</time>
      </trkpt>
      <trkpt lat="45.61864" lon="6.9007">
        <ele>2528.41</ele>
        <time>2018-02-04T10:37:44Z</time>
      </trkpt>
      <trkpt lat="45.61864" lon="6.9007">
        <ele>2528.11</ele>
        <time>2018-02-04T10:38:31Z</time>
      </trkpt>
      <trkpt lat="45.61864" lon="6.9007">
        <ele>2528.4</ele>
        <time>2018-02-04T10:38:51Z</time>
      </trkpt>
      <trkpt lat="45.61866" lon="6.90071">
        <ele>2528.2</ele>
        <time>2018-02-04T10:39:15Z</time>
      </trkpt>
      <trkpt lat="45.61867" lon="6.90074">
        <ele>2527.98</ele>
        <time>2018-02-04T10:39:40Z</time>
      </trkpt>
      <trkpt lat="45.61868" lon="6.90076">
        <ele>2528.66</ele>
        <time>2018-02-04T10:39:53Z</time>
      </trkpt>
      <trkpt lat="45.61866" lon="6.90076">
        <ele>2528.9</ele>
        <time>2018-02-04T10:40:10Z</time>
      </trkpt>
      <trkpt lat="45.61866" lon="6.90076">
        <ele>2528.68</ele>
        <time>2018-02-04T10:40:31Z</time>
      </trkpt>
      <trkpt lat="45.61865" lon="6.90075">
        <ele>2528.39</ele>
        <time>2018-02-04T10:40:58Z</time>
      </trkpt>
      <trkpt lat="45.61865" lon="6.90075">
        <ele>2528.08</ele>
        <time>2018-02-04T10:41:17Z</time>
      </trkpt>
      <trkpt lat="45.61865" lon="6.90074">
        <ele>2528.45</ele>
        <time>2018-02-04T10:41:32Z</time>
      </trkpt>
      <trkpt lat="45.61865" lon="6.90075">
        <ele>2528.11</ele>
        <time>2018-02-04T10:42:03Z</time>
      </trkpt>
      <trkpt lat="45.61867" lon="6.90075">
        <ele>2527.74</ele>
        <time>2018-02-04T10:42:27Z</time>
      </trkpt>
      <trkpt lat="45.61866" lon="6.90072">
        <ele>2528.02</ele>
        <time>2018-02-04T10:42:41Z</time>
      </trkpt>
      <trkpt lat="45.61862" lon="6.90065">
        <ele>2527.13</ele>
        <time>2018-02-04T10:42:55Z</time>
      </trkpt>
      <trkpt lat="45.61863" lon="6.90065">
        <ele>2526.72</ele>
        <time>2018-02-04T10:43:19Z</time>
      </trkpt>
      <trkpt lat="45.61863" lon="6.90064">
        <ele>2526.52</ele>
        <time>2018-02-04T10:43:38Z</time>
      </trkpt>
      <trkpt lat="45.61865" lon="6.90061">
        <ele>2526.4</ele>
        <time>2018-02-04T10:43:42Z</time>
      </trkpt>
      <trkpt lat="45.61869" lon="6.90058">
        <ele>2525.46</ele>
        <time>2018-02-04T10:43:48Z</time>
      </trkpt>
      <trkpt lat="45.61879" lon="6.90062">
        <ele>2522.74</ele>
        <time>2018-02-04T10:43:59Z</time>
      </trkpt>
      <trkpt lat="45.61888" lon="6.90066">
        <ele>2519.82</ele>
        <time>2018-02-04T10:44:06Z</time>
      </trkpt>
      <trkpt lat="45.61894" lon="6.90067">
        <ele>2515.7</ele>
        <time>2018-02-04T10:44:13Z</time>
      </trkpt>
      <trkpt lat="45.61895" lon="6.90067">
        <ele>2515.22</ele>
        <time>2018-02-04T10:44:14Z</time>
      </trkpt>
      <trkpt lat="45.61906" lon="6.90065">
        <ele>2511.85</ele>
        <time>2018-02-04T10:44:23Z</time>
      </trkpt>
      <trkpt lat="45.61915" lon="6.90064">
        <ele>2508.39</ele>
        <time>2018-02-04T10:44:33Z</time>
      </trkpt>
      <trkpt lat="45.61924" lon="6.90061">
        <ele>2505.19</ele>
        <time>2018-02-04T10:44:45Z</time>
      </trkpt>
      <trkpt lat="45.61927" lon="6.9006">
        <ele>2503.96</ele>
        <time>2018-02-04T10:44:49Z</time>
      </trkpt>
      <trkpt lat="45.61931" lon="6.90056">
        <ele>2501.25</ele>
        <time>2018-02-04T10:44:56Z</time>
      </trkpt>
      <trkpt lat="45.61931" lon="6.90056">
        <ele>2498.24</ele>
        <time>2018-02-04T10:45:08Z</time>
      </trkpt>
      <trkpt lat="45.61934" lon="6.90055">
        <ele>2497.07</ele>
        <time>2018-02-04T10:45:24Z</time>
      </trkpt>
      <trkpt lat="45.61941" lon="6.90055">
        <ele>2497.52</ele>
        <time>2018-02-04T10:45:38Z</time>
      </trkpt>
      <trkpt lat="45.61952" lon="6.90056">
        <ele>2497.85</ele>
        <time>2018-02-04T10:45:57Z</time>
      </trkpt>
      <trkpt lat="45.61962" lon="6.90055">
        <ele>2498.73</ele>
        <time>2018-02-04T10:46:13Z</time>
      </trkpt>
      <trkpt lat="45.61966" lon="6.90056">
        <ele>2499.76</ele>
        <time>2018-02-04T10:46:30Z</time>
      </trkpt>
      <trkpt lat="45.61966" lon="6.90057">
        <ele>2499.8</ele>
        <time>2018-02-04T10:46:54Z</time>
      </trkpt>
      <trkpt lat="45.6198" lon="6.9006">
        <ele>2502.35</ele>
        <time>2018-02-04T10:47:12Z</time>
      </trkpt>
      <trkpt lat="45.6199" lon="6.90064">
        <ele>2505.55</ele>
        <time>2018-02-04T10:47:29Z</time>
      </trkpt>
      <trkpt lat="45.61998" lon="6.90066">
        <ele>2508.05</ele>
        <time>2018-02-04T10:47:43Z</time>
      </trkpt>
      <trkpt lat="45.62003" lon="6.90069">
        <ele>2511.11</ele>
        <time>2018-02-04T10:47:58Z</time>
      </trkpt>
      <trkpt lat="45.62003" lon="6.90074">
        <ele>2514.12</ele>
        <time>2018-02-04T10:48:16Z</time>
      </trkpt>
      <trkpt lat="45.62003" lon="6.90072">
        <ele>2514.18</ele>
        <time>2018-02-04T10:48:41Z</time>
      </trkpt>
      <trkpt lat="45.62004" lon="6.90072">
        <ele>2513.96</ele>
        <time>2018-02-04T10:49:03Z</time>
      </trkpt>
      <trkpt lat="45.62005" lon="6.90074">
        <ele>2514</ele>
        <time>2018-02-04T10:49:24Z</time>
      </trkpt>
      <trkpt lat="45.62009" lon="6.90071">
        <ele>2513.72</ele>
        <time>2018-02-04T10:49:41Z</time>
      </trkpt>
      <trkpt lat="45.6201" lon="6.90071">
        <ele>2513.59</ele>
        <time>2018-02-04T10:49:43Z</time>
      </trkpt>
      <trkpt lat="45.62016" lon="6.90069">
        <ele>2513.13</ele>
        <time>2018-02-04T10:49:46Z</time>
      </trkpt>
      <trkpt lat="45.62039" lon="6.90067">
        <ele>2509.2</ele>
        <time>2018-02-04T10:49:53Z</time>
      </trkpt>
      <trkpt lat="45.62052" lon="6.90068">
        <ele>2505.47</ele>
        <time>2018-02-04T10:49:57Z</time>
      </trkpt>
      <trkpt lat="45.62056" lon="6.90068">
        <ele>2502.33</ele>
        <time>2018-02-04T10:50:01Z</time>
      </trkpt>
      <trkpt lat="45.6206" lon="6.90073">
        <ele>2500.52</ele>
        <time>2018-02-04T10:50:12Z</time>
      </trkpt>
      <trkpt lat="45.62065" lon="6.90088">
        <ele>2501.75</ele>
        <time>2018-02-04T10:50:28Z</time>
      </trkpt>
      <trkpt lat="45.62069" lon="6.90103">
        <ele>2504.02</ele>
        <time>2018-02-04T10:50:44Z</time>
      </trkpt>
      <trkpt lat="45.62077" lon="6.90116">
        <ele>2504.96</ele>
        <time>2018-02-04T10:50:58Z</time>
      </trkpt>
      <trkpt lat="45.62079" lon="6.90122">
        <ele>2505.35</ele>
        <time>2018-02-04T10:51:03Z</time>
      </trkpt>
      <trkpt lat="45.62084" lon="6.90137">
        <ele>2506.23</ele>
        <time>2018-02-04T10:51:15Z</time>
      </trkpt>
      <trkpt lat="45.62088" lon="6.90147">
        <ele>2508.06</ele>
        <time>2018-02-04T10:51:27Z</time>
      </trkpt>
      <trkpt lat="45.62098" lon="6.90155">
        <ele>2510.78</ele>
        <time>2018-02-04T10:51:41Z</time>
      </trkpt>
      <trkpt lat="45.62106" lon="6.90162">
        <ele>2512.89</ele>
        <time>2018-02-04T10:51:54Z</time>
      </trkpt>
      <trkpt lat="45.62114" lon="6.90169">
        <ele>2514.14</ele>
        <time>2018-02-04T10:52:07Z</time>
      </trkpt>
      <trkpt lat="45.62119" lon="6.9018">
        <ele>2516.56</ele>
        <time>2018-02-04T10:52:24Z</time>
      </trkpt>
      <trkpt lat="45.62122" lon="6.90183">
        <ele>2517.14</ele>
        <time>2018-02-04T10:52:29Z</time>
      </trkpt>
      <trkpt lat="45.62124" lon="6.90184">
        <ele>2517.36</ele>
        <time>2018-02-04T10:52:31Z</time>
      </trkpt>
      <trkpt lat="45.62138" lon="6.90187">
        <ele>2517.96</ele>
        <time>2018-02-04T10:52:46Z</time>
      </trkpt>
      <trkpt lat="45.62146" lon="6.90188">
        <ele>2518.74</ele>
        <time>2018-02-04T10:52:59Z</time>
      </trkpt>
      <trkpt lat="45.62149" lon="6.9019">
        <ele>2518.5</ele>
        <time>2018-02-04T10:53:14Z</time>
      </trkpt>
      <trkpt lat="45.62153" lon="6.90191">
        <ele>2518.16</ele>
        <time>2018-02-04T10:53:23Z</time>
      </trkpt>
      <trkpt lat="45.62163" lon="6.90192">
        <ele>2517.48</ele>
        <time>2018-02-04T10:53:28Z</time>
      </trkpt>
      <trkpt lat="45.62175" lon="6.90195">
        <ele>2513.97</ele>
        <time>2018-02-04T10:53:35Z</time>
      </trkpt>
      <trkpt lat="45.6218" lon="6.90197">
        <ele>2510.82</ele>
        <time>2018-02-04T10:53:44Z</time>
      </trkpt>
      <trkpt lat="45.62178" lon="6.90197">
        <ele>2509.99</ele>
        <time>2018-02-04T10:54:04Z</time>
      </trkpt>
      <trkpt lat="45.62179" lon="6.90196">
        <ele>2509.55</ele>
        <time>2018-02-04T10:54:21Z</time>
      </trkpt>
      <trkpt lat="45.6218" lon="6.90193">
        <ele>2509.14</ele>
        <time>2018-02-04T10:54:40Z</time>
      </trkpt>
      <trkpt lat="45.6218" lon="6.90195">
        <ele>2509.23</ele>
        <time>2018-02-04T10:55:21Z</time>
      </trkpt>
      <trkpt lat="45.62179" lon="6.90196">
        <ele>2509.32</ele>
        <time>2018-02-04T10:56:25Z</time>
      </trkpt>
      <trkpt lat="45.62177" lon="6.90194">
        <ele>2508.91</ele>
        <time>2018-02-04T10:57:10Z</time>
      </trkpt>
      <trkpt lat="45.62177" lon="6.90195">
        <ele>2509.22</ele>
        <time>2018-02-04T10:57:53Z</time>
      </trkpt>
      <trkpt lat="45.62177" lon="6.90196">
        <ele>2508.82</ele>
        <time>2018-02-04T10:58:34Z</time>
      </trkpt>
      <trkpt lat="45.62178" lon="6.90198">
        <ele>2510.19</ele>
        <time>2018-02-04T10:58:55Z</time>
      </trkpt>
      <trkpt lat="45.62178" lon="6.90196">
        <ele>2510.27</ele>
        <time>2018-02-04T10:59:17Z</time>
      </trkpt>
      <trkpt lat="45.62178" lon="6.90198">
        <ele>2510.12</ele>
        <time>2018-02-04T10:59:38Z</time>
      </trkpt>
      <trkpt lat="45.62177" lon="6.90198">
        <ele>2510.08</ele>
        <time>2018-02-04T11:00:05Z</time>
      </trkpt>
      <trkpt lat="45.62177" lon="6.90197">
        <ele>2509.84</ele>
        <time>2018-02-04T11:00:26Z</time>
      </trkpt>
      <trkpt lat="45.62178" lon="6.90198">
        <ele>2510.57</ele>
        <time>2018-02-04T11:00:58Z</time>
      </trkpt>
      <trkpt lat="45.6218" lon="6.90198">
        <ele>2510.6</ele>
        <time>2018-02-04T11:01:33Z</time>
      </trkpt>
      <trkpt lat="45.6218" lon="6.90198">
        <ele>2510.62</ele>
        <time>2018-02-04T11:02:05Z</time>
      </trkpt>
      <trkpt lat="45.62184" lon="6.90194">
        <ele>2509.99</ele>
        <time>2018-02-04T11:02:13Z</time>
      </trkpt>
      <trkpt lat="45.62183" lon="6.90193">
        <ele>2509.5</ele>
        <time>2018-02-04T11:02:39Z</time>
      </trkpt>
      <trkpt lat="45.62183" lon="6.90193">
        <ele>2509.24</ele>
        <time>2018-02-04T11:03:20Z</time>
      </trkpt>
      <trkpt lat="45.62183" lon="6.90192">
        <ele>2508.99</ele>
        <time>2018-02-04T11:03:55Z</time>
      </trkpt>
      <trkpt lat="45.62181" lon="6.90192">
        <ele>2508.44</ele>
        <time>2018-02-04T11:04:17Z</time>
      </trkpt>
      <trkpt lat="45.62182" lon="6.90189">
        <ele>2507.9</ele>
        <time>2018-02-04T11:04:59Z</time>
      </trkpt>
      <trkpt lat="45.62176" lon="6.9017">
        <ele>2505.27</ele>
        <time>2018-02-04T11:05:05Z</time>
      </trkpt>
      <trkpt lat="45.62179" lon="6.90155">
        <ele>2501.32</ele>
        <time>2018-02-04T11:05:09Z</time>
      </trkpt>
      <trkpt lat="45.62177" lon="6.90149">
        <ele>2498.12</ele>
        <time>2018-02-04T11:05:11Z</time>
      </trkpt>
      <trkpt lat="45.62177" lon="6.90145">
        <ele>2492.85</ele>
        <time>2018-02-04T11:05:14Z</time>
      </trkpt>
      <trkpt lat="45.62174" lon="6.9014">
        <ele>2487.23</ele>
        <time>2018-02-04T11:05:18Z</time>
      </trkpt>
      <trkpt lat="45.62178" lon="6.90129">
        <ele>2482.05</ele>
        <time>2018-02-04T11:05:23Z</time>
      </trkpt>
      <trkpt lat="45.62179" lon="6.90122">
        <ele>2478.95</ele>
        <time>2018-02-04T11:05:26Z</time>
      </trkpt>
      <trkpt lat="45.62177" lon="6.90114">
        <ele>2474.92</ele>
        <time>2018-02-04T11:05:29Z</time>
      </trkpt>
      <trkpt lat="45.62179" lon="6.9011">
        <ele>2472.01</ele>
        <time>2018-02-04T11:05:31Z</time>
      </trkpt>
      <trkpt lat="45.62183" lon="6.90107">
        <ele>2469.08</ele>
        <time>2018-02-04T11:05:33Z</time>
      </trkpt>
      <trkpt lat="45.62184" lon="6.90095">
        <ele>2464.58</ele>
        <time>2018-02-04T11:05:36Z</time>
      </trkpt>
      <trkpt lat="45.62189" lon="6.90092">
        <ele>2461.25</ele>
        <time>2018-02-04T11:05:38Z</time>
      </trkpt>
      <trkpt lat="45.6219" lon="6.90092">
        <ele>2457.83</ele>
        <time>2018-02-04T11:05:40Z</time>
      </trkpt>
      <trkpt lat="45.62191" lon="6.90093">
        <ele>2452.81</ele>
        <time>2018-02-04T11:05:43Z</time>
      </trkpt>
      <trkpt lat="45.62192" lon="6.90092">
        <ele>2452.81</ele>
        <time>2018-02-04T11:05:44Z</time>
      </trkpt>
      <trkpt lat="45.62193" lon="6.90092">
        <ele>2450.82</ele>
        <time>2018-02-04T11:05:46Z</time>
      </trkpt>
      <trkpt lat="45.62195" lon="6.9008">
        <ele>2449.03</ele>
        <time>2018-02-04T11:05:50Z</time>
      </trkpt>
      <trkpt lat="45.62199" lon="6.90065">
        <ele>2444.27</ele>
        <time>2018-02-04T11:05:55Z</time>
      </trkpt>
      <trkpt lat="45.62198" lon="6.90054">
        <ele>2439.81</ele>
        <time>2018-02-04T11:05:58Z</time>
      </trkpt>
      <trkpt lat="45.62203" lon="6.90042">
        <ele>2432.68</ele>
        <time>2018-02-04T11:06:02Z</time>
      </trkpt>
      <trkpt lat="45.62207" lon="6.90036">
        <ele>2428.95</ele>
        <time>2018-02-04T11:06:04Z</time>
      </trkpt>
      <trkpt lat="45.62212" lon="6.90032">
        <ele>2424.93</ele>
        <time>2018-02-04T11:06:06Z</time>
      </trkpt>
      <trkpt lat="45.62215" lon="6.90033">
        <ele>2420.87</ele>
        <time>2018-02-04T11:06:08Z</time>
      </trkpt>
      <trkpt lat="45.62216" lon="6.90031">
        <ele>2416.94</ele>
        <time>2018-02-04T11:06:10Z</time>
      </trkpt>
      <trkpt lat="45.62217" lon="6.90032">
        <ele>2414.11</ele>
        <time>2018-02-04T11:06:12Z</time>
      </trkpt>
      <trkpt lat="45.62218" lon="6.90033">
        <ele>2410.76</ele>
        <time>2018-02-04T11:06:16Z</time>
      </trkpt>
      <trkpt lat="45.62216" lon="6.90037">
        <ele>2409.48</ele>
        <time>2018-02-04T11:06:38Z</time>
      </trkpt>
      <trkpt lat="45.62214" lon="6.90037">
        <ele>2408.41</ele>
        <time>2018-02-04T11:06:58Z</time>
      </trkpt>
      <trkpt lat="45.62211" lon="6.90034">
        <ele>2408.51</ele>
        <time>2018-02-04T11:07:21Z</time>
      </trkpt>
      <trkpt lat="45.62212" lon="6.9004">
        <ele>2408.79</ele>
        <time>2018-02-04T11:07:44Z</time>
      </trkpt>
      <trkpt lat="45.62215" lon="6.90041">
        <ele>2408.9</ele>
        <time>2018-02-04T11:08:17Z</time>
      </trkpt>
      <trkpt lat="45.62227" lon="6.90024">
        <ele>2407.4</ele>
        <time>2018-02-04T11:08:24Z</time>
      </trkpt>
      <trkpt lat="45.62232" lon="6.9001">
        <ele>2406.19</ele>
        <time>2018-02-04T11:08:26Z</time>
      </trkpt>
      <trkpt lat="45.62244" lon="6.89988">
        <ele>2400.18</ele>
        <time>2018-02-04T11:08:30Z</time>
      </trkpt>
      <trkpt lat="45.62252" lon="6.8998">
        <ele>2396.42</ele>
        <time>2018-02-04T11:08:32Z</time>
      </trkpt>
      <trkpt lat="45.62257" lon="6.89974">
        <ele>2392.66</ele>
        <time>2018-02-04T11:08:34Z</time>
      </trkpt>
      <trkpt lat="45.62262" lon="6.8997">
        <ele>2389.66</ele>
        <time>2018-02-04T11:08:36Z</time>
      </trkpt>
      <trkpt lat="45.62267" lon="6.89966">
        <ele>2386.22</ele>
        <time>2018-02-04T11:08:39Z</time>
      </trkpt>
      <trkpt lat="45.62269" lon="6.89964">
        <ele>2385.28</ele>
        <time>2018-02-04T11:08:40Z</time>
      </trkpt>
      <trkpt lat="45.62271" lon="6.89943">
        <ele>2379.75</ele>
        <time>2018-02-04T11:08:45Z</time>
      </trkpt>
      <trkpt lat="45.62271" lon="6.89929">
        <ele>2375.37</ele>
        <time>2018-02-04T11:08:48Z</time>
      </trkpt>
      <trkpt lat="45.62273" lon="6.89921">
        <ele>2371.6</ele>
        <time>2018-02-04T11:08:50Z</time>
      </trkpt>
      <trkpt lat="45.62277" lon="6.89918">
        <ele>2367.89</ele>
        <time>2018-02-04T11:08:52Z</time>
      </trkpt>
      <trkpt lat="45.62278" lon="6.89918">
        <ele>2364.35</ele>
        <time>2018-02-04T11:08:54Z</time>
      </trkpt>
      <trkpt lat="45.62278" lon="6.89918">
        <ele>2360.59</ele>
        <time>2018-02-04T11:08:57Z</time>
      </trkpt>
      <trkpt lat="45.62278" lon="6.89919">
        <ele>2357.37</ele>
        <time>2018-02-04T11:09:03Z</time>
      </trkpt>
      <trkpt lat="45.62278" lon="6.89919">
        <ele>2356.06</ele>
        <time>2018-02-04T11:09:43Z</time>
      </trkpt>
      <trkpt lat="45.62276" lon="6.89919">
        <ele>2356.71</ele>
        <time>2018-02-04T11:10:19Z</time>
      </trkpt>
      <trkpt lat="45.62276" lon="6.89919">
        <ele>2356.82</ele>
        <time>2018-02-04T11:10:24Z</time>
      </trkpt>
      <trkpt lat="45.62277" lon="6.89916">
        <ele>2356.82</ele>
        <time>2018-02-04T11:10:26Z</time>
      </trkpt>
      <trkpt lat="45.62276" lon="6.89908">
        <ele>2354.36</ele>
        <time>2018-02-04T11:10:31Z</time>
      </trkpt>
      <trkpt lat="45.62276" lon="6.89907">
        <ele>2351.13</ele>
        <time>2018-02-04T11:10:36Z</time>
      </trkpt>
      <trkpt lat="45.62278" lon="6.89907">
        <ele>2350</ele>
        <time>2018-02-04T11:10:42Z</time>
      </trkpt>
      <trkpt lat="45.62295" lon="6.89892">
        <ele>2349.32</ele>
        <time>2018-02-04T11:10:46Z</time>
      </trkpt>
      <trkpt lat="45.62315" lon="6.89876">
        <ele>2345.23</ele>
        <time>2018-02-04T11:10:50Z</time>
      </trkpt>
      <trkpt lat="45.6233" lon="6.89865">
        <ele>2341.9</ele>
        <time>2018-02-04T11:10:53Z</time>
      </trkpt>
      <trkpt lat="45.62339" lon="6.89857">
        <ele>2337.82</ele>
        <time>2018-02-04T11:10:55Z</time>
      </trkpt>
      <trkpt lat="45.62344" lon="6.89854">
        <ele>2337.82</ele>
        <time>2018-02-04T11:10:56Z</time>
      </trkpt>
      <trkpt lat="45.62351" lon="6.89848">
        <ele>2334.26</ele>
        <time>2018-02-04T11:10:58Z</time>
      </trkpt>
      <trkpt lat="45.62366" lon="6.89839">
        <ele>2330.83</ele>
        <time>2018-02-04T11:11:03Z</time>
      </trkpt>
      <trkpt lat="45.62372" lon="6.89837">
        <ele>2328.34</ele>
        <time>2018-02-04T11:11:11Z</time>
      </trkpt>
      <trkpt lat="45.62374" lon="6.89837">
        <ele>2327.53</ele>
        <time>2018-02-04T11:11:23Z</time>
      </trkpt>
      <trkpt lat="45.62377" lon="6.89835">
        <ele>2327.46</ele>
        <time>2018-02-04T11:11:26Z</time>
      </trkpt>
      <trkpt lat="45.62382" lon="6.89832">
        <ele>2326.41</ele>
        <time>2018-02-04T11:11:36Z</time>
      </trkpt>
      <trkpt lat="45.62386" lon="6.89835">
        <ele>2325.8</ele>
        <time>2018-02-04T11:11:54Z</time>
      </trkpt>
      <trkpt lat="45.62386" lon="6.89838">
        <ele>2326.24</ele>
        <time>2018-02-04T11:12:16Z</time>
      </trkpt>
      <trkpt lat="45.62384" lon="6.89837">
        <ele>2326.09</ele>
        <time>2018-02-04T11:12:37Z</time>
      </trkpt>
      <trkpt lat="45.62383" lon="6.89837">
        <ele>2326.5</ele>
        <time>2018-02-04T11:12:58Z</time>
      </trkpt>
      <trkpt lat="45.62382" lon="6.89837">
        <ele>2326.24</ele>
        <time>2018-02-04T11:13:26Z</time>
      </trkpt>
      <trkpt lat="45.62384" lon="6.89838">
        <ele>2326.39</ele>
        <time>2018-02-04T11:13:48Z</time>
      </trkpt>
      <trkpt lat="45.62384" lon="6.89835">
        <ele>2326.09</ele>
        <time>2018-02-04T11:14:07Z</time>
      </trkpt>
      <trkpt lat="45.62384" lon="6.89838">
        <ele>2326.78</ele>
        <time>2018-02-04T11:14:28Z</time>
      </trkpt>
      <trkpt lat="45.62384" lon="6.89838">
        <ele>2326.68</ele>
        <time>2018-02-04T11:14:51Z</time>
      </trkpt>
      <trkpt lat="45.62384" lon="6.89837">
        <ele>2326.79</ele>
        <time>2018-02-04T11:15:13Z</time>
      </trkpt>
      <trkpt lat="45.62384" lon="6.89838">
        <ele>2326.31</ele>
        <time>2018-02-04T11:15:38Z</time>
      </trkpt>
      <trkpt lat="45.62386" lon="6.8984">
        <ele>2326.99</ele>
        <time>2018-02-04T11:15:59Z</time>
      </trkpt>
      <trkpt lat="45.62386" lon="6.89841">
        <ele>2327.09</ele>
        <time>2018-02-04T11:16:19Z</time>
      </trkpt>
      <trkpt lat="45.62388" lon="6.89837">
        <ele>2326.72</ele>
        <time>2018-02-04T11:16:32Z</time>
      </trkpt>
      <trkpt lat="45.62389" lon="6.89836">
        <ele>2327.31</ele>
        <time>2018-02-04T11:16:48Z</time>
      </trkpt>
      <trkpt lat="45.6239" lon="6.89837">
        <ele>2327.42</ele>
        <time>2018-02-04T11:17:09Z</time>
      </trkpt>
      <trkpt lat="45.6239" lon="6.89836">
        <ele>2327.66</ele>
        <time>2018-02-04T11:17:28Z</time>
      </trkpt>
      <trkpt lat="45.62391" lon="6.89837">
        <ele>2327.71</ele>
        <time>2018-02-04T11:17:54Z</time>
      </trkpt>
      <trkpt lat="45.6239" lon="6.89836">
        <ele>2327.38</ele>
        <time>2018-02-04T11:18:16Z</time>
      </trkpt>
      <trkpt lat="45.62391" lon="6.89837">
        <ele>2327.39</ele>
        <time>2018-02-04T11:18:35Z</time>
      </trkpt>
      <trkpt lat="45.6239" lon="6.89838">
        <ele>2327.35</ele>
        <time>2018-02-04T11:18:59Z</time>
      </trkpt>
      <trkpt lat="45.62394" lon="6.89838">
        <ele>2327.49</ele>
        <time>2018-02-04T11:19:15Z</time>
      </trkpt>
      <trkpt lat="45.62398" lon="6.89836">
        <ele>2328.89</ele>
        <time>2018-02-04T11:19:27Z</time>
      </trkpt>
      <trkpt lat="45.62402" lon="6.89835">
        <ele>2329.55</ele>
        <time>2018-02-04T11:19:40Z</time>
      </trkpt>
      <trkpt lat="45.62406" lon="6.89835">
        <ele>2330.66</ele>
        <time>2018-02-04T11:19:55Z</time>
      </trkpt>
      <trkpt lat="45.62407" lon="6.89836">
        <ele>2331.82</ele>
        <time>2018-02-04T11:20:10Z</time>
      </trkpt>
      <trkpt lat="45.62406" lon="6.89836">
        <ele>2331.8</ele>
        <time>2018-02-04T11:20:30Z</time>
      </trkpt>
      <trkpt lat="45.62404" lon="6.89842">
        <ele>2332.81</ele>
        <time>2018-02-04T11:20:41Z</time>
      </trkpt>
      <trkpt lat="45.624" lon="6.89851">
        <ele>2334.78</ele>
        <time>2018-02-04T11:20:53Z</time>
      </trkpt>
      <trkpt lat="45.62397" lon="6.89856">
        <ele>2336.68</ele>
        <time>2018-02-04T11:21:08Z</time>
      </trkpt>
      <trkpt lat="45.624" lon="6.89855">
        <ele>2337.2</ele>
        <time>2018-02-04T11:21:23Z</time>
      </trkpt>
      <trkpt lat="45.62405" lon="6.89854">
        <ele>2338.28</ele>
        <time>2018-02-04T11:21:39Z</time>
      </trkpt>
      <trkpt lat="45.62408" lon="6.89852">
        <ele>2339.28</ele>
        <time>2018-02-04T11:21:53Z</time>
      </trkpt>
      <trkpt lat="45.62412" lon="6.8985">
        <ele>2340.43</ele>
        <time>2018-02-04T11:22:10Z</time>
      </trkpt>
      <trkpt lat="45.62414" lon="6.8985">
        <ele>2341.18</ele>
        <time>2018-02-04T11:22:23Z</time>
      </trkpt>
      <trkpt lat="45.62417" lon="6.89849">
        <ele>2341.65</ele>
        <time>2018-02-04T11:22:42Z</time>
      </trkpt>
      <trkpt lat="45.62419" lon="6.89846">
        <ele>2342.67</ele>
        <time>2018-02-04T11:22:56Z</time>
      </trkpt>
      <trkpt lat="45.62421" lon="6.89847">
        <ele>2343.13</ele>
        <time>2018-02-04T11:23:13Z</time>
      </trkpt>
      <trkpt lat="45.62418" lon="6.89855">
        <ele>2344.34</ele>
        <time>2018-02-04T11:23:26Z</time>
      </trkpt>
      <trkpt lat="45.62416" lon="6.89864">
        <ele>2345.96</ele>
        <time>2018-02-04T11:23:39Z</time>
      </trkpt>
      <trkpt lat="45.62414" lon="6.89873">
        <ele>2347.68</ele>
        <time>2018-02-04T11:23:53Z</time>
      </trkpt>
      <trkpt lat="45.62413" lon="6.89874">
        <ele>2348.42</ele>
        <time>2018-02-04T11:24:07Z</time>
      </trkpt>
      <trkpt lat="45.62415" lon="6.89871">
        <ele>2348.64</ele>
        <time>2018-02-04T11:24:21Z</time>
      </trkpt>
      <trkpt lat="45.62418" lon="6.89868">
        <ele>2349.52</ele>
        <time>2018-02-04T11:24:34Z</time>
      </trkpt>
      <trkpt lat="45.6242" lon="6.89865">
        <ele>2350.34</ele>
        <time>2018-02-04T11:24:49Z</time>
      </trkpt>
      <trkpt lat="45.62425" lon="6.8986">
        <ele>2351.43</ele>
        <time>2018-02-04T11:25:03Z</time>
      </trkpt>
      <trkpt lat="45.62428" lon="6.89857">
        <ele>2352.91</ele>
        <time>2018-02-04T11:25:18Z</time>
      </trkpt>
      <trkpt lat="45.62431" lon="6.89854">
        <ele>2354.08</ele>
        <time>2018-02-04T11:25:38Z</time>
      </trkpt>
      <trkpt lat="45.62435" lon="6.89851">
        <ele>2355.31</ele>
        <time>2018-02-04T11:25:57Z</time>
      </trkpt>
      <trkpt lat="45.62439" lon="6.89847">
        <ele>2356.29</ele>
        <time>2018-02-04T11:26:14Z</time>
      </trkpt>
      <trkpt lat="45.62439" lon="6.89847">
        <ele>2355.95</ele>
        <time>2018-02-04T11:26:33Z</time>
      </trkpt>
      <trkpt lat="45.62438" lon="6.89846">
        <ele>2355.7</ele>
        <time>2018-02-04T11:26:59Z</time>
      </trkpt>
      <trkpt lat="45.62437" lon="6.89844">
        <ele>2354.73</ele>
        <time>2018-02-04T11:27:21Z</time>
      </trkpt>
      <trkpt lat="45.62437" lon="6.89844">
        <ele>2355.58</ele>
        <time>2018-02-04T11:27:56Z</time>
      </trkpt>
      <trkpt lat="45.62437" lon="6.89846">
        <ele>2355.68</ele>
        <time>2018-02-04T11:28:17Z</time>
      </trkpt>
      <trkpt lat="45.62438" lon="6.89846">
        <ele>2355.5</ele>
        <time>2018-02-04T11:28:36Z</time>
      </trkpt>
      <trkpt lat="45.62439" lon="6.89846">
        <ele>2355.59</ele>
        <time>2018-02-04T11:29:04Z</time>
      </trkpt>
      <trkpt lat="45.62438" lon="6.89846">
        <ele>2356.09</ele>
        <time>2018-02-04T11:29:20Z</time>
      </trkpt>
      <trkpt lat="45.62437" lon="6.89844">
        <ele>2355.08</ele>
        <time>2018-02-04T11:29:41Z</time>
      </trkpt>
      <trkpt lat="45.62439" lon="6.89844">
        <ele>2355.81</ele>
        <time>2018-02-04T11:29:58Z</time>
      </trkpt>
      <trkpt lat="45.62442" lon="6.89843">
        <ele>2356.58</ele>
        <time>2018-02-04T11:30:17Z</time>
      </trkpt>
      <trkpt lat="45.62447" lon="6.89839">
        <ele>2358.51</ele>
        <time>2018-02-04T11:30:36Z</time>
      </trkpt>
      <trkpt lat="45.62449" lon="6.89837">
        <ele>2360.06</ele>
        <time>2018-02-04T11:30:53Z</time>
      </trkpt>
      <trkpt lat="45.6245" lon="6.89847">
        <ele>2361.23</ele>
        <time>2018-02-04T11:31:11Z</time>
      </trkpt>
      <trkpt lat="45.62449" lon="6.89857">
        <ele>2362.88</ele>
        <time>2018-02-04T11:31:25Z</time>
      </trkpt>
      <trkpt lat="45.62451" lon="6.89856">
        <ele>2363.62</ele>
        <time>2018-02-04T11:31:41Z</time>
      </trkpt>
      <trkpt lat="45.62452" lon="6.89852">
        <ele>2364.51</ele>
        <time>2018-02-04T11:32:00Z</time>
      </trkpt>
      <trkpt lat="45.62463" lon="6.89843">
        <ele>2367.22</ele>
        <time>2018-02-04T11:32:20Z</time>
      </trkpt>
      <trkpt lat="45.62465" lon="6.89849">
        <ele>2369.11</ele>
        <time>2018-02-04T11:32:33Z</time>
      </trkpt>
      <trkpt lat="45.62463" lon="6.89848">
        <ele>2370.23</ele>
        <time>2018-02-04T11:32:59Z</time>
      </trkpt>
      <trkpt lat="45.62463" lon="6.89848">
        <ele>2369.93</ele>
        <time>2018-02-04T11:33:23Z</time>
      </trkpt>
      <trkpt lat="45.62463" lon="6.89849">
        <ele>2369.88</ele>
        <time>2018-02-04T11:33:47Z</time>
      </trkpt>
      <trkpt lat="45.62462" lon="6.89845">
        <ele>2370.49</ele>
        <time>2018-02-04T11:34:09Z</time>
      </trkpt>
      <trkpt lat="45.62463" lon="6.89847">
        <ele>2369.9</ele>
        <time>2018-02-04T11:34:30Z</time>
      </trkpt>
      <trkpt lat="45.62464" lon="6.89851">
        <ele>2370.47</ele>
        <time>2018-02-04T11:34:48Z</time>
      </trkpt>
      <trkpt lat="45.62464" lon="6.89851">
        <ele>2369.97</ele>
        <time>2018-02-04T11:35:06Z</time>
      </trkpt>
      <trkpt lat="45.62465" lon="6.89851">
        <ele>2369.93</ele>
        <time>2018-02-04T11:35:33Z</time>
      </trkpt>
      <trkpt lat="45.62462" lon="6.8985">
        <ele>2369.44</ele>
        <time>2018-02-04T11:35:57Z</time>
      </trkpt>
      <trkpt lat="45.62462" lon="6.89849">
        <ele>2369.48</ele>
        <time>2018-02-04T11:36:20Z</time>
      </trkpt>
      <trkpt lat="45.62461" lon="6.89849">
        <ele>2369.53</ele>
        <time>2018-02-04T11:36:49Z</time>
      </trkpt>
      <trkpt lat="45.62463" lon="6.89847">
        <ele>2369.72</ele>
        <time>2018-02-04T11:37:11Z</time>
      </trkpt>
      <trkpt lat="45.62463" lon="6.89848">
        <ele>2369.22</ele>
        <time>2018-02-04T11:37:37Z</time>
      </trkpt>
      <trkpt lat="45.62464" lon="6.8985">
        <ele>2369.1</ele>
        <time>2018-02-04T11:38:00Z</time>
      </trkpt>
      <trkpt lat="45.62463" lon="6.89852">
        <ele>2369.27</ele>
        <time>2018-02-04T11:38:21Z</time>
      </trkpt>
      <trkpt lat="45.62462" lon="6.89852">
        <ele>2370.41</ele>
        <time>2018-02-04T11:38:39Z</time>
      </trkpt>
      <trkpt lat="45.62462" lon="6.89849">
        <ele>2370.18</ele>
        <time>2018-02-04T11:39:03Z</time>
      </trkpt>
      <trkpt lat="45.62463" lon="6.89848">
        <ele>2370.47</ele>
        <time>2018-02-04T11:39:27Z</time>
      </trkpt>
      <trkpt lat="45.62467" lon="6.89854">
        <ele>2370.67</ele>
        <time>2018-02-04T11:39:47Z</time>
      </trkpt>
      <trkpt lat="45.62475" lon="6.89871">
        <ele>2371.44</ele>
        <time>2018-02-04T11:40:03Z</time>
      </trkpt>
      <trkpt lat="45.62484" lon="6.89881">
        <ele>2372.47</ele>
        <time>2018-02-04T11:40:18Z</time>
      </trkpt>
      <trkpt lat="45.62497" lon="6.89888">
        <ele>2374.15</ele>
        <time>2018-02-04T11:40:34Z</time>
      </trkpt>
      <trkpt lat="45.62508" lon="6.89897">
        <ele>2374.45</ele>
        <time>2018-02-04T11:40:48Z</time>
      </trkpt>
      <trkpt lat="45.62521" lon="6.89909">
        <ele>2375.66</ele>
        <time>2018-02-04T11:41:09Z</time>
      </trkpt>
      <trkpt lat="45.62522" lon="6.8991">
        <ele>2375.7</ele>
        <time>2018-02-04T11:41:10Z</time>
      </trkpt>
      <trkpt lat="45.62532" lon="6.89913">
        <ele>2376.07</ele>
        <time>2018-02-04T11:41:21Z</time>
      </trkpt>
      <trkpt lat="45.62539" lon="6.89913">
        <ele>2376.57</ele>
        <time>2018-02-04T11:41:28Z</time>
      </trkpt>
      <trkpt lat="45.6255" lon="6.89908">
        <ele>2378.26</ele>
        <time>2018-02-04T11:41:43Z</time>
      </trkpt>
      <trkpt lat="45.62557" lon="6.899">
        <ele>2381.44</ele>
        <time>2018-02-04T11:42:01Z</time>
      </trkpt>
      <trkpt lat="45.62568" lon="6.89905">
        <ele>2383.87</ele>
        <time>2018-02-04T11:42:16Z</time>
      </trkpt>
      <trkpt lat="45.62571" lon="6.89907">
        <ele>2384.01</ele>
        <time>2018-02-04T11:42:20Z</time>
      </trkpt>
      <trkpt lat="45.62584" lon="6.89913">
        <ele>2383.96</ele>
        <time>2018-02-04T11:42:35Z</time>
      </trkpt>
      <trkpt lat="45.62595" lon="6.89918">
        <ele>2384.34</ele>
        <time>2018-02-04T11:42:49Z</time>
      </trkpt>
      <trkpt lat="45.62607" lon="6.8992">
        <ele>2387.09</ele>
        <time>2018-02-04T11:43:06Z</time>
      </trkpt>
      <trkpt lat="45.6262" lon="6.89922">
        <ele>2388.78</ele>
        <time>2018-02-04T11:43:22Z</time>
      </trkpt>
      <trkpt lat="45.6263" lon="6.89924">
        <ele>2390.42</ele>
        <time>2018-02-04T11:43:36Z</time>
      </trkpt>
      <trkpt lat="45.62642" lon="6.89927">
        <ele>2393.07</ele>
        <time>2018-02-04T11:43:54Z</time>
      </trkpt>
      <trkpt lat="45.62652" lon="6.8993">
        <ele>2396.15</ele>
        <time>2018-02-04T11:44:12Z</time>
      </trkpt>
      <trkpt lat="45.62659" lon="6.89938">
        <ele>2398.24</ele>
        <time>2018-02-04T11:44:29Z</time>
      </trkpt>
      <trkpt lat="45.62661" lon="6.89943">
        <ele>2398.99</ele>
        <time>2018-02-04T11:44:46Z</time>
      </trkpt>
      <trkpt lat="45.62663" lon="6.89944">
        <ele>2399.67</ele>
        <time>2018-02-04T11:45:09Z</time>
      </trkpt>
      <trkpt lat="45.62663" lon="6.89944">
        <ele>2399.92</ele>
        <time>2018-02-04T11:45:45Z</time>
      </trkpt>
      <trkpt lat="45.62664" lon="6.89945">
        <ele>2399.93</ele>
        <time>2018-02-04T11:46:07Z</time>
      </trkpt>
      <trkpt lat="45.62666" lon="6.89949">
        <ele>2400.47</ele>
        <time>2018-02-04T11:46:25Z</time>
      </trkpt>
      <trkpt lat="45.62667" lon="6.8995">
        <ele>2401</ele>
        <time>2018-02-04T11:46:45Z</time>
      </trkpt>
      <trkpt lat="45.6267" lon="6.89952">
        <ele>2400.84</ele>
        <time>2018-02-04T11:47:01Z</time>
      </trkpt>
      <trkpt lat="45.62674" lon="6.89957">
        <ele>2401.79</ele>
        <time>2018-02-04T11:47:15Z</time>
      </trkpt>
      <trkpt lat="45.62682" lon="6.89965">
        <ele>2402.95</ele>
        <time>2018-02-04T11:47:38Z</time>
      </trkpt>
      <trkpt lat="45.62686" lon="6.89971">
        <ele>2403.87</ele>
        <time>2018-02-04T11:47:53Z</time>
      </trkpt>
      <trkpt lat="45.62691" lon="6.89979">
        <ele>2404.7</ele>
        <time>2018-02-04T11:48:08Z</time>
      </trkpt>
      <trkpt lat="45.62697" lon="6.89984">
        <ele>2405.48</ele>
        <time>2018-02-04T11:48:22Z</time>
      </trkpt>
      <trkpt lat="45.62712" lon="6.89995">
        <ele>2406.78</ele>
        <time>2018-02-04T11:48:46Z</time>
      </trkpt>
      <trkpt lat="45.6272" lon="6.9">
        <ele>2406.66</ele>
        <time>2018-02-04T11:49:00Z</time>
      </trkpt>
      <trkpt lat="45.62727" lon="6.90004">
        <ele>2406.46</ele>
        <time>2018-02-04T11:49:12Z</time>
      </trkpt>
      <trkpt lat="45.62737" lon="6.90009">
        <ele>2406.6</ele>
        <time>2018-02-04T11:49:25Z</time>
      </trkpt>
      <trkpt lat="45.62749" lon="6.90018">
        <ele>2406.32</ele>
        <time>2018-02-04T11:49:44Z</time>
      </trkpt>
      <trkpt lat="45.62763" lon="6.9003">
        <ele>2406.11</ele>
        <time>2018-02-04T11:50:04Z</time>
      </trkpt>
      <trkpt lat="45.62773" lon="6.90036">
        <ele>2406.33</ele>
        <time>2018-02-04T11:50:18Z</time>
      </trkpt>
      <trkpt lat="45.62783" lon="6.9004">
        <ele>2406.6</ele>
        <time>2018-02-04T11:50:32Z</time>
      </trkpt>
      <trkpt lat="45.62795" lon="6.90045">
        <ele>2406.83</ele>
        <time>2018-02-04T11:50:46Z</time>
      </trkpt>
      <trkpt lat="45.62806" lon="6.90048">
        <ele>2406.63</ele>
        <time>2018-02-04T11:50:59Z</time>
      </trkpt>
      <trkpt lat="45.62819" lon="6.90049">
        <ele>2406.74</ele>
        <time>2018-02-04T11:51:14Z</time>
      </trkpt>
      <trkpt lat="45.62834" lon="6.90046">
        <ele>2408.01</ele>
        <time>2018-02-04T11:51:34Z</time>
      </trkpt>
      <trkpt lat="45.62844" lon="6.90043">
        <ele>2408.7</ele>
        <time>2018-02-04T11:51:46Z</time>
      </trkpt>
      <trkpt lat="45.62855" lon="6.90041">
        <ele>2409.96</ele>
        <time>2018-02-04T11:52:03Z</time>
      </trkpt>
      <trkpt lat="45.62862" lon="6.90039">
        <ele>2410.94</ele>
        <time>2018-02-04T11:52:12Z</time>
      </trkpt>
      <trkpt lat="45.62871" lon="6.9004">
        <ele>2412.51</ele>
        <time>2018-02-04T11:52:26Z</time>
      </trkpt>
      <trkpt lat="45.62882" lon="6.90043">
        <ele>2414.14</ele>
        <time>2018-02-04T11:52:42Z</time>
      </trkpt>
      <trkpt lat="45.62887" lon="6.90044">
        <ele>2415.52</ele>
        <time>2018-02-04T11:52:58Z</time>
      </trkpt>
      <trkpt lat="45.62896" lon="6.90046">
        <ele>2417.9</ele>
        <time>2018-02-04T11:53:13Z</time>
      </trkpt>
      <trkpt lat="45.62907" lon="6.90044">
        <ele>2420.49</ele>
        <time>2018-02-04T11:53:28Z</time>
      </trkpt>
      <trkpt lat="45.62916" lon="6.90043">
        <ele>2423.49</ele>
        <time>2018-02-04T11:53:42Z</time>
      </trkpt>
      <trkpt lat="45.62925" lon="6.90044">
        <ele>2425.83</ele>
        <time>2018-02-04T11:53:57Z</time>
      </trkpt>
      <trkpt lat="45.62933" lon="6.90045">
        <ele>2428.48</ele>
        <time>2018-02-04T11:54:12Z</time>
      </trkpt>
      <trkpt lat="45.62943" lon="6.90044">
        <ele>2431.61</ele>
        <time>2018-02-04T11:54:30Z</time>
      </trkpt>
      <trkpt lat="45.62951" lon="6.9004">
        <ele>2434.06</ele>
        <time>2018-02-04T11:54:46Z</time>
      </trkpt>
      <trkpt lat="45.6296" lon="6.90039">
        <ele>2436.27</ele>
        <time>2018-02-04T11:55:01Z</time>
      </trkpt>
      <trkpt lat="45.6297" lon="6.90047">
        <ele>2438.73</ele>
        <time>2018-02-04T11:55:19Z</time>
      </trkpt>
      <trkpt lat="45.62975" lon="6.9005">
        <ele>2440.43</ele>
        <time>2018-02-04T11:55:31Z</time>
      </trkpt>
      <trkpt lat="45.62981" lon="6.90055">
        <ele>2441.59</ele>
        <time>2018-02-04T11:55:53Z</time>
      </trkpt>
      <trkpt lat="45.62989" lon="6.90064">
        <ele>2443.82</ele>
        <time>2018-02-04T11:56:11Z</time>
      </trkpt>
      <trkpt lat="45.62998" lon="6.90078">
        <ele>2446.86</ele>
        <time>2018-02-04T11:56:31Z</time>
      </trkpt>
      <trkpt lat="45.63005" lon="6.90089">
        <ele>2449.49</ele>
        <time>2018-02-04T11:56:48Z</time>
      </trkpt>
      <trkpt lat="45.63017" lon="6.90098">
        <ele>2452.55</ele>
        <time>2018-02-04T11:57:08Z</time>
      </trkpt>
      <trkpt lat="45.63022" lon="6.90101">
        <ele>2454.17</ele>
        <time>2018-02-04T11:57:27Z</time>
      </trkpt>
      <trkpt lat="45.63022" lon="6.901">
        <ele>2453.98</ele>
        <time>2018-02-04T11:57:59Z</time>
      </trkpt>
      <trkpt lat="45.63024" lon="6.90099">
        <ele>2453.98</ele>
        <time>2018-02-04T11:58:40Z</time>
      </trkpt>
      <trkpt lat="45.63022" lon="6.90099">
        <ele>2453.46</ele>
        <time>2018-02-04T11:59:21Z</time>
      </trkpt>
      <trkpt lat="45.63028" lon="6.9011">
        <ele>2455.11</ele>
        <time>2018-02-04T11:59:40Z</time>
      </trkpt>
      <trkpt lat="45.63032" lon="6.90124">
        <ele>2458.17</ele>
        <time>2018-02-04T11:59:57Z</time>
      </trkpt>
      <trkpt lat="45.63035" lon="6.90138">
        <ele>2461.17</ele>
        <time>2018-02-04T12:00:15Z</time>
      </trkpt>
      <trkpt lat="45.63034" lon="6.9014">
        <ele>2462.78</ele>
        <time>2018-02-04T12:00:31Z</time>
      </trkpt>
      <trkpt lat="45.63037" lon="6.90143">
        <ele>2462.93</ele>
        <time>2018-02-04T12:00:47Z</time>
      </trkpt>
      <trkpt lat="45.6304" lon="6.90149">
        <ele>2463.06</ele>
        <time>2018-02-04T12:01:05Z</time>
      </trkpt>
      <trkpt lat="45.63051" lon="6.90156">
        <ele>2461.72</ele>
        <time>2018-02-04T12:01:21Z</time>
      </trkpt>
      <trkpt lat="45.63055" lon="6.90163">
        <ele>2461.02</ele>
        <time>2018-02-04T12:01:34Z</time>
      </trkpt>
      <trkpt lat="45.63056" lon="6.90171">
        <ele>2461.37</ele>
        <time>2018-02-04T12:01:54Z</time>
      </trkpt>
      <trkpt lat="45.6306" lon="6.90181">
        <ele>2464.44</ele>
        <time>2018-02-04T12:02:10Z</time>
      </trkpt>
      <trkpt lat="45.63067" lon="6.90191">
        <ele>2467.53</ele>
        <time>2018-02-04T12:02:29Z</time>
      </trkpt>
      <trkpt lat="45.63073" lon="6.90199">
        <ele>2470.31</ele>
        <time>2018-02-04T12:02:50Z</time>
      </trkpt>
      <trkpt lat="45.63071" lon="6.90204">
        <ele>2471.83</ele>
        <time>2018-02-04T12:03:04Z</time>
      </trkpt>
      <trkpt lat="45.63063" lon="6.90206">
        <ele>2473.76</ele>
        <time>2018-02-04T12:03:20Z</time>
      </trkpt>
      <trkpt lat="45.63053" lon="6.90209">
        <ele>2476.3</ele>
        <time>2018-02-04T12:03:41Z</time>
      </trkpt>
      <trkpt lat="45.63048" lon="6.90218">
        <ele>2478.8</ele>
        <time>2018-02-04T12:04:01Z</time>
      </trkpt>
      <trkpt lat="45.63044" lon="6.90225">
        <ele>2480.72</ele>
        <time>2018-02-04T12:04:17Z</time>
      </trkpt>
      <trkpt lat="45.63039" lon="6.90234">
        <ele>2482.93</ele>
        <time>2018-02-04T12:04:34Z</time>
      </trkpt>
      <trkpt lat="45.63037" lon="6.90241">
        <ele>2484.8</ele>
        <time>2018-02-04T12:04:51Z</time>
      </trkpt>
      <trkpt lat="45.6304" lon="6.90251">
        <ele>2487.57</ele>
        <time>2018-02-04T12:05:08Z</time>
      </trkpt>
      <trkpt lat="45.63045" lon="6.90261">
        <ele>2490.62</ele>
        <time>2018-02-04T12:05:28Z</time>
      </trkpt>
      <trkpt lat="45.63049" lon="6.90275">
        <ele>2493.86</ele>
        <time>2018-02-04T12:05:49Z</time>
      </trkpt>
      <trkpt lat="45.63049" lon="6.90288">
        <ele>2495.83</ele>
        <time>2018-02-04T12:06:07Z</time>
      </trkpt>
      <trkpt lat="45.63042" lon="6.90289">
        <ele>2498.21</ele>
        <time>2018-02-04T12:06:24Z</time>
      </trkpt>
      <trkpt lat="45.63033" lon="6.90288">
        <ele>2500.52</ele>
        <time>2018-02-04T12:06:45Z</time>
      </trkpt>
      <trkpt lat="45.63026" lon="6.90291">
        <ele>2502.84</ele>
        <time>2018-02-04T12:07:05Z</time>
      </trkpt>
      <trkpt lat="45.63029" lon="6.90301">
        <ele>2505.22</ele>
        <time>2018-02-04T12:07:23Z</time>
      </trkpt>
      <trkpt lat="45.63029" lon="6.90309">
        <ele>2507.71</ele>
        <time>2018-02-04T12:07:43Z</time>
      </trkpt>
      <trkpt lat="45.6303" lon="6.90308">
        <ele>2507.95</ele>
        <time>2018-02-04T12:08:09Z</time>
      </trkpt>
      <trkpt lat="45.6303" lon="6.90307">
        <ele>2508.14</ele>
        <time>2018-02-04T12:08:36Z</time>
      </trkpt>
      <trkpt lat="45.6303" lon="6.90305">
        <ele>2507.63</ele>
        <time>2018-02-04T12:08:58Z</time>
      </trkpt>
      <trkpt lat="45.6303" lon="6.90306">
        <ele>2507.32</ele>
        <time>2018-02-04T12:09:18Z</time>
      </trkpt>
      <trkpt lat="45.63031" lon="6.90307">
        <ele>2507.37</ele>
        <time>2018-02-04T12:09:41Z</time>
      </trkpt>
      <trkpt lat="45.63032" lon="6.90308">
        <ele>2507.18</ele>
        <time>2018-02-04T12:09:58Z</time>
      </trkpt>
      <trkpt lat="45.63032" lon="6.90305">
        <ele>2506.82</ele>
        <time>2018-02-04T12:10:42Z</time>
      </trkpt>
      <trkpt lat="45.63032" lon="6.90304">
        <ele>2506.68</ele>
        <time>2018-02-04T12:11:03Z</time>
      </trkpt>
      <trkpt lat="45.63031" lon="6.90304">
        <ele>2506.54</ele>
        <time>2018-02-04T12:11:40Z</time>
      </trkpt>
      <trkpt lat="45.63031" lon="6.90304">
        <ele>2506.42</ele>
        <time>2018-02-04T12:12:12Z</time>
      </trkpt>
      <trkpt lat="45.63032" lon="6.90304">
        <ele>2507.31</ele>
        <time>2018-02-04T12:12:38Z</time>
      </trkpt>
      <trkpt lat="45.63032" lon="6.90304">
        <ele>2507.18</ele>
        <time>2018-02-04T12:13:01Z</time>
      </trkpt>
      <trkpt lat="45.63031" lon="6.90305">
        <ele>2507.17</ele>
        <time>2018-02-04T12:13:25Z</time>
      </trkpt>
      <trkpt lat="45.63031" lon="6.90305">
        <ele>2507.57</ele>
        <time>2018-02-04T12:13:50Z</time>
      </trkpt>
      <trkpt lat="45.63031" lon="6.90305">
        <ele>2507.38</ele>
        <time>2018-02-04T12:14:15Z</time>
      </trkpt>
      <trkpt lat="45.63032" lon="6.90305">
        <ele>2507.48</ele>
        <time>2018-02-04T12:14:36Z</time>
      </trkpt>
      <trkpt lat="45.63032" lon="6.90306">
        <ele>2507.59</ele>
        <time>2018-02-04T12:14:55Z</time>
      </trkpt>
      <trkpt lat="45.63033" lon="6.90305">
        <ele>2507.11</ele>
        <time>2018-02-04T12:15:17Z</time>
      </trkpt>
      <trkpt lat="45.63033" lon="6.90305">
        <ele>2506.81</ele>
        <time>2018-02-04T12:15:36Z</time>
      </trkpt>
      <trkpt lat="45.63034" lon="6.90306">
        <ele>2507.84</ele>
        <time>2018-02-04T12:15:57Z</time>
      </trkpt>
      <trkpt lat="45.63034" lon="6.90305">
        <ele>2507.23</ele>
        <time>2018-02-04T12:16:20Z</time>
      </trkpt>
      <trkpt lat="45.63032" lon="6.90308">
        <ele>2507.85</ele>
        <time>2018-02-04T12:16:37Z</time>
      </trkpt>
      <trkpt lat="45.63033" lon="6.90307">
        <ele>2507.71</ele>
        <time>2018-02-04T12:16:47Z</time>
      </trkpt>
      <trkpt lat="45.63034" lon="6.90303">
        <ele>2507.39</ele>
        <time>2018-02-04T12:16:59Z</time>
      </trkpt>
      <trkpt lat="45.63034" lon="6.90302">
        <ele>2507.39</ele>
        <time>2018-02-04T12:17:00Z</time>
      </trkpt>
      <trkpt lat="45.63045" lon="6.90279">
        <ele>2506.54</ele>
        <time>2018-02-04T12:17:07Z</time>
      </trkpt>
      <trkpt lat="45.63053" lon="6.90258">
        <ele>2503.91</ele>
        <time>2018-02-04T12:17:11Z</time>
      </trkpt>
      <trkpt lat="45.6306" lon="6.90242">
        <ele>2500.17</ele>
        <time>2018-02-04T12:17:14Z</time>
      </trkpt>
      <trkpt lat="45.63061" lon="6.90236">
        <ele>2498.82</ele>
        <time>2018-02-04T12:17:15Z</time>
      </trkpt>
      <trkpt lat="45.63066" lon="6.9022">
        <ele>2492.45</ele>
        <time>2018-02-04T12:17:19Z</time>
      </trkpt>
      <trkpt lat="45.63072" lon="6.90217">
        <ele>2489.72</ele>
        <time>2018-02-04T12:17:21Z</time>
      </trkpt>
      <trkpt lat="45.6308" lon="6.90205">
        <ele>2483.06</ele>
        <time>2018-02-04T12:17:25Z</time>
      </trkpt>
      <trkpt lat="45.63081" lon="6.90201">
        <ele>2483.06</ele>
        <time>2018-02-04T12:17:26Z</time>
      </trkpt>
      <trkpt lat="45.63086" lon="6.90195">
        <ele>2481.65</ele>
        <time>2018-02-04T12:17:28Z</time>
      </trkpt>
      <trkpt lat="45.6309" lon="6.90189">
        <ele>2478.61</ele>
        <time>2018-02-04T12:17:30Z</time>
      </trkpt>
      <trkpt lat="45.63088" lon="6.90179">
        <ele>2475.77</ele>
        <time>2018-02-04T12:17:32Z</time>
      </trkpt>
      <trkpt lat="45.63089" lon="6.90175">
        <ele>2472.67</ele>
        <time>2018-02-04T12:17:33Z</time>
      </trkpt>
      <trkpt lat="45.63094" lon="6.9017">
        <ele>2469.62</ele>
        <time>2018-02-04T12:17:35Z</time>
      </trkpt>
      <trkpt lat="45.63095" lon="6.9016">
        <ele>2465.45</ele>
        <time>2018-02-04T12:17:38Z</time>
      </trkpt>
      <trkpt lat="45.63097" lon="6.90159">
        <ele>2464.12</ele>
        <time>2018-02-04T12:17:39Z</time>
      </trkpt>
      <trkpt lat="45.63099" lon="6.90158">
        <ele>2459.98</ele>
        <time>2018-02-04T12:17:44Z</time>
      </trkpt>
      <trkpt lat="45.63099" lon="6.90158">
        <ele>2456.82</ele>
        <time>2018-02-04T12:17:49Z</time>
      </trkpt>
      <trkpt lat="45.631" lon="6.90158">
        <ele>2456.82</ele>
        <time>2018-02-04T12:17:50Z</time>
      </trkpt>
      <trkpt lat="45.63114" lon="6.90149">
        <ele>2455.47</ele>
        <time>2018-02-04T12:17:55Z</time>
      </trkpt>
      <trkpt lat="45.63121" lon="6.90148">
        <ele>2454.94</ele>
        <time>2018-02-04T12:17:57Z</time>
      </trkpt>
      <trkpt lat="45.63135" lon="6.90151">
        <ele>2451.01</ele>
        <time>2018-02-04T12:18:01Z</time>
      </trkpt>
      <trkpt lat="45.63136" lon="6.90151">
        <ele>2447.72</ele>
        <time>2018-02-04T12:18:04Z</time>
      </trkpt>
      <trkpt lat="45.63134" lon="6.90151">
        <ele>2444.72</ele>
        <time>2018-02-04T12:18:10Z</time>
      </trkpt>
      <trkpt lat="45.63129" lon="6.90147">
        <ele>2443.4</ele>
        <time>2018-02-04T12:18:34Z</time>
      </trkpt>
      <trkpt lat="45.63136" lon="6.90127">
        <ele>2442.82</ele>
        <time>2018-02-04T12:18:40Z</time>
      </trkpt>
      <trkpt lat="45.63144" lon="6.90116">
        <ele>2439.44</ele>
        <time>2018-02-04T12:18:44Z</time>
      </trkpt>
      <trkpt lat="45.63149" lon="6.90108">
        <ele>2433.87</ele>
        <time>2018-02-04T12:18:47Z</time>
      </trkpt>
      <trkpt lat="45.63152" lon="6.901">
        <ele>2429.32</ele>
        <time>2018-02-04T12:18:50Z</time>
      </trkpt>
      <trkpt lat="45.63155" lon="6.90096">
        <ele>2426.17</ele>
        <time>2018-02-04T12:18:52Z</time>
      </trkpt>
      <trkpt lat="45.63161" lon="6.90095">
        <ele>2422.88</ele>
        <time>2018-02-04T12:18:54Z</time>
      </trkpt>
      <trkpt lat="45.63165" lon="6.90097">
        <ele>2421.17</ele>
        <time>2018-02-04T12:18:55Z</time>
      </trkpt>
      <trkpt lat="45.63177" lon="6.901">
        <ele>2415.91</ele>
        <time>2018-02-04T12:18:58Z</time>
      </trkpt>
      <trkpt lat="45.6318" lon="6.901">
        <ele>2414.26</ele>
        <time>2018-02-04T12:18:59Z</time>
      </trkpt>
      <trkpt lat="45.63208" lon="6.90086">
        <ele>2408.52</ele>
        <time>2018-02-04T12:19:03Z</time>
      </trkpt>
      <trkpt lat="45.63223" lon="6.90072">
        <ele>2404.74</ele>
        <time>2018-02-04T12:19:05Z</time>
      </trkpt>
      <trkpt lat="45.63233" lon="6.90062">
        <ele>2399.23</ele>
        <time>2018-02-04T12:19:08Z</time>
      </trkpt>
      <trkpt lat="45.63234" lon="6.90061">
        <ele>2397.14</ele>
        <time>2018-02-04T12:19:11Z</time>
      </trkpt>
      <trkpt lat="45.6324" lon="6.90059">
        <ele>2396.68</ele>
        <time>2018-02-04T12:19:23Z</time>
      </trkpt>
      <trkpt lat="45.63243" lon="6.90059">
        <ele>2396.32</ele>
        <time>2018-02-04T12:19:37Z</time>
      </trkpt>
      <trkpt lat="45.63246" lon="6.9006">
        <ele>2396.16</ele>
        <time>2018-02-04T12:20:00Z</time>
      </trkpt>
      <trkpt lat="45.63244" lon="6.90064">
        <ele>2396.41</ele>
        <time>2018-02-04T12:20:22Z</time>
      </trkpt>
      <trkpt lat="45.63241" lon="6.90065">
        <ele>2396.44</ele>
        <time>2018-02-04T12:20:47Z</time>
      </trkpt>
      <trkpt lat="45.63241" lon="6.90063">
        <ele>2396.47</ele>
        <time>2018-02-04T12:21:09Z</time>
      </trkpt>
      <trkpt lat="45.63241" lon="6.90062">
        <ele>2396.73</ele>
        <time>2018-02-04T12:21:28Z</time>
      </trkpt>
      <trkpt lat="45.63242" lon="6.9006">
        <ele>2396.67</ele>
        <time>2018-02-04T12:21:52Z</time>
      </trkpt>
      <trkpt lat="45.63245" lon="6.90061">
        <ele>2396.52</ele>
        <time>2018-02-04T12:22:16Z</time>
      </trkpt>
      <trkpt lat="45.63247" lon="6.90062">
        <ele>2396.52</ele>
        <time>2018-02-04T12:22:40Z</time>
      </trkpt>
      <trkpt lat="45.63248" lon="6.90062">
        <ele>2396.94</ele>
        <time>2018-02-04T12:23:06Z</time>
      </trkpt>
      <trkpt lat="45.63246" lon="6.90062">
        <ele>2396.99</ele>
        <time>2018-02-04T12:23:35Z</time>
      </trkpt>
      <trkpt lat="45.63245" lon="6.90061">
        <ele>2396.72</ele>
        <time>2018-02-04T12:23:57Z</time>
      </trkpt>
      <trkpt lat="45.63247" lon="6.90059">
        <ele>2396.56</ele>
        <time>2018-02-04T12:24:13Z</time>
      </trkpt>
      <trkpt lat="45.63248" lon="6.90062">
        <ele>2396.7</ele>
        <time>2018-02-04T12:24:31Z</time>
      </trkpt>
      <trkpt lat="45.63246" lon="6.90063">
        <ele>2397.12</ele>
        <time>2018-02-04T12:24:57Z</time>
      </trkpt>
      <trkpt lat="45.63246" lon="6.90063">
        <ele>2397.64</ele>
        <time>2018-02-04T12:25:13Z</time>
      </trkpt>
      <trkpt lat="45.63249" lon="6.90063">
        <ele>2397.54</ele>
        <time>2018-02-04T12:25:53Z</time>
      </trkpt>
      <trkpt lat="45.6325" lon="6.90063">
        <ele>2397.52</ele>
        <time>2018-02-04T12:25:54Z</time>
      </trkpt>
      <trkpt lat="45.63257" lon="6.90068">
        <ele>2397.15</ele>
        <time>2018-02-04T12:26:06Z</time>
      </trkpt>
      <trkpt lat="45.63268" lon="6.90082">
        <ele>2397.81</ele>
        <time>2018-02-04T12:26:23Z</time>
      </trkpt>
      <trkpt lat="45.63275" lon="6.9009">
        <ele>2397.95</ele>
        <time>2018-02-04T12:26:33Z</time>
      </trkpt>
      <trkpt lat="45.63279" lon="6.90092">
        <ele>2398.09</ele>
        <time>2018-02-04T12:26:45Z</time>
      </trkpt>
      <trkpt lat="45.63282" lon="6.90094">
        <ele>2397.73</ele>
        <time>2018-02-04T12:26:49Z</time>
      </trkpt>
      <trkpt lat="45.63299" lon="6.90095">
        <ele>2395.25</ele>
        <time>2018-02-04T12:27:02Z</time>
      </trkpt>
      <trkpt lat="45.63312" lon="6.90094">
        <ele>2392.82</ele>
        <time>2018-02-04T12:27:15Z</time>
      </trkpt>
      <trkpt lat="45.63324" lon="6.90095">
        <ele>2392.19</ele>
        <time>2018-02-04T12:27:28Z</time>
      </trkpt>
      <trkpt lat="45.63339" lon="6.90096">
        <ele>2392.04</ele>
        <time>2018-02-04T12:27:41Z</time>
      </trkpt>
      <trkpt lat="45.63353" lon="6.90096">
        <ele>2391.84</ele>
        <time>2018-02-04T12:27:55Z</time>
      </trkpt>
      <trkpt lat="45.63365" lon="6.90094">
        <ele>2391.91</ele>
        <time>2018-02-04T12:28:09Z</time>
      </trkpt>
      <trkpt lat="45.63379" lon="6.90091">
        <ele>2392.08</ele>
        <time>2018-02-04T12:28:25Z</time>
      </trkpt>
      <trkpt lat="45.63393" lon="6.9009">
        <ele>2393.38</ele>
        <time>2018-02-04T12:28:42Z</time>
      </trkpt>
      <trkpt lat="45.63406" lon="6.90094">
        <ele>2394.15</ele>
        <time>2018-02-04T12:28:58Z</time>
      </trkpt>
      <trkpt lat="45.63421" lon="6.901">
        <ele>2395.46</ele>
        <time>2018-02-04T12:29:20Z</time>
      </trkpt>
      <trkpt lat="45.63424" lon="6.90102">
        <ele>2396.4</ele>
        <time>2018-02-04T12:29:34Z</time>
      </trkpt>
      <trkpt lat="45.63428" lon="6.90103">
        <ele>2396.91</ele>
        <time>2018-02-04T12:29:47Z</time>
      </trkpt>
      <trkpt lat="45.63438" lon="6.90107">
        <ele>2398.24</ele>
        <time>2018-02-04T12:30:01Z</time>
      </trkpt>
      <trkpt lat="45.63447" lon="6.90113">
        <ele>2399.6</ele>
        <time>2018-02-04T12:30:16Z</time>
      </trkpt>
      <trkpt lat="45.63454" lon="6.90118">
        <ele>2400.28</ele>
        <time>2018-02-04T12:30:28Z</time>
      </trkpt>
      <trkpt lat="45.63468" lon="6.90125">
        <ele>2402.21</ele>
        <time>2018-02-04T12:30:47Z</time>
      </trkpt>
      <trkpt lat="45.63485" lon="6.9013">
        <ele>2404.44</ele>
        <time>2018-02-04T12:31:12Z</time>
      </trkpt>
      <trkpt lat="45.635" lon="6.90134">
        <ele>2407.33</ele>
        <time>2018-02-04T12:31:33Z</time>
      </trkpt>
      <trkpt lat="45.63509" lon="6.90138">
        <ele>2409.48</ele>
        <time>2018-02-04T12:31:49Z</time>
      </trkpt>
      <trkpt lat="45.63513" lon="6.90149">
        <ele>2411.54</ele>
        <time>2018-02-04T12:32:06Z</time>
      </trkpt>
      <trkpt lat="45.63517" lon="6.90157">
        <ele>2413.88</ele>
        <time>2018-02-04T12:32:22Z</time>
      </trkpt>
      <trkpt lat="45.63521" lon="6.90166">
        <ele>2415.45</ele>
        <time>2018-02-04T12:32:35Z</time>
      </trkpt>
      <trkpt lat="45.63527" lon="6.90178">
        <ele>2417.33</ele>
        <time>2018-02-04T12:32:52Z</time>
      </trkpt>
      <trkpt lat="45.6353" lon="6.90194">
        <ele>2419.42</ele>
        <time>2018-02-04T12:33:12Z</time>
      </trkpt>
      <trkpt lat="45.63534" lon="6.9021">
        <ele>2422.35</ele>
        <time>2018-02-04T12:33:30Z</time>
      </trkpt>
      <trkpt lat="45.63535" lon="6.90225">
        <ele>2425.4</ele>
        <time>2018-02-04T12:33:46Z</time>
      </trkpt>
      <trkpt lat="45.63534" lon="6.90229">
        <ele>2427.84</ele>
        <time>2018-02-04T12:34:01Z</time>
      </trkpt>
      <trkpt lat="45.63534" lon="6.90231">
        <ele>2428.54</ele>
        <time>2018-02-04T12:34:15Z</time>
      </trkpt>
      <trkpt lat="45.63533" lon="6.90236">
        <ele>2429.15</ele>
        <time>2018-02-04T12:34:37Z</time>
      </trkpt>
      <trkpt lat="45.63532" lon="6.90238">
        <ele>2429.84</ele>
        <time>2018-02-04T12:34:52Z</time>
      </trkpt>
      <trkpt lat="45.63532" lon="6.90237">
        <ele>2429.9</ele>
        <time>2018-02-04T12:35:18Z</time>
      </trkpt>
      <trkpt lat="45.63533" lon="6.90234">
        <ele>2430.17</ele>
        <time>2018-02-04T12:35:44Z</time>
      </trkpt>
      <trkpt lat="45.63532" lon="6.9024">
        <ele>2429.98</ele>
        <time>2018-02-04T12:36:01Z</time>
      </trkpt>
      <trkpt lat="45.63533" lon="6.90255">
        <ele>2430.55</ele>
        <time>2018-02-04T12:36:13Z</time>
      </trkpt>
      <trkpt lat="45.63535" lon="6.90259">
        <ele>2431.02</ele>
        <time>2018-02-04T12:36:32Z</time>
      </trkpt>
      <trkpt lat="45.63536" lon="6.90259">
        <ele>2431.02</ele>
        <time>2018-02-04T12:36:44Z</time>
      </trkpt>
      <trkpt lat="45.63536" lon="6.90257">
        <ele>2430.93</ele>
        <time>2018-02-04T12:37:18Z</time>
      </trkpt>
      <trkpt lat="45.63536" lon="6.90255">
        <ele>2431.05</ele>
        <time>2018-02-04T12:38:00Z</time>
      </trkpt>
      <trkpt lat="45.63536" lon="6.90257">
        <ele>2430.66</ele>
        <time>2018-02-04T12:38:19Z</time>
      </trkpt>
      <trkpt lat="45.6354" lon="6.90268">
        <ele>2431.21</ele>
        <time>2018-02-04T12:38:33Z</time>
      </trkpt>
      <trkpt lat="45.6354" lon="6.9027">
        <ele>2431.19</ele>
        <time>2018-02-04T12:38:49Z</time>
      </trkpt>
      <trkpt lat="45.63542" lon="6.90268">
        <ele>2430.6</ele>
        <time>2018-02-04T12:39:11Z</time>
      </trkpt>
      <trkpt lat="45.63542" lon="6.9027">
        <ele>2430.81</ele>
        <time>2018-02-04T12:39:26Z</time>
      </trkpt>
      <trkpt lat="45.63544" lon="6.9027">
        <ele>2430.37</ele>
        <time>2018-02-04T12:39:39Z</time>
      </trkpt>
      <trkpt lat="45.63545" lon="6.90269">
        <ele>2429.86</ele>
        <time>2018-02-04T12:39:53Z</time>
      </trkpt>
      <trkpt lat="45.63547" lon="6.9027">
        <ele>2429.68</ele>
        <time>2018-02-04T12:40:07Z</time>
      </trkpt>
      <trkpt lat="45.63543" lon="6.9027">
        <ele>2429.52</ele>
        <time>2018-02-04T12:40:41Z</time>
      </trkpt>
      <trkpt lat="45.63544" lon="6.90269">
        <ele>2429.86</ele>
        <time>2018-02-04T12:41:03Z</time>
      </trkpt>
      <trkpt lat="45.63545" lon="6.90269">
        <ele>2430.11</ele>
        <time>2018-02-04T12:41:15Z</time>
      </trkpt>
      <trkpt lat="45.63547" lon="6.90269">
        <ele>2430.22</ele>
        <time>2018-02-04T12:41:30Z</time>
      </trkpt>
      <trkpt lat="45.63546" lon="6.90269">
        <ele>2430.38</ele>
        <time>2018-02-04T12:41:47Z</time>
      </trkpt>
      <trkpt lat="45.63547" lon="6.90269">
        <ele>2430.27</ele>
        <time>2018-02-04T12:42:00Z</time>
      </trkpt>
      <trkpt lat="45.63547" lon="6.90269">
        <ele>2430.44</ele>
        <time>2018-02-04T12:42:12Z</time>
      </trkpt>
      <trkpt lat="45.63547" lon="6.9027">
        <ele>2430.28</ele>
        <time>2018-02-04T12:42:23Z</time>
      </trkpt>
      <trkpt lat="45.63547" lon="6.9027">
        <ele>2430.44</ele>
        <time>2018-02-04T12:42:37Z</time>
      </trkpt>
      <trkpt lat="45.63547" lon="6.9027">
        <ele>2430.54</ele>
        <time>2018-02-04T12:42:52Z</time>
      </trkpt>
      <trkpt lat="45.63549" lon="6.9027">
        <ele>2430.58</ele>
        <time>2018-02-04T12:43:04Z</time>
      </trkpt>
      <trkpt lat="45.63548" lon="6.9027">
        <ele>2430.57</ele>
        <time>2018-02-04T12:43:18Z</time>
      </trkpt>
      <trkpt lat="45.63545" lon="6.90268">
        <ele>2430.51</ele>
        <time>2018-02-04T12:43:33Z</time>
      </trkpt>
      <trkpt lat="45.63546" lon="6.90269">
        <ele>2430.38</ele>
        <time>2018-02-04T12:43:48Z</time>
      </trkpt>
      <trkpt lat="45.63543" lon="6.90269">
        <ele>2430.7</ele>
        <time>2018-02-04T12:44:09Z</time>
      </trkpt>
      <trkpt lat="45.63541" lon="6.90269">
        <ele>2430.33</ele>
        <time>2018-02-04T12:44:24Z</time>
      </trkpt>
      <trkpt lat="45.63543" lon="6.9027">
        <ele>2430.63</ele>
        <time>2018-02-04T12:44:45Z</time>
      </trkpt>
      <trkpt lat="45.63544" lon="6.9027">
        <ele>2430.85</ele>
        <time>2018-02-04T12:44:58Z</time>
      </trkpt>
      <trkpt lat="45.63544" lon="6.90271">
        <ele>2430.86</ele>
        <time>2018-02-04T12:45:15Z</time>
      </trkpt>
      <trkpt lat="45.63543" lon="6.90272">
        <ele>2430.81</ele>
        <time>2018-02-04T12:45:29Z</time>
      </trkpt>
      <trkpt lat="45.63543" lon="6.90271">
        <ele>2430.74</ele>
        <time>2018-02-04T12:45:43Z</time>
      </trkpt>
      <trkpt lat="45.63544" lon="6.9027">
        <ele>2430.56</ele>
        <time>2018-02-04T12:45:58Z</time>
      </trkpt>
      <trkpt lat="45.63544" lon="6.90269">
        <ele>2430.63</ele>
        <time>2018-02-04T12:46:15Z</time>
      </trkpt>
      <trkpt lat="45.63551" lon="6.90269">
        <ele>2430.46</ele>
        <time>2018-02-04T12:46:35Z</time>
      </trkpt>
      <trkpt lat="45.63548" lon="6.90269">
        <ele>2430.53</ele>
        <time>2018-02-04T12:47:02Z</time>
      </trkpt>
      <trkpt lat="45.63553" lon="6.9027">
        <ele>2430.56</ele>
        <time>2018-02-04T12:47:33Z</time>
      </trkpt>
      <trkpt lat="45.63546" lon="6.9027">
        <ele>2430.62</ele>
        <time>2018-02-04T12:47:49Z</time>
      </trkpt>
      <trkpt lat="45.63542" lon="6.90269">
        <ele>2430.52</ele>
        <time>2018-02-04T12:48:08Z</time>
      </trkpt>
      <trkpt lat="45.63543" lon="6.9027">
        <ele>2430.68</ele>
        <time>2018-02-04T12:48:30Z</time>
      </trkpt>
      <trkpt lat="45.63545" lon="6.9027">
        <ele>2430.58</ele>
        <time>2018-02-04T12:48:49Z</time>
      </trkpt>
      <trkpt lat="45.63544" lon="6.9027">
        <ele>2430.75</ele>
        <time>2018-02-04T12:49:04Z</time>
      </trkpt>
      <trkpt lat="45.63542" lon="6.9027">
        <ele>2430.77</ele>
        <time>2018-02-04T12:49:24Z</time>
      </trkpt>
      <trkpt lat="45.63543" lon="6.90271">
        <ele>2430.91</ele>
        <time>2018-02-04T12:49:42Z</time>
      </trkpt>
      <trkpt lat="45.63544" lon="6.90272">
        <ele>2430.93</ele>
        <time>2018-02-04T12:50:01Z</time>
      </trkpt>
      <trkpt lat="45.63544" lon="6.90273">
        <ele>2430.97</ele>
        <time>2018-02-04T12:50:19Z</time>
      </trkpt>
      <trkpt lat="45.63545" lon="6.90273">
        <ele>2431.07</ele>
        <time>2018-02-04T12:50:40Z</time>
      </trkpt>
      <trkpt lat="45.63544" lon="6.90272">
        <ele>2431.08</ele>
        <time>2018-02-04T12:50:59Z</time>
      </trkpt>
      <trkpt lat="45.63542" lon="6.90271">
        <ele>2431.17</ele>
        <time>2018-02-04T12:51:17Z</time>
      </trkpt>
      <trkpt lat="45.63547" lon="6.90272">
        <ele>2430.97</ele>
        <time>2018-02-04T12:51:35Z</time>
      </trkpt>
      <trkpt lat="45.63547" lon="6.90271">
        <ele>2431.45</ele>
        <time>2018-02-04T12:52:13Z</time>
      </trkpt>
      <trkpt lat="45.63549" lon="6.90271">
        <ele>2431.77</ele>
        <time>2018-02-04T12:52:37Z</time>
      </trkpt>
      <trkpt lat="45.63549" lon="6.9027">
        <ele>2431.78</ele>
        <time>2018-02-04T12:53:01Z</time>
      </trkpt>
      <trkpt lat="45.6355" lon="6.9027">
        <ele>2431.65</ele>
        <time>2018-02-04T12:53:20Z</time>
      </trkpt>
      <trkpt lat="45.63547" lon="6.9027">
        <ele>2431.67</ele>
        <time>2018-02-04T12:53:40Z</time>
      </trkpt>
      <trkpt lat="45.63547" lon="6.9027">
        <ele>2432.2</ele>
        <time>2018-02-04T12:54:12Z</time>
      </trkpt>
      <trkpt lat="45.63546" lon="6.9027">
        <ele>2432</ele>
        <time>2018-02-04T12:54:33Z</time>
      </trkpt>
      <trkpt lat="45.63546" lon="6.9027">
        <ele>2431.94</ele>
        <time>2018-02-04T12:54:51Z</time>
      </trkpt>
      <trkpt lat="45.63546" lon="6.90271">
        <ele>2431.84</ele>
        <time>2018-02-04T12:55:25Z</time>
      </trkpt>
      <trkpt lat="45.63546" lon="6.90271">
        <ele>2432.16</ele>
        <time>2018-02-04T12:56:04Z</time>
      </trkpt>
      <trkpt lat="45.63538" lon="6.9027">
        <ele>2432.31</ele>
        <time>2018-02-04T12:56:23Z</time>
      </trkpt>
      <trkpt lat="45.63535" lon="6.9027">
        <ele>2432.33</ele>
        <time>2018-02-04T12:56:50Z</time>
      </trkpt>
      <trkpt lat="45.63543" lon="6.90272">
        <ele>2432.13</ele>
        <time>2018-02-04T12:57:13Z</time>
      </trkpt>
      <trkpt lat="45.63546" lon="6.90272">
        <ele>2432.09</ele>
        <time>2018-02-04T12:57:36Z</time>
      </trkpt>
      <trkpt lat="45.63546" lon="6.90272">
        <ele>2432.39</ele>
        <time>2018-02-04T12:57:59Z</time>
      </trkpt>
      <trkpt lat="45.63548" lon="6.90273">
        <ele>2432.35</ele>
        <time>2018-02-04T12:58:23Z</time>
      </trkpt>
      <trkpt lat="45.63549" lon="6.90273">
        <ele>2432.34</ele>
        <time>2018-02-04T12:58:41Z</time>
      </trkpt>
      <trkpt lat="45.63549" lon="6.90273">
        <ele>2432.52</ele>
        <time>2018-02-04T12:59:00Z</time>
      </trkpt>
      <trkpt lat="45.63549" lon="6.90272">
        <ele>2432.75</ele>
        <time>2018-02-04T12:59:15Z</time>
      </trkpt>
      <trkpt lat="45.6355" lon="6.90271">
        <ele>2432.67</ele>
        <time>2018-02-04T12:59:44Z</time>
      </trkpt>
      <trkpt lat="45.63551" lon="6.90271">
        <ele>2432.81</ele>
        <time>2018-02-04T13:00:09Z</time>
      </trkpt>
      <trkpt lat="45.63552" lon="6.90272">
        <ele>2432.91</ele>
        <time>2018-02-04T13:00:37Z</time>
      </trkpt>
      <trkpt lat="45.63553" lon="6.90271">
        <ele>2432.87</ele>
        <time>2018-02-04T13:00:56Z</time>
      </trkpt>
      <trkpt lat="45.63552" lon="6.90271">
        <ele>2433.22</ele>
        <time>2018-02-04T13:01:21Z</time>
      </trkpt>
      <trkpt lat="45.63551" lon="6.9027">
        <ele>2433.12</ele>
        <time>2018-02-04T13:01:42Z</time>
      </trkpt>
      <trkpt lat="45.6355" lon="6.90272">
        <ele>2433.18</ele>
        <time>2018-02-04T13:02:02Z</time>
      </trkpt>
      <trkpt lat="45.63553" lon="6.90272">
        <ele>2433.27</ele>
        <time>2018-02-04T13:02:31Z</time>
      </trkpt>
      <trkpt lat="45.6355" lon="6.90272">
        <ele>2433.67</ele>
        <time>2018-02-04T13:03:01Z</time>
      </trkpt>
      <trkpt lat="45.6355" lon="6.90271">
        <ele>2433.73</ele>
        <time>2018-02-04T13:03:31Z</time>
      </trkpt>
      <trkpt lat="45.63549" lon="6.90272">
        <ele>2433.96</ele>
        <time>2018-02-04T13:04:01Z</time>
      </trkpt>
      <trkpt lat="45.63551" lon="6.9027">
        <ele>2433.95</ele>
        <time>2018-02-04T13:04:38Z</time>
      </trkpt>
      <trkpt lat="45.63551" lon="6.9027">
        <ele>2433.98</ele>
        <time>2018-02-04T13:05:04Z</time>
      </trkpt>
      <trkpt lat="45.63551" lon="6.9027">
        <ele>2434.02</ele>
        <time>2018-02-04T13:05:20Z</time>
      </trkpt>
      <trkpt lat="45.63553" lon="6.9027">
        <ele>2434.06</ele>
        <time>2018-02-04T13:05:48Z</time>
      </trkpt>
      <trkpt lat="45.63554" lon="6.9027">
        <ele>2434.64</ele>
        <time>2018-02-04T13:06:10Z</time>
      </trkpt>
      <trkpt lat="45.63548" lon="6.9027">
        <ele>2435.22</ele>
        <time>2018-02-04T13:06:29Z</time>
      </trkpt>
      <trkpt lat="45.63546" lon="6.90271">
        <ele>2435.31</ele>
        <time>2018-02-04T13:06:47Z</time>
      </trkpt>
      <trkpt lat="45.63545" lon="6.90271">
        <ele>2435.65</ele>
        <time>2018-02-04T13:07:06Z</time>
      </trkpt>
      <trkpt lat="45.63547" lon="6.90272">
        <ele>2435.46</ele>
        <time>2018-02-04T13:07:22Z</time>
      </trkpt>
      <trkpt lat="45.63546" lon="6.90272">
        <ele>2435.23</ele>
        <time>2018-02-04T13:07:42Z</time>
      </trkpt>
      <trkpt lat="45.63544" lon="6.90272">
        <ele>2435.66</ele>
        <time>2018-02-04T13:08:03Z</time>
      </trkpt>
      <trkpt lat="45.63544" lon="6.90272">
        <ele>2435.63</ele>
        <time>2018-02-04T13:08:19Z</time>
      </trkpt>
      <trkpt lat="45.63547" lon="6.90275">
        <ele>2435.49</ele>
        <time>2018-02-04T13:08:39Z</time>
      </trkpt>
      <trkpt lat="45.63544" lon="6.90272">
        <ele>2435.13</ele>
        <time>2018-02-04T13:09:02Z</time>
      </trkpt>
      <trkpt lat="45.63545" lon="6.90276">
        <ele>2436.02</ele>
        <time>2018-02-04T13:09:23Z</time>
      </trkpt>
      <trkpt lat="45.63546" lon="6.90275">
        <ele>2435.6</ele>
        <time>2018-02-04T13:09:38Z</time>
      </trkpt>
      <trkpt lat="45.63545" lon="6.90273">
        <ele>2435.52</ele>
        <time>2018-02-04T13:09:56Z</time>
      </trkpt>
      <trkpt lat="45.63547" lon="6.90275">
        <ele>2435.81</ele>
        <time>2018-02-04T13:10:10Z</time>
      </trkpt>
      <trkpt lat="45.63546" lon="6.90273">
        <ele>2436.18</ele>
        <time>2018-02-04T13:10:31Z</time>
      </trkpt>
      <trkpt lat="45.63545" lon="6.90272">
        <ele>2436.34</ele>
        <time>2018-02-04T13:10:47Z</time>
      </trkpt>
      <trkpt lat="45.63544" lon="6.90273">
        <ele>2436.29</ele>
        <time>2018-02-04T13:11:01Z</time>
      </trkpt>
      <trkpt lat="45.63543" lon="6.90273">
        <ele>2436.39</ele>
        <time>2018-02-04T13:11:19Z</time>
      </trkpt>
      <trkpt lat="45.63543" lon="6.90274">
        <ele>2436.37</ele>
        <time>2018-02-04T13:11:22Z</time>
      </trkpt>
      <trkpt lat="45.63542" lon="6.90279">
        <ele>2436.29</ele>
        <time>2018-02-04T13:11:25Z</time>
      </trkpt>
      <trkpt lat="45.63544" lon="6.9031">
        <ele>2434.1</ele>
        <time>2018-02-04T13:11:35Z</time>
      </trkpt>
      <trkpt lat="45.63544" lon="6.90318">
        <ele>2433.37</ele>
        <time>2018-02-04T13:11:37Z</time>
      </trkpt>
      <trkpt lat="45.63533" lon="6.90338">
        <ele>2429.54</ele>
        <time>2018-02-04T13:11:43Z</time>
      </trkpt>
      <trkpt lat="45.63524" lon="6.90343">
        <ele>2425.61</ele>
        <time>2018-02-04T13:11:47Z</time>
      </trkpt>
      <trkpt lat="45.63519" lon="6.9034">
        <ele>2422.21</ele>
        <time>2018-02-04T13:11:51Z</time>
      </trkpt>
      <trkpt lat="45.63517" lon="6.90338">
        <ele>2421.57</ele>
        <time>2018-02-04T13:11:52Z</time>
      </trkpt>
      <trkpt lat="45.63505" lon="6.90348">
        <ele>2418.55</ele>
        <time>2018-02-04T13:11:57Z</time>
      </trkpt>
      <trkpt lat="45.63502" lon="6.90352">
        <ele>2414.22</ele>
        <time>2018-02-04T13:12:01Z</time>
      </trkpt>
      <trkpt lat="45.63503" lon="6.90352">
        <ele>2414.22</ele>
        <time>2018-02-04T13:12:02Z</time>
      </trkpt>
      <trkpt lat="45.63504" lon="6.90351">
        <ele>2411.17</ele>
        <time>2018-02-04T13:12:07Z</time>
      </trkpt>
      <trkpt lat="45.63503" lon="6.90355">
        <ele>2410.14</ele>
        <time>2018-02-04T13:12:15Z</time>
      </trkpt>
      <trkpt lat="45.63497" lon="6.90367">
        <ele>2409.51</ele>
        <time>2018-02-04T13:12:19Z</time>
      </trkpt>
      <trkpt lat="45.6349" lon="6.9038">
        <ele>2408.3</ele>
        <time>2018-02-04T13:12:22Z</time>
      </trkpt>
      <trkpt lat="45.63482" lon="6.90396">
        <ele>2402.92</ele>
        <time>2018-02-04T13:12:25Z</time>
      </trkpt>
      <trkpt lat="45.63479" lon="6.90401">
        <ele>2402.92</ele>
        <time>2018-02-04T13:12:26Z</time>
      </trkpt>
      <trkpt lat="45.63477" lon="6.90407">
        <ele>2399.5</ele>
        <time>2018-02-04T13:12:27Z</time>
      </trkpt>
      <trkpt lat="45.63476" lon="6.90421">
        <ele>2395.93</ele>
        <time>2018-02-04T13:12:29Z</time>
      </trkpt>
      <trkpt lat="45.63475" lon="6.9043">
        <ele>2392.52</ele>
        <time>2018-02-04T13:12:31Z</time>
      </trkpt>
      <trkpt lat="45.63474" lon="6.90441">
        <ele>2388.73</ele>
        <time>2018-02-04T13:12:34Z</time>
      </trkpt>
      <trkpt lat="45.63459" lon="6.9045">
        <ele>2384.32</ele>
        <time>2018-02-04T13:12:39Z</time>
      </trkpt>
      <trkpt lat="45.63462" lon="6.90467">
        <ele>2380.74</ele>
        <time>2018-02-04T13:12:42Z</time>
      </trkpt>
      <trkpt lat="45.63465" lon="6.90486">
        <ele>2376.71</ele>
        <time>2018-02-04T13:12:45Z</time>
      </trkpt>
      <trkpt lat="45.63465" lon="6.90502">
        <ele>2373.89</ele>
        <time>2018-02-04T13:12:47Z</time>
      </trkpt>
      <trkpt lat="45.63462" lon="6.90535">
        <ele>2369.58</ele>
        <time>2018-02-04T13:12:50Z</time>
      </trkpt>
      <trkpt lat="45.63462" lon="6.90544">
        <ele>2365.76</ele>
        <time>2018-02-04T13:12:51Z</time>
      </trkpt>
      <trkpt lat="45.6346" lon="6.90558">
        <ele>2361.86</ele>
        <time>2018-02-04T13:12:53Z</time>
      </trkpt>
      <trkpt lat="45.63461" lon="6.90567">
        <ele>2357.83</ele>
        <time>2018-02-04T13:12:56Z</time>
      </trkpt>
      <trkpt lat="45.63461" lon="6.90571">
        <ele>2354.75</ele>
        <time>2018-02-04T13:13:01Z</time>
      </trkpt>
      <trkpt lat="45.63461" lon="6.90579">
        <ele>2353.8</ele>
        <time>2018-02-04T13:13:17Z</time>
      </trkpt>
      <trkpt lat="45.63461" lon="6.90577">
        <ele>2353.4</ele>
        <time>2018-02-04T13:13:39Z</time>
      </trkpt>
      <trkpt lat="45.63459" lon="6.90576">
        <ele>2353.91</ele>
        <time>2018-02-04T13:14:03Z</time>
      </trkpt>
      <trkpt lat="45.63464" lon="6.90579">
        <ele>2353.78</ele>
        <time>2018-02-04T13:14:27Z</time>
      </trkpt>
      <trkpt lat="45.6346" lon="6.90574">
        <ele>2354.35</ele>
        <time>2018-02-04T13:14:46Z</time>
      </trkpt>
      <trkpt lat="45.63457" lon="6.90574">
        <ele>2354.33</ele>
        <time>2018-02-04T13:15:08Z</time>
      </trkpt>
      <trkpt lat="45.63457" lon="6.90573">
        <ele>2354.65</ele>
        <time>2018-02-04T13:15:35Z</time>
      </trkpt>
      <trkpt lat="45.63457" lon="6.90577">
        <ele>2354.57</ele>
        <time>2018-02-04T13:15:45Z</time>
      </trkpt>
      <trkpt lat="45.63456" lon="6.90583">
        <ele>2354.51</ele>
        <time>2018-02-04T13:15:47Z</time>
      </trkpt>
      <trkpt lat="45.63459" lon="6.9062">
        <ele>2351.09</ele>
        <time>2018-02-04T13:15:54Z</time>
      </trkpt>
      <trkpt lat="45.63461" lon="6.90637">
        <ele>2347.77</ele>
        <time>2018-02-04T13:15:57Z</time>
      </trkpt>
      <trkpt lat="45.63462" lon="6.90642">
        <ele>2346.47</ele>
        <time>2018-02-04T13:15:58Z</time>
      </trkpt>
      <trkpt lat="45.63463" lon="6.9067">
        <ele>2339.97</ele>
        <time>2018-02-04T13:16:03Z</time>
      </trkpt>
      <trkpt lat="45.63465" lon="6.90679">
        <ele>2337.52</ele>
        <time>2018-02-04T13:16:05Z</time>
      </trkpt>
      <trkpt lat="45.63469" lon="6.90705">
        <ele>2330.47</ele>
        <time>2018-02-04T13:16:10Z</time>
      </trkpt>
      <trkpt lat="45.63468" lon="6.90714">
        <ele>2327.38</ele>
        <time>2018-02-04T13:16:12Z</time>
      </trkpt>
      <trkpt lat="45.63467" lon="6.90724">
        <ele>2324.36</ele>
        <time>2018-02-04T13:16:14Z</time>
      </trkpt>
      <trkpt lat="45.63463" lon="6.90736">
        <ele>2320.13</ele>
        <time>2018-02-04T13:16:17Z</time>
      </trkpt>
      <trkpt lat="45.63461" lon="6.9074">
        <ele>2317.1</ele>
        <time>2018-02-04T13:16:18Z</time>
      </trkpt>
      <trkpt lat="45.63458" lon="6.90743">
        <ele>2315.55</ele>
        <time>2018-02-04T13:16:19Z</time>
      </trkpt>
      <trkpt lat="45.63451" lon="6.90752">
        <ele>2310.82</ele>
        <time>2018-02-04T13:16:22Z</time>
      </trkpt>
      <trkpt lat="45.63444" lon="6.90762">
        <ele>2307.1</ele>
        <time>2018-02-04T13:16:25Z</time>
      </trkpt>
      <trkpt lat="45.63443" lon="6.90766">
        <ele>2306.04</ele>
        <time>2018-02-04T13:16:26Z</time>
      </trkpt>
      <trkpt lat="45.63447" lon="6.90778">
        <ele>2301.64</ele>
        <time>2018-02-04T13:16:30Z</time>
      </trkpt>
      <trkpt lat="45.63452" lon="6.90789">
        <ele>2298.3</ele>
        <time>2018-02-04T13:16:33Z</time>
      </trkpt>
      <trkpt lat="45.63456" lon="6.90801">
        <ele>2294.3</ele>
        <time>2018-02-04T13:16:36Z</time>
      </trkpt>
      <trkpt lat="45.63449" lon="6.90808">
        <ele>2290.19</ele>
        <time>2018-02-04T13:16:39Z</time>
      </trkpt>
      <trkpt lat="45.63446" lon="6.9081">
        <ele>2288.85</ele>
        <time>2018-02-04T13:16:40Z</time>
      </trkpt>
      <trkpt lat="45.63435" lon="6.90821">
        <ele>2283.57</ele>
        <time>2018-02-04T13:16:43Z</time>
      </trkpt>
      <trkpt lat="45.6343" lon="6.90826">
        <ele>2279.8</ele>
        <time>2018-02-04T13:16:46Z</time>
      </trkpt>
      <trkpt lat="45.63428" lon="6.90828">
        <ele>2276.39</ele>
        <time>2018-02-04T13:16:50Z</time>
      </trkpt>
      <trkpt lat="45.63428" lon="6.90829">
        <ele>2273.58</ele>
        <time>2018-02-04T13:17:03Z</time>
      </trkpt>
      <trkpt lat="45.63421" lon="6.90852">
        <ele>2273.12</ele>
        <time>2018-02-04T13:17:07Z</time>
      </trkpt>
      <trkpt lat="45.63413" lon="6.9087">
        <ele>2269.58</ele>
        <time>2018-02-04T13:17:11Z</time>
      </trkpt>
      <trkpt lat="45.63411" lon="6.90873">
        <ele>2266.01</ele>
        <time>2018-02-04T13:17:13Z</time>
      </trkpt>
      <trkpt lat="45.63411" lon="6.90873">
        <ele>2262.32</ele>
        <time>2018-02-04T13:17:17Z</time>
      </trkpt>
      <trkpt lat="45.63413" lon="6.90874">
        <ele>2260</ele>
        <time>2018-02-04T13:17:35Z</time>
      </trkpt>
      <trkpt lat="45.63418" lon="6.90902">
        <ele>2258.05</ele>
        <time>2018-02-04T13:17:41Z</time>
      </trkpt>
      <trkpt lat="45.63423" lon="6.90915">
        <ele>2254.8</ele>
        <time>2018-02-04T13:17:44Z</time>
      </trkpt>
      <trkpt lat="45.63424" lon="6.90928">
        <ele>2250.66</ele>
        <time>2018-02-04T13:17:47Z</time>
      </trkpt>
      <trkpt lat="45.63423" lon="6.90936">
        <ele>2247.76</ele>
        <time>2018-02-04T13:17:49Z</time>
      </trkpt>
      <trkpt lat="45.63422" lon="6.90957">
        <ele>2240.98</ele>
        <time>2018-02-04T13:17:54Z</time>
      </trkpt>
      <trkpt lat="45.63426" lon="6.90968">
        <ele>2237.6</ele>
        <time>2018-02-04T13:17:57Z</time>
      </trkpt>
      <trkpt lat="45.63425" lon="6.90983">
        <ele>2233.8</ele>
        <time>2018-02-04T13:18:00Z</time>
      </trkpt>
      <trkpt lat="45.63427" lon="6.90993">
        <ele>2230.08</ele>
        <time>2018-02-04T13:18:02Z</time>
      </trkpt>
      <trkpt lat="45.63429" lon="6.9101">
        <ele>2225.51</ele>
        <time>2018-02-04T13:18:05Z</time>
      </trkpt>
      <trkpt lat="45.6343" lon="6.91021">
        <ele>2221.66</ele>
        <time>2018-02-04T13:18:07Z</time>
      </trkpt>
      <trkpt lat="45.63429" lon="6.91033">
        <ele>2217.52</ele>
        <time>2018-02-04T13:18:09Z</time>
      </trkpt>
      <trkpt lat="45.63421" lon="6.9104">
        <ele>2213.11</ele>
        <time>2018-02-04T13:18:11Z</time>
      </trkpt>
      <trkpt lat="45.63414" lon="6.9105">
        <ele>2208.31</ele>
        <time>2018-02-04T13:18:13Z</time>
      </trkpt>
      <trkpt lat="45.63407" lon="6.91064">
        <ele>2202.46</ele>
        <time>2018-02-04T13:18:16Z</time>
      </trkpt>
      <trkpt lat="45.63403" lon="6.91065">
        <ele>2197.77</ele>
        <time>2018-02-04T13:18:20Z</time>
      </trkpt>
      <trkpt lat="45.63401" lon="6.91066">
        <ele>2194.86</ele>
        <time>2018-02-04T13:18:42Z</time>
      </trkpt>
      <trkpt lat="45.63401" lon="6.91068">
        <ele>2194.74</ele>
        <time>2018-02-04T13:19:02Z</time>
      </trkpt>
      <trkpt lat="45.63393" lon="6.91085">
        <ele>2194.42</ele>
        <time>2018-02-04T13:19:06Z</time>
      </trkpt>
      <trkpt lat="45.63376" lon="6.91111">
        <ele>2189.46</ele>
        <time>2018-02-04T13:19:12Z</time>
      </trkpt>
      <trkpt lat="45.63366" lon="6.91127">
        <ele>2185.89</ele>
        <time>2018-02-04T13:19:15Z</time>
      </trkpt>
      <trkpt lat="45.63363" lon="6.91149">
        <ele>2179.54</ele>
        <time>2018-02-04T13:19:19Z</time>
      </trkpt>
      <trkpt lat="45.63364" lon="6.91154">
        <ele>2179.54</ele>
        <time>2018-02-04T13:19:20Z</time>
      </trkpt>
      <trkpt lat="45.63364" lon="6.91159">
        <ele>2176.84</ele>
        <time>2018-02-04T13:19:21Z</time>
      </trkpt>
      <trkpt lat="45.63359" lon="6.91185">
        <ele>2170.93</ele>
        <time>2018-02-04T13:19:25Z</time>
      </trkpt>
      <trkpt lat="45.63355" lon="6.91198">
        <ele>2167.84</ele>
        <time>2018-02-04T13:19:27Z</time>
      </trkpt>
      <trkpt lat="45.63355" lon="6.91203">
        <ele>2163.58</ele>
        <time>2018-02-04T13:19:30Z</time>
      </trkpt>
      <trkpt lat="45.6335" lon="6.91217">
        <ele>2160.08</ele>
        <time>2018-02-04T13:19:34Z</time>
      </trkpt>
      <trkpt lat="45.63343" lon="6.91229">
        <ele>2156.87</ele>
        <time>2018-02-04T13:19:38Z</time>
      </trkpt>
      <trkpt lat="45.6334" lon="6.91232">
        <ele>2153.67</ele>
        <time>2018-02-04T13:19:43Z</time>
      </trkpt>
      <trkpt lat="45.6334" lon="6.91231">
        <ele>2152.17</ele>
        <time>2018-02-04T13:20:00Z</time>
      </trkpt>
      <trkpt lat="45.63331" lon="6.91246">
        <ele>2152.09</ele>
        <time>2018-02-04T13:20:04Z</time>
      </trkpt>
      <trkpt lat="45.63314" lon="6.91264">
        <ele>2147.47</ele>
        <time>2018-02-04T13:20:10Z</time>
      </trkpt>
      <trkpt lat="45.63312" lon="6.91269">
        <ele>2143.86</ele>
        <time>2018-02-04T13:20:12Z</time>
      </trkpt>
      <trkpt lat="45.63303" lon="6.9129">
        <ele>2138.71</ele>
        <time>2018-02-04T13:20:18Z</time>
      </trkpt>
      <trkpt lat="45.63301" lon="6.9129">
        <ele>2135.19</ele>
        <time>2018-02-04T13:20:22Z</time>
      </trkpt>
      <trkpt lat="45.63301" lon="6.91288">
        <ele>2132.1</ele>
        <time>2018-02-04T13:20:32Z</time>
      </trkpt>
      <trkpt lat="45.63301" lon="6.91288">
        <ele>2132.24</ele>
        <time>2018-02-04T13:20:46Z</time>
      </trkpt>
      <trkpt lat="45.63296" lon="6.91308">
        <ele>2131.71</ele>
        <time>2018-02-04T13:20:52Z</time>
      </trkpt>
      <trkpt lat="45.63295" lon="6.91311">
        <ele>2131.29</ele>
        <time>2018-02-04T13:20:53Z</time>
      </trkpt>
      <trkpt lat="45.63291" lon="6.91316">
        <ele>2130.38</ele>
        <time>2018-02-04T13:20:55Z</time>
      </trkpt>
      <trkpt lat="45.63283" lon="6.91332">
        <ele>2128.27</ele>
        <time>2018-02-04T13:20:58Z</time>
      </trkpt>
      <trkpt lat="45.63268" lon="6.91352">
        <ele>2123.44</ele>
        <time>2018-02-04T13:21:02Z</time>
      </trkpt>
      <trkpt lat="45.63254" lon="6.91368">
        <ele>2120.41</ele>
        <time>2018-02-04T13:21:05Z</time>
      </trkpt>
      <trkpt lat="45.63243" lon="6.91393">
        <ele>2115.79</ele>
        <time>2018-02-04T13:21:09Z</time>
      </trkpt>
      <trkpt lat="45.63235" lon="6.91407">
        <ele>2111.88</ele>
        <time>2018-02-04T13:21:12Z</time>
      </trkpt>
      <trkpt lat="45.63233" lon="6.91422">
        <ele>2108.8</ele>
        <time>2018-02-04T13:21:15Z</time>
      </trkpt>
      <trkpt lat="45.6323" lon="6.91438">
        <ele>2105.5</ele>
        <time>2018-02-04T13:21:19Z</time>
      </trkpt>
      <trkpt lat="45.6323" lon="6.91441">
        <ele>2102.35</ele>
        <time>2018-02-04T13:21:22Z</time>
      </trkpt>
      <trkpt lat="45.63229" lon="6.91441">
        <ele>2098.43</ele>
        <time>2018-02-04T13:21:25Z</time>
      </trkpt>
      <trkpt lat="45.63228" lon="6.9144">
        <ele>2095.42</ele>
        <time>2018-02-04T13:21:41Z</time>
      </trkpt>
      <trkpt lat="45.63224" lon="6.91441">
        <ele>2095.68</ele>
        <time>2018-02-04T13:22:07Z</time>
      </trkpt>
      <trkpt lat="45.63226" lon="6.91462">
        <ele>2094.1</ele>
        <time>2018-02-04T13:22:13Z</time>
      </trkpt>
      <trkpt lat="45.63227" lon="6.91471">
        <ele>2092.37</ele>
        <time>2018-02-04T13:22:15Z</time>
      </trkpt>
      <trkpt lat="45.63222" lon="6.91492">
        <ele>2086.97</ele>
        <time>2018-02-04T13:22:19Z</time>
      </trkpt>
      <trkpt lat="45.63216" lon="6.91497">
        <ele>2083.34</ele>
        <time>2018-02-04T13:22:21Z</time>
      </trkpt>
      <trkpt lat="45.63214" lon="6.91498">
        <ele>2077.55</ele>
        <time>2018-02-04T13:22:25Z</time>
      </trkpt>
      <trkpt lat="45.63214" lon="6.91498">
        <ele>2074.25</ele>
        <time>2018-02-04T13:22:31Z</time>
      </trkpt>
      <trkpt lat="45.63213" lon="6.91499">
        <ele>2073.28</ele>
        <time>2018-02-04T13:22:53Z</time>
      </trkpt>
      <trkpt lat="45.63212" lon="6.915">
        <ele>2073.61</ele>
        <time>2018-02-04T13:23:22Z</time>
      </trkpt>
      <trkpt lat="45.63213" lon="6.91499">
        <ele>2073.56</ele>
        <time>2018-02-04T13:23:55Z</time>
      </trkpt>
      <trkpt lat="45.63213" lon="6.915">
        <ele>2073.95</ele>
        <time>2018-02-04T13:24:05Z</time>
      </trkpt>
      <trkpt lat="45.63224" lon="6.91509">
        <ele>2072.14</ele>
        <time>2018-02-04T13:24:12Z</time>
      </trkpt>
      <trkpt lat="45.63227" lon="6.91521">
        <ele>2068.83</ele>
        <time>2018-02-04T13:24:17Z</time>
      </trkpt>
      <trkpt lat="45.63228" lon="6.91526">
        <ele>2065.76</ele>
        <time>2018-02-04T13:24:19Z</time>
      </trkpt>
      <trkpt lat="45.63227" lon="6.91529">
        <ele>2062.24</ele>
        <time>2018-02-04T13:24:22Z</time>
      </trkpt>
      <trkpt lat="45.63227" lon="6.91529">
        <ele>2058.81</ele>
        <time>2018-02-04T13:24:26Z</time>
      </trkpt>
      <trkpt lat="45.63227" lon="6.91526">
        <ele>2056.96</ele>
        <time>2018-02-04T13:25:03Z</time>
      </trkpt>
      <trkpt lat="45.63227" lon="6.91527">
        <ele>2056.82</ele>
        <time>2018-02-04T13:25:20Z</time>
      </trkpt>
      <trkpt lat="45.63225" lon="6.91527">
        <ele>2077.81</ele>
        <time>2018-02-04T13:26:46Z</time>
      </trkpt>
      <trkpt lat="45.63224" lon="6.91528">
        <ele>2076.17</ele>
        <time>2018-02-04T13:27:00Z</time>
      </trkpt>
      <trkpt lat="45.63226" lon="6.9153">
        <ele>2074.83</ele>
        <time>2018-02-04T13:27:11Z</time>
      </trkpt>
      <trkpt lat="45.63227" lon="6.91529">
        <ele>2072.85</ele>
        <time>2018-02-04T13:27:16Z</time>
      </trkpt>
      <trkpt lat="45.63227" lon="6.9153">
        <ele>2074.82</ele>
        <time>2018-02-04T13:27:27Z</time>
      </trkpt>
      <trkpt lat="45.63227" lon="6.9153">
        <ele>2074.69</ele>
        <time>2018-02-04T13:27:39Z</time>
      </trkpt>
      <trkpt lat="45.63231" lon="6.91546">
        <ele>2073.41</ele>
        <time>2018-02-04T13:27:45Z</time>
      </trkpt>
      <trkpt lat="45.63228" lon="6.9155">
        <ele>2072.72</ele>
        <time>2018-02-04T13:27:46Z</time>
      </trkpt>
      <trkpt lat="45.63221" lon="6.91571">
        <ele>2067.98</ele>
        <time>2018-02-04T13:27:50Z</time>
      </trkpt>
      <trkpt lat="45.63222" lon="6.91574">
        <ele>2064.88</ele>
        <time>2018-02-04T13:27:51Z</time>
      </trkpt>
      <trkpt lat="45.63222" lon="6.91578">
        <ele>2063.1</ele>
        <time>2018-02-04T13:27:52Z</time>
      </trkpt>
      <trkpt lat="45.63228" lon="6.91588">
        <ele>2055.07</ele>
        <time>2018-02-04T13:27:56Z</time>
      </trkpt>
      <trkpt lat="45.63235" lon="6.91591">
        <ele>2050.5</ele>
        <time>2018-02-04T13:27:58Z</time>
      </trkpt>
      <trkpt lat="45.63233" lon="6.91598">
        <ele>2046.24</ele>
        <time>2018-02-04T13:28:00Z</time>
      </trkpt>
      <trkpt lat="45.63233" lon="6.91605">
        <ele>2042.63</ele>
        <time>2018-02-04T13:28:02Z</time>
      </trkpt>
      <trkpt lat="45.63235" lon="6.91611">
        <ele>2038.88</ele>
        <time>2018-02-04T13:28:04Z</time>
      </trkpt>
      <trkpt lat="45.63235" lon="6.91615">
        <ele>2034.86</ele>
        <time>2018-02-04T13:28:06Z</time>
      </trkpt>
      <trkpt lat="45.63235" lon="6.91617">
        <ele>2031.13</ele>
        <time>2018-02-04T13:28:08Z</time>
      </trkpt>
      <trkpt lat="45.63236" lon="6.91617">
        <ele>2027.68</ele>
        <time>2018-02-04T13:28:10Z</time>
      </trkpt>
      <trkpt lat="45.63238" lon="6.91616">
        <ele>2022.89</ele>
        <time>2018-02-04T13:28:13Z</time>
      </trkpt>
      <trkpt lat="45.63239" lon="6.91616">
        <ele>2022.89</ele>
        <time>2018-02-04T13:28:14Z</time>
      </trkpt>
      <trkpt lat="45.63239" lon="6.91616">
        <ele>2019.76</ele>
        <time>2018-02-04T13:28:21Z</time>
      </trkpt>
      <trkpt lat="45.63239" lon="6.91618">
        <ele>2019.1</ele>
        <time>2018-02-04T13:28:28Z</time>
      </trkpt>
      <trkpt lat="45.63245" lon="6.91631">
        <ele>2016.74</ele>
        <time>2018-02-04T13:28:35Z</time>
      </trkpt>
      <trkpt lat="45.63244" lon="6.91641">
        <ele>2013.06</ele>
        <time>2018-02-04T13:28:39Z</time>
      </trkpt>
      <trkpt lat="45.63249" lon="6.91646">
        <ele>2008.93</ele>
        <time>2018-02-04T13:28:42Z</time>
      </trkpt>
      <trkpt lat="45.63245" lon="6.91651">
        <ele>2005.38</ele>
        <time>2018-02-04T13:28:44Z</time>
      </trkpt>
      <trkpt lat="45.63235" lon="6.91659">
        <ele>2001.73</ele>
        <time>2018-02-04T13:28:47Z</time>
      </trkpt>
      <trkpt lat="45.63227" lon="6.91671">
        <ele>1997.95</ele>
        <time>2018-02-04T13:28:50Z</time>
      </trkpt>
      <trkpt lat="45.63218" lon="6.91677">
        <ele>1993.93</ele>
        <time>2018-02-04T13:28:53Z</time>
      </trkpt>
      <trkpt lat="45.63217" lon="6.91678">
        <ele>1989.71</ele>
        <time>2018-02-04T13:28:56Z</time>
      </trkpt>
      <trkpt lat="45.63218" lon="6.91676">
        <ele>1986.44</ele>
        <time>2018-02-04T13:29:00Z</time>
      </trkpt>
      <trkpt lat="45.63219" lon="6.91673">
        <ele>1984.34</ele>
        <time>2018-02-04T13:29:18Z</time>
      </trkpt>
      <trkpt lat="45.63222" lon="6.91676">
        <ele>1984.87</ele>
        <time>2018-02-04T13:29:36Z</time>
      </trkpt>
      <trkpt lat="45.63217" lon="6.91681">
        <ele>1984.77</ele>
        <time>2018-02-04T13:29:39Z</time>
      </trkpt>
      <trkpt lat="45.63184" lon="6.91706">
        <ele>1980.84</ele>
        <time>2018-02-04T13:29:46Z</time>
      </trkpt>
      <trkpt lat="45.63171" lon="6.91714">
        <ele>1977.48</ele>
        <time>2018-02-04T13:29:49Z</time>
      </trkpt>
      <trkpt lat="45.63156" lon="6.91725">
        <ele>1974</ele>
        <time>2018-02-04T13:29:53Z</time>
      </trkpt>
      <trkpt lat="45.6314" lon="6.91735">
        <ele>1969.79</ele>
        <time>2018-02-04T13:29:57Z</time>
      </trkpt>
      <trkpt lat="45.63135" lon="6.91736">
        <ele>1968.92</ele>
        <time>2018-02-04T13:29:58Z</time>
      </trkpt>
      <trkpt lat="45.63107" lon="6.91742">
        <ele>1964.37</ele>
        <time>2018-02-04T13:30:03Z</time>
      </trkpt>
      <trkpt lat="45.6309" lon="6.91749">
        <ele>1960.8</ele>
        <time>2018-02-04T13:30:06Z</time>
      </trkpt>
      <trkpt lat="45.63074" lon="6.91756">
        <ele>1957.18</ele>
        <time>2018-02-04T13:30:10Z</time>
      </trkpt>
      <trkpt lat="45.6306" lon="6.91761">
        <ele>1954.13</ele>
        <time>2018-02-04T13:30:15Z</time>
      </trkpt>
      <trkpt lat="45.63055" lon="6.9176">
        <ele>1953.17</ele>
        <time>2018-02-04T13:30:17Z</time>
      </trkpt>
      <trkpt lat="45.63029" lon="6.91763">
        <ele>1949.65</ele>
        <time>2018-02-04T13:30:22Z</time>
      </trkpt>
      <trkpt lat="45.63023" lon="6.91764">
        <ele>1948.62</ele>
        <time>2018-02-04T13:30:23Z</time>
      </trkpt>
      <trkpt lat="45.63008" lon="6.91767">
        <ele>1944.38</ele>
        <time>2018-02-04T13:30:27Z</time>
      </trkpt>
      <trkpt lat="45.62987" lon="6.91771">
        <ele>1941.14</ele>
        <time>2018-02-04T13:30:33Z</time>
      </trkpt>
      <trkpt lat="45.62962" lon="6.91778">
        <ele>1937.6</ele>
        <time>2018-02-04T13:30:37Z</time>
      </trkpt>
      <trkpt lat="45.62938" lon="6.9179">
        <ele>1933.51</ele>
        <time>2018-02-04T13:30:40Z</time>
      </trkpt>
      <trkpt lat="45.6293" lon="6.91793">
        <ele>1931.95</ele>
        <time>2018-02-04T13:30:41Z</time>
      </trkpt>
      <trkpt lat="45.62911" lon="6.91805">
        <ele>1927.02</ele>
        <time>2018-02-04T13:30:44Z</time>
      </trkpt>
      <trkpt lat="45.62907" lon="6.91808">
        <ele>1925.53</ele>
        <time>2018-02-04T13:30:45Z</time>
      </trkpt>
      <trkpt lat="45.6289" lon="6.91815">
        <ele>1920.45</ele>
        <time>2018-02-04T13:30:49Z</time>
      </trkpt>
      <trkpt lat="45.6287" lon="6.91825">
        <ele>1917.18</ele>
        <time>2018-02-04T13:30:54Z</time>
      </trkpt>
      <trkpt lat="45.62845" lon="6.91833">
        <ele>1913.97</ele>
        <time>2018-02-04T13:31:00Z</time>
      </trkpt>
      <trkpt lat="45.62816" lon="6.91841">
        <ele>1910.44</ele>
        <time>2018-02-04T13:31:06Z</time>
      </trkpt>
      <trkpt lat="45.6279" lon="6.91848">
        <ele>1907.3</ele>
        <time>2018-02-04T13:31:11Z</time>
      </trkpt>
      <trkpt lat="45.62779" lon="6.91852">
        <ele>1905.28</ele>
        <time>2018-02-04T13:31:13Z</time>
      </trkpt>
      <trkpt lat="45.62768" lon="6.91854">
        <ele>1903.96</ele>
        <time>2018-02-04T13:31:15Z</time>
      </trkpt>
      <trkpt lat="45.62739" lon="6.91862">
        <ele>1900.89</ele>
        <time>2018-02-04T13:31:19Z</time>
      </trkpt>
      <trkpt lat="45.62721" lon="6.91871">
        <ele>1897.66</ele>
        <time>2018-02-04T13:31:22Z</time>
      </trkpt>
      <trkpt lat="45.62698" lon="6.91882">
        <ele>1894.17</ele>
        <time>2018-02-04T13:31:26Z</time>
      </trkpt>
      <trkpt lat="45.62671" lon="6.91891">
        <ele>1890.93</ele>
        <time>2018-02-04T13:31:31Z</time>
      </trkpt>
      <trkpt lat="45.62666" lon="6.91893">
        <ele>1890.4</ele>
        <time>2018-02-04T13:31:32Z</time>
      </trkpt>
      <trkpt lat="45.62662" lon="6.91894">
        <ele>1889.82</ele>
        <time>2018-02-04T13:31:33Z</time>
      </trkpt>
      <trkpt lat="45.62657" lon="6.91896">
        <ele>1889.25</ele>
        <time>2018-02-04T13:31:34Z</time>
      </trkpt>
      <trkpt lat="45.62653" lon="6.91898">
        <ele>1888.75</ele>
        <time>2018-02-04T13:31:35Z</time>
      </trkpt>
      <trkpt lat="45.62648" lon="6.91899">
        <ele>1888.28</ele>
        <time>2018-02-04T13:31:36Z</time>
      </trkpt>
      <trkpt lat="45.62645" lon="6.91899">
        <ele>1887.82</ele>
        <time>2018-02-04T13:31:37Z</time>
      </trkpt>
      <trkpt lat="45.62642" lon="6.91899">
        <ele>1887.43</ele>
        <time>2018-02-04T13:31:38Z</time>
      </trkpt>
      <trkpt lat="45.62639" lon="6.91899">
        <ele>1887.06</ele>
        <time>2018-02-04T13:31:39Z</time>
      </trkpt>
      <trkpt lat="45.62636" lon="6.919">
        <ele>1886.74</ele>
        <time>2018-02-04T13:31:40Z</time>
      </trkpt>
      <trkpt lat="45.62634" lon="6.919">
        <ele>1886.48</ele>
        <time>2018-02-04T13:31:41Z</time>
      </trkpt>
      <trkpt lat="45.62622" lon="6.91908">
        <ele>1885.78</ele>
        <time>2018-02-04T13:31:44Z</time>
      </trkpt>
      <trkpt lat="45.62591" lon="6.91909">
        <ele>1883.13</ele>
        <time>2018-02-04T13:31:50Z</time>
      </trkpt>
      <trkpt lat="45.62578" lon="6.91908">
        <ele>1881.49</ele>
        <time>2018-02-04T13:31:52Z</time>
      </trkpt>
      <trkpt lat="45.62545" lon="6.91911">
        <ele>1877.69</ele>
        <time>2018-02-04T13:31:58Z</time>
      </trkpt>
      <trkpt lat="45.62535" lon="6.91912">
        <ele>1876.91</ele>
        <time>2018-02-04T13:32:00Z</time>
      </trkpt>
      <trkpt lat="45.62504" lon="6.91913">
        <ele>1874.26</ele>
        <time>2018-02-04T13:32:06Z</time>
      </trkpt>
      <trkpt lat="45.62464" lon="6.91922">
        <ele>1870.8</ele>
        <time>2018-02-04T13:32:14Z</time>
      </trkpt>
      <trkpt lat="45.62446" lon="6.91927">
        <ele>1868.81</ele>
        <time>2018-02-04T13:32:18Z</time>
      </trkpt>
      <trkpt lat="45.62422" lon="6.91932">
        <ele>1866.15</ele>
        <time>2018-02-04T13:32:26Z</time>
      </trkpt>
      <trkpt lat="45.62386" lon="6.91923">
        <ele>1863.23</ele>
        <time>2018-02-04T13:32:37Z</time>
      </trkpt>
      <trkpt lat="45.62358" lon="6.91919">
        <ele>1861.36</ele>
        <time>2018-02-04T13:32:46Z</time>
      </trkpt>
      <trkpt lat="45.62331" lon="6.91913">
        <ele>1858.23</ele>
        <time>2018-02-04T13:32:52Z</time>
      </trkpt>
      <trkpt lat="45.62322" lon="6.91909">
        <ele>1855.87</ele>
        <time>2018-02-04T13:32:59Z</time>
      </trkpt>
      <trkpt lat="45.62323" lon="6.91908">
        <ele>1855.07</ele>
        <time>2018-02-04T13:33:19Z</time>
      </trkpt>
      <trkpt lat="45.62323" lon="6.91906">
        <ele>1854.84</ele>
        <time>2018-02-04T13:33:35Z</time>
      </trkpt>
      <trkpt lat="45.62324" lon="6.9191">
        <ele>1855.16</ele>
        <time>2018-02-04T13:34:03Z</time>
      </trkpt>
      <trkpt lat="45.62322" lon="6.91908">
        <ele>1854.94</ele>
        <time>2018-02-04T13:34:10Z</time>
      </trkpt>
      <trkpt lat="45.62304" lon="6.91909">
        <ele>1854.13</ele>
        <time>2018-02-04T13:34:18Z</time>
      </trkpt>
      <trkpt lat="45.62303" lon="6.91909">
        <ele>1852.55</ele>
        <time>2018-02-04T13:34:26Z</time>
      </trkpt>
      <trkpt lat="45.62303" lon="6.91906">
        <ele>1851.67</ele>
        <time>2018-02-04T13:34:49Z</time>
      </trkpt>
      <trkpt lat="45.62304" lon="6.91906">
        <ele>1851.66</ele>
        <time>2018-02-04T13:34:51Z</time>
      </trkpt>
      <trkpt lat="45.62301" lon="6.91906">
        <ele>1852.06</ele>
        <time>2018-02-04T13:34:56Z</time>
      </trkpt>
      <trkpt lat="45.62294" lon="6.91903">
        <ele>1851.86</ele>
        <time>2018-02-04T13:34:59Z</time>
      </trkpt>
      <trkpt lat="45.6226" lon="6.9189">
        <ele>1848.67</ele>
        <time>2018-02-04T13:35:07Z</time>
      </trkpt>
      <trkpt lat="45.62237" lon="6.91879">
        <ele>1845.27</ele>
        <time>2018-02-04T13:35:15Z</time>
      </trkpt>
      <trkpt lat="45.62213" lon="6.91858">
        <ele>1842.86</ele>
        <time>2018-02-04T13:35:21Z</time>
      </trkpt>
      <trkpt lat="45.62199" lon="6.9184">
        <ele>1838.67</ele>
        <time>2018-02-04T13:35:25Z</time>
      </trkpt>
      <trkpt lat="45.62192" lon="6.91836">
        <ele>1837.13</ele>
        <time>2018-02-04T13:35:27Z</time>
      </trkpt>
      <trkpt lat="45.62184" lon="6.91831">
        <ele>1835.78</ele>
        <time>2018-02-04T13:35:29Z</time>
      </trkpt>
      <trkpt lat="45.62162" lon="6.91813">
        <ele>1831.96</ele>
        <time>2018-02-04T13:35:34Z</time>
      </trkpt>
      <trkpt lat="45.62159" lon="6.91819">
        <ele>1829.34</ele>
        <time>2018-02-04T13:35:38Z</time>
      </trkpt>
      <trkpt lat="45.62145" lon="6.91819">
        <ele>1826.75</ele>
        <time>2018-02-04T13:35:42Z</time>
      </trkpt>
      <trkpt lat="45.62126" lon="6.91814">
        <ele>1822.21</ele>
        <time>2018-02-04T13:35:48Z</time>
      </trkpt>
      <trkpt lat="45.62118" lon="6.91811">
        <ele>1819.06</ele>
        <time>2018-02-04T13:35:52Z</time>
      </trkpt>
      <trkpt lat="45.62114" lon="6.91809">
        <ele>1818.52</ele>
        <time>2018-02-04T13:35:53Z</time>
      </trkpt>
      <trkpt lat="45.62092" lon="6.91799">
        <ele>1814.43</ele>
        <time>2018-02-04T13:35:59Z</time>
      </trkpt>
      <trkpt lat="45.6209" lon="6.91798">
        <ele>1811.26</ele>
        <time>2018-02-04T13:36:05Z</time>
      </trkpt>
      <trkpt lat="45.62087" lon="6.918">
        <ele>1809.22</ele>
        <time>2018-02-04T13:36:27Z</time>
      </trkpt>
      <trkpt lat="45.62087" lon="6.91795">
        <ele>1809.34</ele>
        <time>2018-02-04T13:36:53Z</time>
      </trkpt>
      <trkpt lat="45.62085" lon="6.91793">
        <ele>1809.37</ele>
        <time>2018-02-04T13:36:55Z</time>
      </trkpt>
      <trkpt lat="45.62064" lon="6.91779">
        <ele>1807.59</ele>
        <time>2018-02-04T13:37:02Z</time>
      </trkpt>
      <trkpt lat="45.62045" lon="6.91768">
        <ele>1804.18</ele>
        <time>2018-02-04T13:37:06Z</time>
      </trkpt>
      <trkpt lat="45.62028" lon="6.91761">
        <ele>1801.2</ele>
        <time>2018-02-04T13:37:09Z</time>
      </trkpt>
      <trkpt lat="45.6201" lon="6.91749">
        <ele>1797.11</ele>
        <time>2018-02-04T13:37:13Z</time>
      </trkpt>
      <trkpt lat="45.61998" lon="6.91738">
        <ele>1794.43</ele>
        <time>2018-02-04T13:37:16Z</time>
      </trkpt>
      <trkpt lat="45.61987" lon="6.91725">
        <ele>1791.75</ele>
        <time>2018-02-04T13:37:19Z</time>
      </trkpt>
      <trkpt lat="45.61975" lon="6.91713">
        <ele>1789.2</ele>
        <time>2018-02-04T13:37:22Z</time>
      </trkpt>
      <trkpt lat="45.61959" lon="6.91696">
        <ele>1785.22</ele>
        <time>2018-02-04T13:37:27Z</time>
      </trkpt>
      <trkpt lat="45.61945" lon="6.91697">
        <ele>1781.52</ele>
        <time>2018-02-04T13:37:32Z</time>
      </trkpt>
      <trkpt lat="45.61912" lon="6.91698">
        <ele>1778.06</ele>
        <time>2018-02-04T13:37:38Z</time>
      </trkpt>
      <trkpt lat="45.61888" lon="6.917">
        <ele>1774.68</ele>
        <time>2018-02-04T13:37:42Z</time>
      </trkpt>
      <trkpt lat="45.61882" lon="6.917">
        <ele>1773.87</ele>
        <time>2018-02-04T13:37:43Z</time>
      </trkpt>
      <trkpt lat="45.61855" lon="6.91706">
        <ele>1769.94</ele>
        <time>2018-02-04T13:37:49Z</time>
      </trkpt>
      <trkpt lat="45.61843" lon="6.91708">
        <ele>1768.11</ele>
        <time>2018-02-04T13:37:52Z</time>
      </trkpt>
      <trkpt lat="45.61821" lon="6.91712">
        <ele>1765.04</ele>
        <time>2018-02-04T13:37:59Z</time>
      </trkpt>
      <trkpt lat="45.61788" lon="6.9171">
        <ele>1762.23</ele>
        <time>2018-02-04T13:38:07Z</time>
      </trkpt>
      <trkpt lat="45.61773" lon="6.91708">
        <ele>1760.84</ele>
        <time>2018-02-04T13:38:10Z</time>
      </trkpt>
      <trkpt lat="45.61746" lon="6.91698">
        <ele>1757.04</ele>
        <time>2018-02-04T13:38:17Z</time>
      </trkpt>
      <trkpt lat="45.61743" lon="6.91697">
        <ele>1756.63</ele>
        <time>2018-02-04T13:38:18Z</time>
      </trkpt>
      <trkpt lat="45.61719" lon="6.91682">
        <ele>1753.97</ele>
        <time>2018-02-04T13:38:24Z</time>
      </trkpt>
      <trkpt lat="45.6171" lon="6.91677">
        <ele>1753.04</ele>
        <time>2018-02-04T13:38:26Z</time>
      </trkpt>
      <trkpt lat="45.61689" lon="6.91662">
        <ele>1750.22</ele>
        <time>2018-02-04T13:38:31Z</time>
      </trkpt>
      <trkpt lat="45.61686" lon="6.91657">
        <ele>1747.2</ele>
        <time>2018-02-04T13:38:39Z</time>
      </trkpt>
      <trkpt lat="45.61684" lon="6.91654">
        <ele>1746.82</ele>
        <time>2018-02-04T13:38:58Z</time>
      </trkpt>
      <trkpt lat="45.61662" lon="6.91647">
        <ele>1746.34</ele>
        <time>2018-02-04T13:39:04Z</time>
      </trkpt>
      <trkpt lat="45.61656" lon="6.91655">
        <ele>1745.2</ele>
        <time>2018-02-04T13:39:06Z</time>
      </trkpt>
      <trkpt lat="45.61639" lon="6.91663">
        <ele>1740.46</ele>
        <time>2018-02-04T13:39:11Z</time>
      </trkpt>
      <trkpt lat="45.61614" lon="6.91641">
        <ele>1735.06</ele>
        <time>2018-02-04T13:39:16Z</time>
      </trkpt>
      <trkpt lat="45.61602" lon="6.91618">
        <ele>1730.73</ele>
        <time>2018-02-04T13:39:20Z</time>
      </trkpt>
      <trkpt lat="45.6159" lon="6.91612">
        <ele>1727.22</ele>
        <time>2018-02-04T13:39:25Z</time>
      </trkpt>
      <trkpt lat="45.61586" lon="6.91616">
        <ele>1724.34</ele>
        <time>2018-02-04T13:39:30Z</time>
      </trkpt>
      <trkpt lat="45.61585" lon="6.91616">
        <ele>1721.61</ele>
        <time>2018-02-04T13:39:43Z</time>
      </trkpt>
      <trkpt lat="45.61583" lon="6.91614">
        <ele>1721.13</ele>
        <time>2018-02-04T13:39:51Z</time>
      </trkpt>
      <trkpt lat="45.61546" lon="6.9161">
        <ele>1718.12</ele>
        <time>2018-02-04T13:39:57Z</time>
      </trkpt>
      <trkpt lat="45.6154" lon="6.91609">
        <ele>1718.12</ele>
        <time>2018-02-04T13:39:58Z</time>
      </trkpt>
      <trkpt lat="45.61533" lon="6.91609">
        <ele>1717.05</ele>
        <time>2018-02-04T13:39:59Z</time>
      </trkpt>
      <trkpt lat="45.61506" lon="6.91612">
        <ele>1712.06</ele>
        <time>2018-02-04T13:40:03Z</time>
      </trkpt>
      <trkpt lat="45.61483" lon="6.91613">
        <ele>1708.45</ele>
        <time>2018-02-04T13:40:07Z</time>
      </trkpt>
      <trkpt lat="45.61465" lon="6.91616">
        <ele>1706.05</ele>
        <time>2018-02-04T13:40:10Z</time>
      </trkpt>
      <trkpt lat="45.6146" lon="6.91615">
        <ele>1705.4</ele>
        <time>2018-02-04T13:40:11Z</time>
      </trkpt>
      <trkpt lat="45.61454" lon="6.91614">
        <ele>1704.82</ele>
        <time>2018-02-04T13:40:12Z</time>
      </trkpt>
      <trkpt lat="45.6145" lon="6.91612">
        <ele>1704.23</ele>
        <time>2018-02-04T13:40:13Z</time>
      </trkpt>
      <trkpt lat="45.61444" lon="6.91612">
        <ele>1701.89</ele>
        <time>2018-02-04T13:40:18Z</time>
      </trkpt>
      <trkpt lat="45.61442" lon="6.9161">
        <ele>1701.58</ele>
        <time>2018-02-04T13:40:19Z</time>
      </trkpt>
      <trkpt lat="45.61439" lon="6.91609">
        <ele>1701.26</ele>
        <time>2018-02-04T13:40:20Z</time>
      </trkpt>
      <trkpt lat="45.61436" lon="6.91608">
        <ele>1700.95</ele>
        <time>2018-02-04T13:40:21Z</time>
      </trkpt>
      <trkpt lat="45.61434" lon="6.91607">
        <ele>1700.58</ele>
        <time>2018-02-04T13:40:22Z</time>
      </trkpt>
      <trkpt lat="45.61434" lon="6.91606">
        <ele>1699.14</ele>
        <time>2018-02-04T13:40:33Z</time>
      </trkpt>
      <trkpt lat="45.61433" lon="6.91607">
        <ele>1698.8</ele>
        <time>2018-02-04T13:40:59Z</time>
      </trkpt>
      <trkpt lat="45.61433" lon="6.91606">
        <ele>1698.94</ele>
        <time>2018-02-04T13:41:20Z</time>
      </trkpt>
      <trkpt lat="45.61431" lon="6.916">
        <ele>1698.65</ele>
        <time>2018-02-04T13:41:27Z</time>
      </trkpt>
      <trkpt lat="45.61427" lon="6.91597">
        <ele>1698.56</ele>
        <time>2018-02-04T13:41:28Z</time>
      </trkpt>
      <trkpt lat="45.61423" lon="6.91597">
        <ele>1698.42</ele>
        <time>2018-02-04T13:41:29Z</time>
      </trkpt>
      <trkpt lat="45.61419" lon="6.91596">
        <ele>1698.04</ele>
        <time>2018-02-04T13:41:30Z</time>
      </trkpt>
      <trkpt lat="45.61413" lon="6.91596">
        <ele>1697.43</ele>
        <time>2018-02-04T13:41:31Z</time>
      </trkpt>
      <trkpt lat="45.61408" lon="6.91599">
        <ele>1696.73</ele>
        <time>2018-02-04T13:41:32Z</time>
      </trkpt>
      <trkpt lat="45.61402" lon="6.91602">
        <ele>1695.92</ele>
        <time>2018-02-04T13:41:33Z</time>
      </trkpt>
      <trkpt lat="45.61399" lon="6.91605">
        <ele>1694.95</ele>
        <time>2018-02-04T13:41:34Z</time>
      </trkpt>
      <trkpt lat="45.61397" lon="6.91606">
        <ele>1693.9</ele>
        <time>2018-02-04T13:41:35Z</time>
      </trkpt>
      <trkpt lat="45.61395" lon="6.91605">
        <ele>1692.83</ele>
        <time>2018-02-04T13:41:36Z</time>
      </trkpt>
      <trkpt lat="45.61393" lon="6.91602">
        <ele>1690.92</ele>
        <time>2018-02-04T13:41:37Z</time>
      </trkpt>
      <trkpt lat="45.61393" lon="6.91598">
        <ele>1690.92</ele>
        <time>2018-02-04T13:41:38Z</time>
      </trkpt>
      <trkpt lat="45.61392" lon="6.91594">
        <ele>1689.34</ele>
        <time>2018-02-04T13:41:39Z</time>
      </trkpt>
      <trkpt lat="45.61389" lon="6.91591">
        <ele>1688.48</ele>
        <time>2018-02-04T13:41:40Z</time>
      </trkpt>
      <trkpt lat="45.61387" lon="6.91586">
        <ele>1687.58</ele>
        <time>2018-02-04T13:41:41Z</time>
      </trkpt>
      <trkpt lat="45.61385" lon="6.91578">
        <ele>1686.73</ele>
        <time>2018-02-04T13:41:42Z</time>
      </trkpt>
      <trkpt lat="45.6138" lon="6.91561">
        <ele>1684.91</ele>
        <time>2018-02-04T13:41:44Z</time>
      </trkpt>
      <trkpt lat="45.61376" lon="6.91553">
        <ele>1683.66</ele>
        <time>2018-02-04T13:41:45Z</time>
      </trkpt>
      <trkpt lat="45.61372" lon="6.91549">
        <ele>1682.37</ele>
        <time>2018-02-04T13:41:46Z</time>
      </trkpt>
      <trkpt lat="45.61368" lon="6.91548">
        <ele>1681.27</ele>
        <time>2018-02-04T13:41:47Z</time>
      </trkpt>
      <trkpt lat="45.61363" lon="6.91549">
        <ele>1680.31</ele>
        <time>2018-02-04T13:41:48Z</time>
      </trkpt>
      <trkpt lat="45.61357" lon="6.91553">
        <ele>1679.36</ele>
        <time>2018-02-04T13:41:49Z</time>
      </trkpt>
      <trkpt lat="45.61344" lon="6.91553">
        <ele>1675.81</ele>
        <time>2018-02-04T13:41:52Z</time>
      </trkpt>
      <trkpt lat="45.61333" lon="6.91555">
        <ele>1672.22</ele>
        <time>2018-02-04T13:41:55Z</time>
      </trkpt>
      <trkpt lat="45.61321" lon="6.91558">
        <ele>1667.73</ele>
        <time>2018-02-04T13:42:00Z</time>
      </trkpt>
      <trkpt lat="45.6132" lon="6.91558">
        <ele>1666.69</ele>
        <time>2018-02-04T13:42:02Z</time>
      </trkpt>
      <trkpt lat="45.61322" lon="6.91558">
        <ele>1664.81</ele>
        <time>2018-02-04T13:42:23Z</time>
      </trkpt>
      <trkpt lat="45.61303" lon="6.91549">
        <ele>1664.37</ele>
        <time>2018-02-04T13:42:29Z</time>
      </trkpt>
      <trkpt lat="45.61305" lon="6.91529">
        <ele>1661.63</ele>
        <time>2018-02-04T13:42:33Z</time>
      </trkpt>
      <trkpt lat="45.61307" lon="6.91526">
        <ele>1658.4</ele>
        <time>2018-02-04T13:42:38Z</time>
      </trkpt>
      <trkpt lat="45.61306" lon="6.91525">
        <ele>1657.28</ele>
        <time>2018-02-04T13:42:43Z</time>
      </trkpt>
      <trkpt lat="45.61298" lon="6.91515">
        <ele>1656.9</ele>
        <time>2018-02-04T13:42:47Z</time>
      </trkpt>
      <trkpt lat="45.61285" lon="6.91504">
        <ele>1653.97</ele>
        <time>2018-02-04T13:42:53Z</time>
      </trkpt>
      <trkpt lat="45.61285" lon="6.91505">
        <ele>1650.72</ele>
        <time>2018-02-04T13:42:57Z</time>
      </trkpt>
      <trkpt lat="45.61287" lon="6.91501">
        <ele>1648.14</ele>
        <time>2018-02-04T13:43:14Z</time>
      </trkpt>
      <trkpt lat="45.61284" lon="6.91502">
        <ele>1648.16</ele>
        <time>2018-02-04T13:43:33Z</time>
      </trkpt>
      <trkpt lat="45.61268" lon="6.91489">
        <ele>1648</ele>
        <time>2018-02-04T13:43:38Z</time>
      </trkpt>
      <trkpt lat="45.61249" lon="6.91479">
        <ele>1644.95</ele>
        <time>2018-02-04T13:43:43Z</time>
      </trkpt>
      <trkpt lat="45.61238" lon="6.91472">
        <ele>1641.67</ele>
        <time>2018-02-04T13:43:48Z</time>
      </trkpt>
      <trkpt lat="45.61236" lon="6.91473">
        <ele>1638.75</ele>
        <time>2018-02-04T13:43:56Z</time>
      </trkpt>
      <trkpt lat="45.61219" lon="6.91484">
        <ele>1637.55</ele>
        <time>2018-02-04T13:44:02Z</time>
      </trkpt>
      <trkpt lat="45.61202" lon="6.91484">
        <ele>1636.04</ele>
        <time>2018-02-04T13:44:05Z</time>
      </trkpt>
      <trkpt lat="45.61185" lon="6.9148">
        <ele>1633.71</ele>
        <time>2018-02-04T13:44:08Z</time>
      </trkpt>
      <trkpt lat="45.6118" lon="6.91479">
        <ele>1631.87</ele>
        <time>2018-02-04T13:44:09Z</time>
      </trkpt>
      <trkpt lat="45.6116" lon="6.91464">
        <ele>1627.83</ele>
        <time>2018-02-04T13:44:13Z</time>
      </trkpt>
      <trkpt lat="45.61154" lon="6.91461">
        <ele>1626.68</ele>
        <time>2018-02-04T13:44:14Z</time>
      </trkpt>
      <trkpt lat="45.61141" lon="6.91458">
        <ele>1623.13</ele>
        <time>2018-02-04T13:44:17Z</time>
      </trkpt>
      <trkpt lat="45.61133" lon="6.91454">
        <ele>1621.13</ele>
        <time>2018-02-04T13:44:19Z</time>
      </trkpt>
      <trkpt lat="45.61115" lon="6.91449">
        <ele>1617.06</ele>
        <time>2018-02-04T13:44:23Z</time>
      </trkpt>
      <trkpt lat="45.61113" lon="6.91454">
        <ele>1615.97</ele>
        <time>2018-02-04T13:44:24Z</time>
      </trkpt>
      <trkpt lat="45.61108" lon="6.91468">
        <ele>1612.95</ele>
        <time>2018-02-04T13:44:27Z</time>
      </trkpt>
      <trkpt lat="45.611" lon="6.91488">
        <ele>1609.59</ele>
        <time>2018-02-04T13:44:33Z</time>
      </trkpt>
      <trkpt lat="45.61097" lon="6.91487">
        <ele>1608.43</ele>
        <time>2018-02-04T13:44:37Z</time>
      </trkpt>
      <trkpt lat="45.61093" lon="6.91484">
        <ele>1608.21</ele>
        <time>2018-02-04T13:44:38Z</time>
      </trkpt>
      <trkpt lat="45.61087" lon="6.91477">
        <ele>1607.82</ele>
        <time>2018-02-04T13:44:39Z</time>
      </trkpt>
      <trkpt lat="45.61082" lon="6.91469">
        <ele>1607.11</ele>
        <time>2018-02-04T13:44:40Z</time>
      </trkpt>
      <trkpt lat="45.61078" lon="6.91461">
        <ele>1606</ele>
        <time>2018-02-04T13:44:41Z</time>
      </trkpt>
      <trkpt lat="45.61074" lon="6.91455">
        <ele>1604.66</ele>
        <time>2018-02-04T13:44:42Z</time>
      </trkpt>
      <trkpt lat="45.61071" lon="6.91449">
        <ele>1603.31</ele>
        <time>2018-02-04T13:44:43Z</time>
      </trkpt>
      <trkpt lat="45.61068" lon="6.91443">
        <ele>1602.11</ele>
        <time>2018-02-04T13:44:44Z</time>
      </trkpt>
      <trkpt lat="45.61066" lon="6.91438">
        <ele>1601.1</ele>
        <time>2018-02-04T13:44:45Z</time>
      </trkpt>
      <trkpt lat="45.61056" lon="6.9142">
        <ele>1597.78</ele>
        <time>2018-02-04T13:44:49Z</time>
      </trkpt>
      <trkpt lat="45.61044" lon="6.91391">
        <ele>1594.29</ele>
        <time>2018-02-04T13:44:55Z</time>
      </trkpt>
      <trkpt lat="45.61042" lon="6.9138">
        <ele>1593.15</ele>
        <time>2018-02-04T13:44:57Z</time>
      </trkpt>
      <trkpt lat="45.61039" lon="6.91374">
        <ele>1592.69</ele>
        <time>2018-02-04T13:44:58Z</time>
      </trkpt>
      <trkpt lat="45.61037" lon="6.9137">
        <ele>1592.22</ele>
        <time>2018-02-04T13:44:59Z</time>
      </trkpt>
      <trkpt lat="45.61035" lon="6.91365">
        <ele>1591.73</ele>
        <time>2018-02-04T13:45:00Z</time>
      </trkpt>
      <trkpt lat="45.61032" lon="6.9136">
        <ele>1590.65</ele>
        <time>2018-02-04T13:45:01Z</time>
      </trkpt>
      <trkpt lat="45.6103" lon="6.91353">
        <ele>1590.09</ele>
        <time>2018-02-04T13:45:02Z</time>
      </trkpt>
      <trkpt lat="45.61029" lon="6.91346">
        <ele>1589.49</ele>
        <time>2018-02-04T13:45:03Z</time>
      </trkpt>
      <trkpt lat="45.61029" lon="6.91338">
        <ele>1588.79</ele>
        <time>2018-02-04T13:45:04Z</time>
      </trkpt>
      <trkpt lat="45.61027" lon="6.9133">
        <ele>1588.07</ele>
        <time>2018-02-04T13:45:05Z</time>
      </trkpt>
      <trkpt lat="45.61025" lon="6.91324">
        <ele>1587.32</ele>
        <time>2018-02-04T13:45:06Z</time>
      </trkpt>
      <trkpt lat="45.61023" lon="6.91318">
        <ele>1586.56</ele>
        <time>2018-02-04T13:45:07Z</time>
      </trkpt>
      <trkpt lat="45.6102" lon="6.91314">
        <ele>1585.86</ele>
        <time>2018-02-04T13:45:08Z</time>
      </trkpt>
      <trkpt lat="45.61017" lon="6.91309">
        <ele>1585.26</ele>
        <time>2018-02-04T13:45:09Z</time>
      </trkpt>
      <trkpt lat="45.61011" lon="6.91298">
        <ele>1584.15</ele>
        <time>2018-02-04T13:45:11Z</time>
      </trkpt>
      <trkpt lat="45.61003" lon="6.91283">
        <ele>1582.11</ele>
        <time>2018-02-04T13:45:14Z</time>
      </trkpt>
      <trkpt lat="45.60999" lon="6.91279">
        <ele>1581.4</ele>
        <time>2018-02-04T13:45:15Z</time>
      </trkpt>
      <trkpt lat="45.60989" lon="6.9127">
        <ele>1580.08</ele>
        <time>2018-02-04T13:45:17Z</time>
      </trkpt>
      <trkpt lat="45.60986" lon="6.91266">
        <ele>1579.28</ele>
        <time>2018-02-04T13:45:18Z</time>
      </trkpt>
      <trkpt lat="45.60985" lon="6.9126">
        <ele>1576.06</ele>
        <time>2018-02-04T13:45:23Z</time>
      </trkpt>
      <trkpt lat="45.60984" lon="6.91257">
        <ele>1574.29</ele>
        <time>2018-02-04T13:45:41Z</time>
      </trkpt>
      <trkpt lat="45.60982" lon="6.91257">
        <ele>1574.24</ele>
        <time>2018-02-04T13:45:42Z</time>
      </trkpt>
      <trkpt lat="45.6098" lon="6.91255">
        <ele>1574.18</ele>
        <time>2018-02-04T13:45:43Z</time>
      </trkpt>
      <trkpt lat="45.60978" lon="6.91254">
        <ele>1572.73</ele>
        <time>2018-02-04T13:45:52Z</time>
      </trkpt>
      <trkpt lat="45.60976" lon="6.91256">
        <ele>1571.93</ele>
        <time>2018-02-04T13:45:57Z</time>
      </trkpt>
      <trkpt lat="45.60976" lon="6.91258">
        <ele>1571.85</ele>
        <time>2018-02-04T13:45:58Z</time>
      </trkpt>
      <trkpt lat="45.6097" lon="6.91261">
        <ele>1571.31</ele>
        <time>2018-02-04T13:46:01Z</time>
      </trkpt>
      <trkpt lat="45.60968" lon="6.91264">
        <ele>1570.84</ele>
        <time>2018-02-04T13:46:02Z</time>
      </trkpt>
      <trkpt lat="45.60962" lon="6.91275">
        <ele>1567.38</ele>
        <time>2018-02-04T13:46:06Z</time>
      </trkpt>
      <trkpt lat="45.60961" lon="6.91279">
        <ele>1566.21</ele>
        <time>2018-02-04T13:46:07Z</time>
      </trkpt>
      <trkpt lat="45.60956" lon="6.91283">
        <ele>1562.17</ele>
        <time>2018-02-04T13:46:10Z</time>
      </trkpt>
      <trkpt lat="45.60955" lon="6.91298">
        <ele>1557.84</ele>
        <time>2018-02-04T13:46:13Z</time>
      </trkpt>
      <trkpt lat="45.60956" lon="6.91304">
        <ele>1554.5</ele>
        <time>2018-02-04T13:46:15Z</time>
      </trkpt>
      <trkpt lat="45.60956" lon="6.91304">
        <ele>1550.84</ele>
        <time>2018-02-04T13:46:18Z</time>
      </trkpt>
      <trkpt lat="45.60957" lon="6.91303">
        <ele>1549.34</ele>
        <time>2018-02-04T13:46:20Z</time>
      </trkpt>
      <trkpt lat="45.60957" lon="6.91301">
        <ele>1547.74</ele>
        <time>2018-02-04T13:46:23Z</time>
      </trkpt>
      <trkpt lat="45.60963" lon="6.91304">
        <ele>1547.01</ele>
        <time>2018-02-04T13:46:42Z</time>
      </trkpt>
      <trkpt lat="45.60964" lon="6.91311">
        <ele>1546.89</ele>
        <time>2018-02-04T13:46:52Z</time>
      </trkpt>
      <trkpt lat="45.60964" lon="6.91316">
        <ele>1546.75</ele>
        <time>2018-02-04T13:46:54Z</time>
      </trkpt>
      <trkpt lat="45.60965" lon="6.91324">
        <ele>1546.4</ele>
        <time>2018-02-04T13:46:56Z</time>
      </trkpt>
      <trkpt lat="45.60966" lon="6.9133">
        <ele>1546.21</ele>
        <time>2018-02-04T13:46:57Z</time>
      </trkpt>
      <trkpt lat="45.60967" lon="6.91335">
        <ele>1546.03</ele>
        <time>2018-02-04T13:46:58Z</time>
      </trkpt>
      <trkpt lat="45.60969" lon="6.91339">
        <ele>1545.82</ele>
        <time>2018-02-04T13:46:59Z</time>
      </trkpt>
      <trkpt lat="45.60971" lon="6.91343">
        <ele>1545.44</ele>
        <time>2018-02-04T13:47:00Z</time>
      </trkpt>
      <trkpt lat="45.60972" lon="6.91347">
        <ele>1544.91</ele>
        <time>2018-02-04T13:47:01Z</time>
      </trkpt>
      <trkpt lat="45.60974" lon="6.91352">
        <ele>1544.37</ele>
        <time>2018-02-04T13:47:02Z</time>
      </trkpt>
      <trkpt lat="45.60975" lon="6.91355">
        <ele>1543.89</ele>
        <time>2018-02-04T13:47:03Z</time>
      </trkpt>
      <trkpt lat="45.60976" lon="6.91358">
        <ele>1543.43</ele>
        <time>2018-02-04T13:47:04Z</time>
      </trkpt>
      <trkpt lat="45.60977" lon="6.91374">
        <ele>1542.04</ele>
        <time>2018-02-04T13:47:07Z</time>
      </trkpt>
      <trkpt lat="45.60977" lon="6.9138">
        <ele>1541.49</ele>
        <time>2018-02-04T13:47:08Z</time>
      </trkpt>
      <trkpt lat="45.60975" lon="6.91387">
        <ele>1540.8</ele>
        <time>2018-02-04T13:47:09Z</time>
      </trkpt>
      <trkpt lat="45.60974" lon="6.91393">
        <ele>1539.96</ele>
        <time>2018-02-04T13:47:10Z</time>
      </trkpt>
      <trkpt lat="45.60973" lon="6.91399">
        <ele>1539</ele>
        <time>2018-02-04T13:47:11Z</time>
      </trkpt>
      <trkpt lat="45.60972" lon="6.91404">
        <ele>1537.28</ele>
        <time>2018-02-04T13:47:12Z</time>
      </trkpt>
      <trkpt lat="45.60968" lon="6.91419">
        <ele>1535.36</ele>
        <time>2018-02-04T13:47:16Z</time>
      </trkpt>
      <trkpt lat="45.60968" lon="6.91429">
        <ele>1534.18</ele>
        <time>2018-02-04T13:47:26Z</time>
      </trkpt>
      <trkpt lat="45.60967" lon="6.91431">
        <ele>1534.13</ele>
        <time>2018-02-04T13:47:27Z</time>
      </trkpt>
      <trkpt lat="45.60964" lon="6.91434">
        <ele>1534.18</ele>
        <time>2018-02-04T13:47:38Z</time>
      </trkpt>
      <trkpt lat="45.60963" lon="6.91437">
        <ele>1533.97</ele>
        <time>2018-02-04T13:48:01Z</time>
      </trkpt>
      <trkpt lat="45.60964" lon="6.91438">
        <ele>1534.03</ele>
        <time>2018-02-04T13:48:22Z</time>
      </trkpt>
      <trkpt lat="45.60963" lon="6.9144">
        <ele>1533.93</ele>
        <time>2018-02-04T13:48:36Z</time>
      </trkpt>
      <trkpt lat="45.60963" lon="6.9144">
        <ele>1534.06</ele>
        <time>2018-02-04T13:48:56Z</time>
      </trkpt>
      <trkpt lat="45.60957" lon="6.91447">
        <ele>1533.57</ele>
        <time>2018-02-04T13:49:09Z</time>
      </trkpt>
      <trkpt lat="45.60955" lon="6.91449">
        <ele>1533.45</ele>
        <time>2018-02-04T13:49:10Z</time>
      </trkpt>
      <trkpt lat="45.60953" lon="6.91451">
        <ele>1533.32</ele>
        <time>2018-02-04T13:49:11Z</time>
      </trkpt>
      <trkpt lat="45.60951" lon="6.91454">
        <ele>1533.17</ele>
        <time>2018-02-04T13:49:12Z</time>
      </trkpt>
      <trkpt lat="45.60949" lon="6.91457">
        <ele>1532.96</ele>
        <time>2018-02-04T13:49:13Z</time>
      </trkpt>
      <trkpt lat="45.6094" lon="6.91466">
        <ele>1532.32</ele>
        <time>2018-02-04T13:49:16Z</time>
      </trkpt>
      <trkpt lat="45.60935" lon="6.91467">
        <ele>1531.9</ele>
        <time>2018-02-04T13:49:17Z</time>
      </trkpt>
      <trkpt lat="45.6093" lon="6.91469">
        <ele>1531.67</ele>
        <time>2018-02-04T13:49:18Z</time>
      </trkpt>
      <trkpt lat="45.6092" lon="6.91474">
        <ele>1530.74</ele>
        <time>2018-02-04T13:49:20Z</time>
      </trkpt>
      <trkpt lat="45.60916" lon="6.91479">
        <ele>1530.15</ele>
        <time>2018-02-04T13:49:21Z</time>
      </trkpt>
      <trkpt lat="45.60913" lon="6.91484">
        <ele>1529.54</ele>
        <time>2018-02-04T13:49:22Z</time>
      </trkpt>
      <trkpt lat="45.60912" lon="6.91489">
        <ele>1528.86</ele>
        <time>2018-02-04T13:49:23Z</time>
      </trkpt>
      <trkpt lat="45.60911" lon="6.91493">
        <ele>1528.24</ele>
        <time>2018-02-04T13:49:24Z</time>
      </trkpt>
      <trkpt lat="45.6091" lon="6.91496">
        <ele>1527.75</ele>
        <time>2018-02-04T13:49:25Z</time>
      </trkpt>
      <trkpt lat="45.60909" lon="6.91498">
        <ele>1527.35</ele>
        <time>2018-02-04T13:49:26Z</time>
      </trkpt>
      <trkpt lat="45.60907" lon="6.915">
        <ele>1527.02</ele>
        <time>2018-02-04T13:49:27Z</time>
      </trkpt>
      <trkpt lat="45.60904" lon="6.91501">
        <ele>1526.73</ele>
        <time>2018-02-04T13:49:28Z</time>
      </trkpt>
      <trkpt lat="45.60901" lon="6.91503">
        <ele>1526.46</ele>
        <time>2018-02-04T13:49:29Z</time>
      </trkpt>
      <trkpt lat="45.60898" lon="6.91505">
        <ele>1526.22</ele>
        <time>2018-02-04T13:49:30Z</time>
      </trkpt>
      <trkpt lat="45.60894" lon="6.91508">
        <ele>1525.87</ele>
        <time>2018-02-04T13:49:31Z</time>
      </trkpt>
      <trkpt lat="45.6089" lon="6.91512">
        <ele>1525.43</ele>
        <time>2018-02-04T13:49:32Z</time>
      </trkpt>
      <trkpt lat="45.60886" lon="6.91516">
        <ele>1524.9</ele>
        <time>2018-02-04T13:49:33Z</time>
      </trkpt>
      <trkpt lat="45.60883" lon="6.91522">
        <ele>1524.28</ele>
        <time>2018-02-04T13:49:34Z</time>
      </trkpt>
      <trkpt lat="45.60881" lon="6.91527">
        <ele>1523.66</ele>
        <time>2018-02-04T13:49:35Z</time>
      </trkpt>
      <trkpt lat="45.60878" lon="6.91531">
        <ele>1523.02</ele>
        <time>2018-02-04T13:49:36Z</time>
      </trkpt>
      <trkpt lat="45.60876" lon="6.91535">
        <ele>1522.34</ele>
        <time>2018-02-04T13:49:37Z</time>
      </trkpt>
      <trkpt lat="45.60873" lon="6.91539">
        <ele>1521.67</ele>
        <time>2018-02-04T13:49:38Z</time>
      </trkpt>
      <trkpt lat="45.6087" lon="6.91542">
        <ele>1520.97</ele>
        <time>2018-02-04T13:49:39Z</time>
      </trkpt>
      <trkpt lat="45.60867" lon="6.91543">
        <ele>1520.28</ele>
        <time>2018-02-04T13:49:40Z</time>
      </trkpt>
      <trkpt lat="45.60865" lon="6.91544">
        <ele>1519.65</ele>
        <time>2018-02-04T13:49:41Z</time>
      </trkpt>
      <trkpt lat="45.60862" lon="6.91544">
        <ele>1518.62</ele>
        <time>2018-02-04T13:49:42Z</time>
      </trkpt>
      <trkpt lat="45.60859" lon="6.91543">
        <ele>1518.23</ele>
        <time>2018-02-04T13:49:43Z</time>
      </trkpt>
      <trkpt lat="45.60857" lon="6.91542">
        <ele>1517.86</ele>
        <time>2018-02-04T13:49:44Z</time>
      </trkpt>
      <trkpt lat="45.60855" lon="6.91541">
        <ele>1517.45</ele>
        <time>2018-02-04T13:49:45Z</time>
      </trkpt>
      <trkpt lat="45.60853" lon="6.91539">
        <ele>1517.04</ele>
        <time>2018-02-04T13:49:46Z</time>
      </trkpt>
      <trkpt lat="45.60852" lon="6.91537">
        <ele>1516.68</ele>
        <time>2018-02-04T13:49:47Z</time>
      </trkpt>
      <trkpt lat="45.60851" lon="6.91535">
        <ele>1516.36</ele>
        <time>2018-02-04T13:49:48Z</time>
      </trkpt>
      <trkpt lat="45.60845" lon="6.91526">
        <ele>1514.76</ele>
        <time>2018-02-04T13:49:56Z</time>
      </trkpt>
      <trkpt lat="45.60841" lon="6.91521">
        <ele>1514.98</ele>
        <time>2018-02-04T13:50:16Z</time>
      </trkpt>
      <trkpt lat="45.6084" lon="6.91516">
        <ele>1514.91</ele>
        <time>2018-02-04T13:50:19Z</time>
      </trkpt>
      <trkpt lat="45.60838" lon="6.91511">
        <ele>1514.65</ele>
        <time>2018-02-04T13:50:21Z</time>
      </trkpt>
      <trkpt lat="45.60836" lon="6.91509">
        <ele>1514.53</ele>
        <time>2018-02-04T13:50:22Z</time>
      </trkpt>
      <trkpt lat="45.60835" lon="6.91508">
        <ele>1514.44</ele>
        <time>2018-02-04T13:50:23Z</time>
      </trkpt>
      <trkpt lat="45.60833" lon="6.91506">
        <ele>1514.37</ele>
        <time>2018-02-04T13:50:24Z</time>
      </trkpt>
      <trkpt lat="45.60832" lon="6.91504">
        <ele>1514.3</ele>
        <time>2018-02-04T13:50:25Z</time>
      </trkpt>
      <trkpt lat="45.60831" lon="6.91502">
        <ele>1514.27</ele>
        <time>2018-02-04T13:50:26Z</time>
      </trkpt>
      <trkpt lat="45.60829" lon="6.91499">
        <ele>1514.25</ele>
        <time>2018-02-04T13:50:27Z</time>
      </trkpt>
      <trkpt lat="45.60827" lon="6.91497">
        <ele>1514.28</ele>
        <time>2018-02-04T13:50:28Z</time>
      </trkpt>
      <trkpt lat="45.60826" lon="6.91495">
        <ele>1514.32</ele>
        <time>2018-02-04T13:50:29Z</time>
      </trkpt>
      <trkpt lat="45.60825" lon="6.91493">
        <ele>1514.37</ele>
        <time>2018-02-04T13:50:30Z</time>
      </trkpt>
      <trkpt lat="45.60823" lon="6.91491">
        <ele>1514.4</ele>
        <time>2018-02-04T13:50:31Z</time>
      </trkpt>
      <trkpt lat="45.60821" lon="6.9149">
        <ele>1514.43</ele>
        <time>2018-02-04T13:50:32Z</time>
      </trkpt>
      <trkpt lat="45.60819" lon="6.91489">
        <ele>1514.45</ele>
        <time>2018-02-04T13:50:33Z</time>
      </trkpt>
      <trkpt lat="45.60809" lon="6.91476">
        <ele>1514.43</ele>
        <time>2018-02-04T13:50:42Z</time>
      </trkpt>
      <trkpt lat="45.60801" lon="6.9147">
        <ele>1514.6</ele>
        <time>2018-02-04T13:50:50Z</time>
      </trkpt>
      <trkpt lat="45.608" lon="6.9147">
        <ele>1514.59</ele>
        <time>2018-02-04T13:50:51Z</time>
      </trkpt>
      <trkpt lat="45.60798" lon="6.91469">
        <ele>1514.58</ele>
        <time>2018-02-04T13:50:52Z</time>
      </trkpt>
      <trkpt lat="45.60796" lon="6.91469">
        <ele>1514.55</ele>
        <time>2018-02-04T13:50:53Z</time>
      </trkpt>
      <trkpt lat="45.60794" lon="6.91468">
        <ele>1514.51</ele>
        <time>2018-02-04T13:50:54Z</time>
      </trkpt>
      <trkpt lat="45.60791" lon="6.91466">
        <ele>1514.44</ele>
        <time>2018-02-04T13:50:55Z</time>
      </trkpt>
      <trkpt lat="45.60788" lon="6.91463">
        <ele>1514.36</ele>
        <time>2018-02-04T13:50:56Z</time>
      </trkpt>
      <trkpt lat="45.60784" lon="6.91461">
        <ele>1514.25</ele>
        <time>2018-02-04T13:50:57Z</time>
      </trkpt>
      <trkpt lat="45.60779" lon="6.91458">
        <ele>1514.08</ele>
        <time>2018-02-04T13:50:58Z</time>
      </trkpt>
      <trkpt lat="45.60765" lon="6.91452">
        <ele>1512.58</ele>
        <time>2018-02-04T13:51:01Z</time>
      </trkpt>
      <trkpt lat="45.60743" lon="6.91433">
        <ele>1509.98</ele>
        <time>2018-02-04T13:51:09Z</time>
      </trkpt>
      <trkpt lat="45.60741" lon="6.91431">
        <ele>1509.85</ele>
        <time>2018-02-04T13:51:10Z</time>
      </trkpt>
      <trkpt lat="45.6074" lon="6.91428">
        <ele>1509.76</ele>
        <time>2018-02-04T13:51:11Z</time>
      </trkpt>
      <trkpt lat="45.60738" lon="6.91426">
        <ele>1509.68</ele>
        <time>2018-02-04T13:51:12Z</time>
      </trkpt>
      <trkpt lat="45.60737" lon="6.91424">
        <ele>1509.65</ele>
        <time>2018-02-04T13:51:13Z</time>
      </trkpt>
      <trkpt lat="45.60735" lon="6.91419">
        <ele>1509.85</ele>
        <time>2018-02-04T13:51:21Z</time>
      </trkpt>
      <trkpt lat="45.60741" lon="6.91413">
        <ele>1510.48</ele>
        <time>2018-02-04T13:51:36Z</time>
      </trkpt>
      <trkpt lat="45.60737" lon="6.91415">
        <ele>1510.48</ele>
        <time>2018-02-04T13:51:58Z</time>
      </trkpt>
      <trkpt lat="45.60737" lon="6.91415">
        <ele>1510.94</ele>
        <time>2018-02-04T13:52:20Z</time>
      </trkpt>
      <trkpt lat="45.6074" lon="6.91411">
        <ele>1510.68</ele>
        <time>2018-02-04T13:52:46Z</time>
      </trkpt>
      <trkpt lat="45.60737" lon="6.91406">
        <ele>1511.27</ele>
        <time>2018-02-04T13:53:05Z</time>
      </trkpt>
      <trkpt lat="45.60733" lon="6.91407">
        <ele>1511.03</ele>
        <time>2018-02-04T13:53:20Z</time>
      </trkpt>
      <trkpt lat="45.60728" lon="6.91408">
        <ele>1511.51</ele>
        <time>2018-02-04T13:53:58Z</time>
      </trkpt>
      <trkpt lat="45.60726" lon="6.91409">
        <ele>1511.73</ele>
        <time>2018-02-04T13:54:23Z</time>
      </trkpt>
      <trkpt lat="45.60727" lon="6.91401">
        <ele>1511.47</ele>
        <time>2018-02-04T13:54:41Z</time>
      </trkpt>
      <trkpt lat="45.60725" lon="6.91397">
        <ele>1511.39</ele>
        <time>2018-02-04T13:54:44Z</time>
      </trkpt>
      <trkpt lat="45.60725" lon="6.91394">
        <ele>1511.26</ele>
        <time>2018-02-04T13:54:46Z</time>
      </trkpt>
      <trkpt lat="45.60725" lon="6.91393">
        <ele>1511.17</ele>
        <time>2018-02-04T13:54:47Z</time>
      </trkpt>
      <trkpt lat="45.60724" lon="6.91391">
        <ele>1511.08</ele>
        <time>2018-02-04T13:54:48Z</time>
      </trkpt>
      <trkpt lat="45.60719" lon="6.9137">
        <ele>1510.45</ele>
        <time>2018-02-04T13:54:57Z</time>
      </trkpt>
      <trkpt lat="45.60715" lon="6.91345">
        <ele>1509.58</ele>
        <time>2018-02-04T13:55:06Z</time>
      </trkpt>
      <trkpt lat="45.60714" lon="6.9132">
        <ele>1508.88</ele>
        <time>2018-02-04T13:55:15Z</time>
      </trkpt>
      <trkpt lat="45.60715" lon="6.91311">
        <ele>1508.63</ele>
        <time>2018-02-04T13:55:18Z</time>
      </trkpt>
      <trkpt lat="45.60707" lon="6.91287">
        <ele>1507.74</ele>
        <time>2018-02-04T13:55:26Z</time>
      </trkpt>
      <trkpt lat="45.60698" lon="6.91271">
        <ele>1506.05</ele>
        <time>2018-02-04T13:55:32Z</time>
      </trkpt>
      <trkpt lat="45.60699" lon="6.91269">
        <ele>1505.43</ele>
        <time>2018-02-04T13:55:36Z</time>
      </trkpt>
      <trkpt lat="45.60697" lon="6.91264">
        <ele>1505.11</ele>
        <time>2018-02-04T13:55:42Z</time>
      </trkpt>
      <trkpt lat="45.60696" lon="6.91261">
        <ele>1505.07</ele>
        <time>2018-02-04T13:55:44Z</time>
      </trkpt>
      <trkpt lat="45.60696" lon="6.91259">
        <ele>1505.02</ele>
        <time>2018-02-04T13:55:45Z</time>
      </trkpt>
      <trkpt lat="45.60695" lon="6.91257">
        <ele>1504.99</ele>
        <time>2018-02-04T13:55:46Z</time>
      </trkpt>
      <trkpt lat="45.60687" lon="6.9124">
        <ele>1504.64</ele>
        <time>2018-02-04T13:55:50Z</time>
      </trkpt>
      <trkpt lat="45.60682" lon="6.91233">
        <ele>1504.41</ele>
        <time>2018-02-04T13:55:51Z</time>
      </trkpt>
      <trkpt lat="45.60667" lon="6.91209">
        <ele>1502.35</ele>
        <time>2018-02-04T13:55:54Z</time>
      </trkpt>
      <trkpt lat="45.60664" lon="6.91202">
        <ele>1501.13</ele>
        <time>2018-02-04T13:55:55Z</time>
      </trkpt>
      <trkpt lat="45.60659" lon="6.91198">
        <ele>1499.89</ele>
        <time>2018-02-04T13:55:56Z</time>
      </trkpt>
      <trkpt lat="45.60655" lon="6.91194">
        <ele>1498.79</ele>
        <time>2018-02-04T13:55:57Z</time>
      </trkpt>
      <trkpt lat="45.60651" lon="6.91189">
        <ele>1497.86</ele>
        <time>2018-02-04T13:55:58Z</time>
      </trkpt>
      <trkpt lat="45.60648" lon="6.91183">
        <ele>1497.05</ele>
        <time>2018-02-04T13:55:59Z</time>
      </trkpt>
      <trkpt lat="45.60643" lon="6.91177">
        <ele>1496.31</ele>
        <time>2018-02-04T13:56:00Z</time>
      </trkpt>
      <trkpt lat="45.60631" lon="6.91165">
        <ele>1492.67</ele>
        <time>2018-02-04T13:56:04Z</time>
      </trkpt>
      <trkpt lat="45.60624" lon="6.91151">
        <ele>1488.48</ele>
        <time>2018-02-04T13:56:10Z</time>
      </trkpt>
      <trkpt lat="45.60624" lon="6.91142">
        <ele>1487.69</ele>
        <time>2018-02-04T13:56:12Z</time>
      </trkpt>
      <trkpt lat="45.60624" lon="6.91129">
        <ele>1486.78</ele>
        <time>2018-02-04T13:56:14Z</time>
      </trkpt>
      <trkpt lat="45.60626" lon="6.91094">
        <ele>1483.88</ele>
        <time>2018-02-04T13:56:18Z</time>
      </trkpt>
      <trkpt lat="45.60623" lon="6.91061">
        <ele>1479.28</ele>
        <time>2018-02-04T13:56:23Z</time>
      </trkpt>
      <trkpt lat="45.60619" lon="6.91035">
        <ele>1476.32</ele>
        <time>2018-02-04T13:56:30Z</time>
      </trkpt>
      <trkpt lat="45.60618" lon="6.91025">
        <ele>1476.04</ele>
        <time>2018-02-04T13:56:32Z</time>
      </trkpt>
      <trkpt lat="45.60616" lon="6.91001">
        <ele>1475.35</ele>
        <time>2018-02-04T13:56:35Z</time>
      </trkpt>
      <trkpt lat="45.60609" lon="6.90971">
        <ele>1472.98</ele>
        <time>2018-02-04T13:56:39Z</time>
      </trkpt>
      <trkpt lat="45.60606" lon="6.90964">
        <ele>1472.46</ele>
        <time>2018-02-04T13:56:40Z</time>
      </trkpt>
      <trkpt lat="45.60603" lon="6.90957">
        <ele>1471.87</ele>
        <time>2018-02-04T13:56:41Z</time>
      </trkpt>
      <trkpt lat="45.60599" lon="6.9095">
        <ele>1471.22</ele>
        <time>2018-02-04T13:56:42Z</time>
      </trkpt>
      <trkpt lat="45.60595" lon="6.90944">
        <ele>1470.57</ele>
        <time>2018-02-04T13:56:43Z</time>
      </trkpt>
      <trkpt lat="45.60591" lon="6.90937">
        <ele>1469.88</ele>
        <time>2018-02-04T13:56:44Z</time>
      </trkpt>
      <trkpt lat="45.60587" lon="6.90931">
        <ele>1469.15</ele>
        <time>2018-02-04T13:56:45Z</time>
      </trkpt>
      <trkpt lat="45.60584" lon="6.90924">
        <ele>1468.38</ele>
        <time>2018-02-04T13:56:46Z</time>
      </trkpt>
      <trkpt lat="45.60579" lon="6.90919">
        <ele>1467.55</ele>
        <time>2018-02-04T13:56:47Z</time>
      </trkpt>
      <trkpt lat="45.60575" lon="6.90913">
        <ele>1466.71</ele>
        <time>2018-02-04T13:56:48Z</time>
      </trkpt>
      <trkpt lat="45.6057" lon="6.90908">
        <ele>1465.85</ele>
        <time>2018-02-04T13:56:49Z</time>
      </trkpt>
      <trkpt lat="45.60565" lon="6.90904">
        <ele>1465.01</ele>
        <time>2018-02-04T13:56:50Z</time>
      </trkpt>
      <trkpt lat="45.60561" lon="6.90899">
        <ele>1464.17</ele>
        <time>2018-02-04T13:56:51Z</time>
      </trkpt>
      <trkpt lat="45.60556" lon="6.90894">
        <ele>1463.28</ele>
        <time>2018-02-04T13:56:52Z</time>
      </trkpt>
      <trkpt lat="45.60551" lon="6.90889">
        <ele>1462.39</ele>
        <time>2018-02-04T13:56:53Z</time>
      </trkpt>
      <trkpt lat="45.60547" lon="6.90883">
        <ele>1461.46</ele>
        <time>2018-02-04T13:56:54Z</time>
      </trkpt>
      <trkpt lat="45.60542" lon="6.90878">
        <ele>1460.43</ele>
        <time>2018-02-04T13:56:55Z</time>
      </trkpt>
      <trkpt lat="45.60533" lon="6.90868">
        <ele>1458.34</ele>
        <time>2018-02-04T13:56:57Z</time>
      </trkpt>
      <trkpt lat="45.60529" lon="6.90861">
        <ele>1457.43</ele>
        <time>2018-02-04T13:56:58Z</time>
      </trkpt>
      <trkpt lat="45.60505" lon="6.90835">
        <ele>1453.83</ele>
        <time>2018-02-04T13:57:03Z</time>
      </trkpt>
      <trkpt lat="45.60492" lon="6.9082">
        <ele>1451.53</ele>
        <time>2018-02-04T13:57:06Z</time>
      </trkpt>
      <trkpt lat="45.60464" lon="6.90784">
        <ele>1448.14</ele>
        <time>2018-02-04T13:57:12Z</time>
      </trkpt>
      <trkpt lat="45.60446" lon="6.90745">
        <ele>1445.14</ele>
        <time>2018-02-04T13:57:18Z</time>
      </trkpt>
      <trkpt lat="45.60445" lon="6.90738">
        <ele>1444.8</ele>
        <time>2018-02-04T13:57:19Z</time>
      </trkpt>
      <trkpt lat="45.6044" lon="6.9071">
        <ele>1443.62</ele>
        <time>2018-02-04T13:57:23Z</time>
      </trkpt>
      <trkpt lat="45.60437" lon="6.90683">
        <ele>1442.48</ele>
        <time>2018-02-04T13:57:27Z</time>
      </trkpt>
      <trkpt lat="45.60437" lon="6.9066">
        <ele>1440.98</ele>
        <time>2018-02-04T13:57:31Z</time>
      </trkpt>
      <trkpt lat="45.60439" lon="6.90655">
        <ele>1440.71</ele>
        <time>2018-02-04T13:57:32Z</time>
      </trkpt>
      <trkpt lat="45.60445" lon="6.90612">
        <ele>1438.86</ele>
        <time>2018-02-04T13:57:40Z</time>
      </trkpt>
      <trkpt lat="45.6044" lon="6.90575">
        <ele>1437.73</ele>
        <time>2018-02-04T13:57:48Z</time>
      </trkpt>
      <trkpt lat="45.60436" lon="6.90558">
        <ele>1437</ele>
        <time>2018-02-04T13:57:56Z</time>
      </trkpt>
      <trkpt lat="45.60429" lon="6.90549">
        <ele>1437.42</ele>
        <time>2018-02-04T13:58:10Z</time>
      </trkpt>
      <trkpt lat="45.60427" lon="6.90521">
        <ele>1436.83</ele>
        <time>2018-02-04T13:58:17Z</time>
      </trkpt>
      <trkpt lat="45.60427" lon="6.90513">
        <ele>1436.15</ele>
        <time>2018-02-04T13:58:19Z</time>
      </trkpt>
      <trkpt lat="45.60427" lon="6.90509">
        <ele>1435.99</ele>
        <time>2018-02-04T13:58:20Z</time>
      </trkpt>
      <trkpt lat="45.60427" lon="6.90506">
        <ele>1435.85</ele>
        <time>2018-02-04T13:58:21Z</time>
      </trkpt>
      <trkpt lat="45.60429" lon="6.905">
        <ele>1434.89</ele>
        <time>2018-02-04T13:58:28Z</time>
      </trkpt>
      <trkpt lat="45.60431" lon="6.905">
        <ele>1434.25</ele>
        <time>2018-02-04T13:58:35Z</time>
      </trkpt>
      <trkpt lat="45.60435" lon="6.90492">
        <ele>1434.37</ele>
        <time>2018-02-04T13:58:51Z</time>
      </trkpt>
      <trkpt lat="45.60434" lon="6.90489">
        <ele>1434.29</ele>
        <time>2018-02-04T13:58:53Z</time>
      </trkpt>
      <trkpt lat="45.60433" lon="6.90487">
        <ele>1433.79</ele>
        <time>2018-02-04T13:59:04Z</time>
      </trkpt>
      <trkpt lat="45.60432" lon="6.90488">
        <ele>1433.91</ele>
        <time>2018-02-04T13:59:29Z</time>
      </trkpt>
      <trkpt lat="45.60433" lon="6.90485">
        <ele>1433.78</ele>
        <time>2018-02-04T13:59:53Z</time>
      </trkpt>
      <trkpt lat="45.60429" lon="6.90472">
        <ele>1433.8</ele>
        <time>2018-02-04T14:00:02Z</time>
      </trkpt>
      <trkpt lat="45.60429" lon="6.90468">
        <ele>1433.64</ele>
        <time>2018-02-04T14:00:03Z</time>
      </trkpt>
      <trkpt lat="45.60428" lon="6.90464">
        <ele>1433.57</ele>
        <time>2018-02-04T14:00:04Z</time>
      </trkpt>
      <trkpt lat="45.60418" lon="6.9041">
        <ele>1431.81</ele>
        <time>2018-02-04T14:00:13Z</time>
      </trkpt>
      <trkpt lat="45.60417" lon="6.90403">
        <ele>1431.42</ele>
        <time>2018-02-04T14:00:14Z</time>
      </trkpt>
      <trkpt lat="45.60419" lon="6.90398">
        <ele>1430.99</ele>
        <time>2018-02-04T14:00:15Z</time>
      </trkpt>
      <trkpt lat="45.6042" lon="6.90392">
        <ele>1430.54</ele>
        <time>2018-02-04T14:00:16Z</time>
      </trkpt>
      <trkpt lat="45.6042" lon="6.90386">
        <ele>1430.09</ele>
        <time>2018-02-04T14:00:17Z</time>
      </trkpt>
      <trkpt lat="45.6042" lon="6.90343">
        <ele>1427.65</ele>
        <time>2018-02-04T14:00:25Z</time>
      </trkpt>
      <trkpt lat="45.60421" lon="6.9031">
        <ele>1426.36</ele>
        <time>2018-02-04T14:00:31Z</time>
      </trkpt>
      <trkpt lat="45.60427" lon="6.90277">
        <ele>1424.76</ele>
        <time>2018-02-04T14:00:37Z</time>
      </trkpt>
      <trkpt lat="45.60428" lon="6.90272">
        <ele>1424.45</ele>
        <time>2018-02-04T14:00:38Z</time>
      </trkpt>
      <trkpt lat="45.60429" lon="6.90266">
        <ele>1424.16</ele>
        <time>2018-02-04T14:00:39Z</time>
      </trkpt>
      <trkpt lat="45.6043" lon="6.9026">
        <ele>1423.87</ele>
        <time>2018-02-04T14:00:40Z</time>
      </trkpt>
      <trkpt lat="45.6043" lon="6.90254">
        <ele>1423.63</ele>
        <time>2018-02-04T14:00:41Z</time>
      </trkpt>
      <trkpt lat="45.60431" lon="6.90249">
        <ele>1423.38</ele>
        <time>2018-02-04T14:00:42Z</time>
      </trkpt>
      <trkpt lat="45.60431" lon="6.90244">
        <ele>1423.14</ele>
        <time>2018-02-04T14:00:43Z</time>
      </trkpt>
      <trkpt lat="45.60432" lon="6.90239">
        <ele>1422.89</ele>
        <time>2018-02-04T14:00:44Z</time>
      </trkpt>
      <trkpt lat="45.60432" lon="6.90233">
        <ele>1422.66</ele>
        <time>2018-02-04T14:00:45Z</time>
      </trkpt>
      <trkpt lat="45.60431" lon="6.90227">
        <ele>1422.48</ele>
        <time>2018-02-04T14:00:46Z</time>
      </trkpt>
      <trkpt lat="45.6043" lon="6.90215">
        <ele>1422.13</ele>
        <time>2018-02-04T14:00:48Z</time>
      </trkpt>
      <trkpt lat="45.60428" lon="6.90207">
        <ele>1421.93</ele>
        <time>2018-02-04T14:00:49Z</time>
      </trkpt>
      <trkpt lat="45.60426" lon="6.902">
        <ele>1421.67</ele>
        <time>2018-02-04T14:00:50Z</time>
      </trkpt>
      <trkpt lat="45.6041" lon="6.90145">
        <ele>1418.26</ele>
        <time>2018-02-04T14:00:57Z</time>
      </trkpt>
      <trkpt lat="45.60407" lon="6.90128">
        <ele>1417.17</ele>
        <time>2018-02-04T14:00:59Z</time>
      </trkpt>
      <trkpt lat="45.60403" lon="6.9011">
        <ele>1415.64</ele>
        <time>2018-02-04T14:01:01Z</time>
      </trkpt>
      <trkpt lat="45.60401" lon="6.90101">
        <ele>1414.87</ele>
        <time>2018-02-04T14:01:02Z</time>
      </trkpt>
      <trkpt lat="45.60399" lon="6.90092">
        <ele>1414.16</ele>
        <time>2018-02-04T14:01:03Z</time>
      </trkpt>
      <trkpt lat="45.60395" lon="6.90075">
        <ele>1412.77</ele>
        <time>2018-02-04T14:01:05Z</time>
      </trkpt>
      <trkpt lat="45.60393" lon="6.90066">
        <ele>1412.09</ele>
        <time>2018-02-04T14:01:06Z</time>
      </trkpt>
      <trkpt lat="45.60388" lon="6.90049">
        <ele>1409.98</ele>
        <time>2018-02-04T14:01:08Z</time>
      </trkpt>
      <trkpt lat="45.60386" lon="6.90039">
        <ele>1409.98</ele>
        <time>2018-02-04T14:01:09Z</time>
      </trkpt>
      <trkpt lat="45.60383" lon="6.9003">
        <ele>1409.26</ele>
        <time>2018-02-04T14:01:10Z</time>
      </trkpt>
      <trkpt lat="45.60378" lon="6.90003">
        <ele>1407.03</ele>
        <time>2018-02-04T14:01:13Z</time>
      </trkpt>
      <trkpt lat="45.60373" lon="6.89985">
        <ele>1405.71</ele>
        <time>2018-02-04T14:01:15Z</time>
      </trkpt>
      <trkpt lat="45.60364" lon="6.89955">
        <ele>1402.94</ele>
        <time>2018-02-04T14:01:18Z</time>
      </trkpt>
      <trkpt lat="45.60356" lon="6.89936">
        <ele>1401.04</ele>
        <time>2018-02-04T14:01:20Z</time>
      </trkpt>
      <trkpt lat="45.60353" lon="6.89926">
        <ele>1398.87</ele>
        <time>2018-02-04T14:01:21Z</time>
      </trkpt>
      <trkpt lat="45.60349" lon="6.89917">
        <ele>1397.8</ele>
        <time>2018-02-04T14:01:22Z</time>
      </trkpt>
      <trkpt lat="45.60346" lon="6.89909">
        <ele>1396.76</ele>
        <time>2018-02-04T14:01:23Z</time>
      </trkpt>
      <trkpt lat="45.60342" lon="6.899">
        <ele>1395.71</ele>
        <time>2018-02-04T14:01:24Z</time>
      </trkpt>
      <trkpt lat="45.60338" lon="6.89891">
        <ele>1394.67</ele>
        <time>2018-02-04T14:01:25Z</time>
      </trkpt>
      <trkpt lat="45.60334" lon="6.89883">
        <ele>1393.67</ele>
        <time>2018-02-04T14:01:26Z</time>
      </trkpt>
      <trkpt lat="45.60326" lon="6.89865">
        <ele>1391.6</ele>
        <time>2018-02-04T14:01:28Z</time>
      </trkpt>
      <trkpt lat="45.60315" lon="6.8984">
        <ele>1388.6</ele>
        <time>2018-02-04T14:01:31Z</time>
      </trkpt>
      <trkpt lat="45.60312" lon="6.89831">
        <ele>1387.62</ele>
        <time>2018-02-04T14:01:32Z</time>
      </trkpt>
      <trkpt lat="45.60309" lon="6.89823">
        <ele>1386.68</ele>
        <time>2018-02-04T14:01:33Z</time>
      </trkpt>
      <trkpt lat="45.60305" lon="6.89805">
        <ele>1384.86</ele>
        <time>2018-02-04T14:01:35Z</time>
      </trkpt>
      <trkpt lat="45.60302" lon="6.89797">
        <ele>1383.81</ele>
        <time>2018-02-04T14:01:36Z</time>
      </trkpt>
      <trkpt lat="45.60299" lon="6.89788">
        <ele>1382.78</ele>
        <time>2018-02-04T14:01:37Z</time>
      </trkpt>
      <trkpt lat="45.60295" lon="6.8978">
        <ele>1381.85</ele>
        <time>2018-02-04T14:01:38Z</time>
      </trkpt>
      <trkpt lat="45.6029" lon="6.89773">
        <ele>1380.9</ele>
        <time>2018-02-04T14:01:39Z</time>
      </trkpt>
      <trkpt lat="45.60285" lon="6.89767">
        <ele>1379.86</ele>
        <time>2018-02-04T14:01:40Z</time>
      </trkpt>
      <trkpt lat="45.6028" lon="6.89764">
        <ele>1378.82</ele>
        <time>2018-02-04T14:01:41Z</time>
      </trkpt>
      <trkpt lat="45.60274" lon="6.89761">
        <ele>1377.77</ele>
        <time>2018-02-04T14:01:42Z</time>
      </trkpt>
      <trkpt lat="45.60268" lon="6.8976">
        <ele>1376.65</ele>
        <time>2018-02-04T14:01:43Z</time>
      </trkpt>
      <trkpt lat="45.60264" lon="6.89758">
        <ele>1375.59</ele>
        <time>2018-02-04T14:01:44Z</time>
      </trkpt>
      <trkpt lat="45.60259" lon="6.89752">
        <ele>1374.69</ele>
        <time>2018-02-04T14:01:45Z</time>
      </trkpt>
      <trkpt lat="45.60258" lon="6.89745">
        <ele>1373.91</ele>
        <time>2018-02-04T14:01:46Z</time>
      </trkpt>
      <trkpt lat="45.6026" lon="6.89742">
        <ele>1373.18</ele>
        <time>2018-02-04T14:01:47Z</time>
      </trkpt>
      <trkpt lat="45.60263" lon="6.89742">
        <ele>1372.43</ele>
        <time>2018-02-04T14:01:48Z</time>
      </trkpt>
      <trkpt lat="45.60267" lon="6.89742">
        <ele>1370.82</ele>
        <time>2018-02-04T14:01:49Z</time>
      </trkpt>
      <trkpt lat="45.60271" lon="6.89743">
        <ele>1370.04</ele>
        <time>2018-02-04T14:01:50Z</time>
      </trkpt>
      <trkpt lat="45.60275" lon="6.89744">
        <ele>1369.34</ele>
        <time>2018-02-04T14:01:51Z</time>
      </trkpt>
      <trkpt lat="45.60283" lon="6.89745">
        <ele>1368.03</ele>
        <time>2018-02-04T14:01:53Z</time>
      </trkpt>
      <trkpt lat="45.60288" lon="6.89747">
        <ele>1367.38</ele>
        <time>2018-02-04T14:01:54Z</time>
      </trkpt>
      <trkpt lat="45.60293" lon="6.89749">
        <ele>1366.7</ele>
        <time>2018-02-04T14:01:55Z</time>
      </trkpt>
      <trkpt lat="45.60299" lon="6.89752">
        <ele>1365.97</ele>
        <time>2018-02-04T14:01:56Z</time>
      </trkpt>
      <trkpt lat="45.60304" lon="6.89757">
        <ele>1365.24</ele>
        <time>2018-02-04T14:01:57Z</time>
      </trkpt>
      <trkpt lat="45.6031" lon="6.89762">
        <ele>1364.48</ele>
        <time>2018-02-04T14:01:58Z</time>
      </trkpt>
      <trkpt lat="45.6032" lon="6.89772">
        <ele>1362.97</ele>
        <time>2018-02-04T14:02:00Z</time>
      </trkpt>
      <trkpt lat="45.60324" lon="6.89779">
        <ele>1362.23</ele>
        <time>2018-02-04T14:02:01Z</time>
      </trkpt>
      <trkpt lat="45.60329" lon="6.89781">
        <ele>1361.46</ele>
        <time>2018-02-04T14:02:02Z</time>
      </trkpt>
      <trkpt lat="45.60333" lon="6.89776">
        <ele>1360.69</ele>
        <time>2018-02-04T14:02:03Z</time>
      </trkpt>
      <trkpt lat="45.60332" lon="6.89769">
        <ele>1359.92</ele>
        <time>2018-02-04T14:02:04Z</time>
      </trkpt>
      <trkpt lat="45.6033" lon="6.89762">
        <ele>1359.13</ele>
        <time>2018-02-04T14:02:05Z</time>
      </trkpt>
      <trkpt lat="45.60328" lon="6.89754">
        <ele>1358.25</ele>
        <time>2018-02-04T14:02:06Z</time>
      </trkpt>
      <trkpt lat="45.60326" lon="6.89747">
        <ele>1357.27</ele>
        <time>2018-02-04T14:02:07Z</time>
      </trkpt>
      <trkpt lat="45.60323" lon="6.89741">
        <ele>1356.29</ele>
        <time>2018-02-04T14:02:08Z</time>
      </trkpt>
      <trkpt lat="45.60319" lon="6.89734">
        <ele>1355.32</ele>
        <time>2018-02-04T14:02:09Z</time>
      </trkpt>
      <trkpt lat="45.60317" lon="6.89726">
        <ele>1354.34</ele>
        <time>2018-02-04T14:02:10Z</time>
      </trkpt>
      <trkpt lat="45.60314" lon="6.89718">
        <ele>1353.35</ele>
        <time>2018-02-04T14:02:11Z</time>
      </trkpt>
      <trkpt lat="45.60307" lon="6.89701">
        <ele>1350.34</ele>
        <time>2018-02-04T14:02:13Z</time>
      </trkpt>
      <trkpt lat="45.60303" lon="6.89693">
        <ele>1350.34</ele>
        <time>2018-02-04T14:02:14Z</time>
      </trkpt>
      <trkpt lat="45.60293" lon="6.89677">
        <ele>1347.07</ele>
        <time>2018-02-04T14:02:16Z</time>
      </trkpt>
      <trkpt lat="45.60286" lon="6.89672">
        <ele>1346.01</ele>
        <time>2018-02-04T14:02:17Z</time>
      </trkpt>
      <trkpt lat="45.6028" lon="6.89667">
        <ele>1345</ele>
        <time>2018-02-04T14:02:18Z</time>
      </trkpt>
      <trkpt lat="45.60274" lon="6.89663">
        <ele>1343.99</ele>
        <time>2018-02-04T14:02:19Z</time>
      </trkpt>
      <trkpt lat="45.60268" lon="6.8966">
        <ele>1342.99</ele>
        <time>2018-02-04T14:02:20Z</time>
      </trkpt>
      <trkpt lat="45.60261" lon="6.89657">
        <ele>1342</ele>
        <time>2018-02-04T14:02:21Z</time>
      </trkpt>
      <trkpt lat="45.60254" lon="6.89655">
        <ele>1341.02</ele>
        <time>2018-02-04T14:02:22Z</time>
      </trkpt>
      <trkpt lat="45.60249" lon="6.89653">
        <ele>1339.98</ele>
        <time>2018-02-04T14:02:23Z</time>
      </trkpt>
      <trkpt lat="45.60231" lon="6.89642">
        <ele>1336.41</ele>
        <time>2018-02-04T14:02:26Z</time>
      </trkpt>
      <trkpt lat="45.6023" lon="6.89637">
        <ele>1335.37</ele>
        <time>2018-02-04T14:02:27Z</time>
      </trkpt>
      <trkpt lat="45.60225" lon="6.89633">
        <ele>1334.36</ele>
        <time>2018-02-04T14:02:28Z</time>
      </trkpt>
      <trkpt lat="45.6022" lon="6.89628">
        <ele>1333.29</ele>
        <time>2018-02-04T14:02:29Z</time>
      </trkpt>
      <trkpt lat="45.60222" lon="6.89628">
        <ele>1332.16</ele>
        <time>2018-02-04T14:02:30Z</time>
      </trkpt>
      <trkpt lat="45.60225" lon="6.89624">
        <ele>1329.05</ele>
        <time>2018-02-04T14:02:34Z</time>
      </trkpt>
      <trkpt lat="45.60219" lon="6.8962">
        <ele>1326.8</ele>
        <time>2018-02-04T14:02:57Z</time>
      </trkpt>
      <trkpt lat="45.60222" lon="6.89619">
        <ele>1326.85</ele>
        <time>2018-02-04T14:03:17Z</time>
      </trkpt>
      <trkpt lat="45.60223" lon="6.89619">
        <ele>1326.86</ele>
        <time>2018-02-04T14:03:18Z</time>
      </trkpt>
      <trkpt lat="45.6023" lon="6.8962">
        <ele>1326.87</ele>
        <time>2018-02-04T14:03:22Z</time>
      </trkpt>
      <trkpt lat="45.60234" lon="6.89622">
        <ele>1326.78</ele>
        <time>2018-02-04T14:03:24Z</time>
      </trkpt>
      <trkpt lat="45.60235" lon="6.89624">
        <ele>1326.65</ele>
        <time>2018-02-04T14:03:25Z</time>
      </trkpt>
      <trkpt lat="45.60238" lon="6.89626">
        <ele>1326.39</ele>
        <time>2018-02-04T14:03:26Z</time>
      </trkpt>
      <trkpt lat="45.60241" lon="6.89626">
        <ele>1326.03</ele>
        <time>2018-02-04T14:03:27Z</time>
      </trkpt>
      <trkpt lat="45.60244" lon="6.89625">
        <ele>1325.64</ele>
        <time>2018-02-04T14:03:28Z</time>
      </trkpt>
      <trkpt lat="45.60246" lon="6.89624">
        <ele>1325.28</ele>
        <time>2018-02-04T14:03:29Z</time>
      </trkpt>
      <trkpt lat="45.60253" lon="6.8962">
        <ele>1324.23</ele>
        <time>2018-02-04T14:03:32Z</time>
      </trkpt>
      <trkpt lat="45.60255" lon="6.89617">
        <ele>1323.07</ele>
        <time>2018-02-04T14:03:35Z</time>
      </trkpt>
      <trkpt lat="45.60268" lon="6.89608">
        <ele>1321.03</ele>
        <time>2018-02-04T14:03:39Z</time>
      </trkpt>
      <trkpt lat="45.6029" lon="6.89592">
        <ele>1317.3</ele>
        <time>2018-02-04T14:03:46Z</time>
      </trkpt>
      <trkpt lat="45.60311" lon="6.89559">
        <ele>1314.82</ele>
        <time>2018-02-04T14:03:53Z</time>
      </trkpt>
      <trkpt lat="45.60319" lon="6.8954">
        <ele>1313.35</ele>
        <time>2018-02-04T14:04:02Z</time>
      </trkpt>
      <trkpt lat="45.6032" lon="6.89538">
        <ele>1313.32</ele>
        <time>2018-02-04T14:04:03Z</time>
      </trkpt>
      <trkpt lat="45.60324" lon="6.89529">
        <ele>1313.31</ele>
        <time>2018-02-04T14:04:08Z</time>
      </trkpt>
      <trkpt lat="45.60327" lon="6.89522">
        <ele>1313.36</ele>
        <time>2018-02-04T14:04:20Z</time>
      </trkpt>
      <trkpt lat="45.60322" lon="6.89507">
        <ele>1313.33</ele>
        <time>2018-02-04T14:04:32Z</time>
      </trkpt>
      <trkpt lat="45.60313" lon="6.89492">
        <ele>1312.72</ele>
        <time>2018-02-04T14:04:40Z</time>
      </trkpt>
      <trkpt lat="45.6031" lon="6.89491">
        <ele>1312.5</ele>
        <time>2018-02-04T14:04:42Z</time>
      </trkpt>
      <trkpt lat="45.603" lon="6.89481">
        <ele>1311.78</ele>
        <time>2018-02-04T14:04:48Z</time>
      </trkpt>
      <trkpt lat="45.60293" lon="6.89476">
        <ele>1311.65</ele>
        <time>2018-02-04T14:04:51Z</time>
      </trkpt>
      <trkpt lat="45.60282" lon="6.89468">
        <ele>1311.41</ele>
        <time>2018-02-04T14:04:57Z</time>
      </trkpt>
      <trkpt lat="45.60277" lon="6.89465">
        <ele>1311.27</ele>
        <time>2018-02-04T14:05:00Z</time>
      </trkpt>
      <trkpt lat="45.6027" lon="6.89462">
        <ele>1311.13</ele>
        <time>2018-02-04T14:05:04Z</time>
      </trkpt>
      <trkpt lat="45.60262" lon="6.89455">
        <ele>1310.87</ele>
        <time>2018-02-04T14:05:09Z</time>
      </trkpt>
      <trkpt lat="45.60256" lon="6.89451">
        <ele>1310.65</ele>
        <time>2018-02-04T14:05:12Z</time>
      </trkpt>
      <trkpt lat="45.60237" lon="6.89447">
        <ele>1309.72</ele>
        <time>2018-02-04T14:05:21Z</time>
      </trkpt>
      <trkpt lat="45.60221" lon="6.8944">
        <ele>1308.83</ele>
        <time>2018-02-04T14:05:29Z</time>
      </trkpt>
      <trkpt lat="45.60215" lon="6.89429">
        <ele>1309.07</ele>
        <time>2018-02-04T14:05:42Z</time>
      </trkpt>
      <trkpt lat="45.60209" lon="6.89417">
        <ele>1308.77</ele>
        <time>2018-02-04T14:05:49Z</time>
      </trkpt>
      <trkpt lat="45.60199" lon="6.894">
        <ele>1308.44</ele>
        <time>2018-02-04T14:05:57Z</time>
      </trkpt>
      <trkpt lat="45.60197" lon="6.89399">
        <ele>1308.39</ele>
        <time>2018-02-04T14:05:58Z</time>
      </trkpt>
      <trkpt lat="45.60195" lon="6.89396">
        <ele>1308.33</ele>
        <time>2018-02-04T14:06:00Z</time>
      </trkpt>
      <trkpt lat="45.60186" lon="6.89375">
        <ele>1308.15</ele>
        <time>2018-02-04T14:06:09Z</time>
      </trkpt>
      <trkpt lat="45.60186" lon="6.89365">
        <ele>1308.02</ele>
        <time>2018-02-04T14:06:12Z</time>
      </trkpt>
      <trkpt lat="45.60187" lon="6.89356">
        <ele>1307.86</ele>
        <time>2018-02-04T14:06:15Z</time>
      </trkpt>
      <trkpt lat="45.6019" lon="6.89335">
        <ele>1307.43</ele>
        <time>2018-02-04T14:06:24Z</time>
      </trkpt>
      <trkpt lat="45.60191" lon="6.89333">
        <ele>1307.39</ele>
        <time>2018-02-04T14:06:25Z</time>
      </trkpt>
      <trkpt lat="45.60198" lon="6.89318">
        <ele>1307.46</ele>
        <time>2018-02-04T14:06:37Z</time>
      </trkpt>
      <trkpt lat="45.60209" lon="6.89308">
        <ele>1306.92</ele>
        <time>2018-02-04T14:06:46Z</time>
      </trkpt>
      <trkpt lat="45.60229" lon="6.89281">
        <ele>1305.51</ele>
        <time>2018-02-04T14:06:56Z</time>
      </trkpt>
      <trkpt lat="45.60245" lon="6.89253">
        <ele>1303.75</ele>
        <time>2018-02-04T14:07:06Z</time>
      </trkpt>
      <trkpt lat="45.60254" lon="6.8923">
        <ele>1302.9</ele>
        <time>2018-02-04T14:07:14Z</time>
      </trkpt>
      <trkpt lat="45.60261" lon="6.89205">
        <ele>1302.05</ele>
        <time>2018-02-04T14:07:24Z</time>
      </trkpt>
      <trkpt lat="45.60266" lon="6.89186">
        <ele>1301.64</ele>
        <time>2018-02-04T14:07:31Z</time>
      </trkpt>
      <trkpt lat="45.6027" lon="6.89174">
        <ele>1301.09</ele>
        <time>2018-02-04T14:07:36Z</time>
      </trkpt>
      <trkpt lat="45.60272" lon="6.89152">
        <ele>1300.5</ele>
        <time>2018-02-04T14:07:46Z</time>
      </trkpt>
      <trkpt lat="45.6026" lon="6.89151">
        <ele>1299.97</ele>
        <time>2018-02-04T14:07:49Z</time>
      </trkpt>
      <trkpt lat="45.60253" lon="6.89122">
        <ele>1294.72</ele>
        <time>2018-02-04T14:07:55Z</time>
      </trkpt>
      <trkpt lat="45.60259" lon="6.89106">
        <ele>1291.39</ele>
        <time>2018-02-04T14:07:58Z</time>
      </trkpt>
      <trkpt lat="45.60265" lon="6.89083">
        <ele>1288.07</ele>
        <time>2018-02-04T14:08:04Z</time>
      </trkpt>
      <trkpt lat="45.60265" lon="6.89053">
        <ele>1286.47</ele>
        <time>2018-02-04T14:08:11Z</time>
      </trkpt>
      <trkpt lat="45.60258" lon="6.89036">
        <ele>1282.86</ele>
        <time>2018-02-04T14:08:15Z</time>
      </trkpt>
      <trkpt lat="45.60255" lon="6.89023">
        <ele>1279.62</ele>
        <time>2018-02-04T14:08:18Z</time>
      </trkpt>
      <trkpt lat="45.60248" lon="6.89009">
        <ele>1276.54</ele>
        <time>2018-02-04T14:08:21Z</time>
      </trkpt>
      <trkpt lat="45.60247" lon="6.88992">
        <ele>1274.54</ele>
        <time>2018-02-04T14:08:23Z</time>
      </trkpt>
      <trkpt lat="45.60255" lon="6.88963">
        <ele>1269.74</ele>
        <time>2018-02-04T14:08:27Z</time>
      </trkpt>
      <trkpt lat="45.60259" lon="6.88949">
        <ele>1267.51</ele>
        <time>2018-02-04T14:08:29Z</time>
      </trkpt>
      <trkpt lat="45.60253" lon="6.88921">
        <ele>1263.49</ele>
        <time>2018-02-04T14:08:34Z</time>
      </trkpt>
      <trkpt lat="45.60254" lon="6.8889">
        <ele>1258.32</ele>
        <time>2018-02-04T14:08:38Z</time>
      </trkpt>
      <trkpt lat="45.60255" lon="6.88884">
        <ele>1257.19</ele>
        <time>2018-02-04T14:08:39Z</time>
      </trkpt>
      <trkpt lat="45.60255" lon="6.88878">
        <ele>1256.14</ele>
        <time>2018-02-04T14:08:40Z</time>
      </trkpt>
      <trkpt lat="45.60254" lon="6.88872">
        <ele>1255.25</ele>
        <time>2018-02-04T14:08:41Z</time>
      </trkpt>
      <trkpt lat="45.60253" lon="6.88866">
        <ele>1254.53</ele>
        <time>2018-02-04T14:08:42Z</time>
      </trkpt>
      <trkpt lat="45.60252" lon="6.88859">
        <ele>1253.88</ele>
        <time>2018-02-04T14:08:43Z</time>
      </trkpt>
      <trkpt lat="45.60253" lon="6.88853">
        <ele>1253.22</ele>
        <time>2018-02-04T14:08:44Z</time>
      </trkpt>
      <trkpt lat="45.60255" lon="6.88847">
        <ele>1252.53</ele>
        <time>2018-02-04T14:08:45Z</time>
      </trkpt>
      <trkpt lat="45.60257" lon="6.88843">
        <ele>1251.88</ele>
        <time>2018-02-04T14:08:46Z</time>
      </trkpt>
      <trkpt lat="45.60259" lon="6.88839">
        <ele>1251.28</ele>
        <time>2018-02-04T14:08:47Z</time>
      </trkpt>
      <trkpt lat="45.6026" lon="6.88837">
        <ele>1250.75</ele>
        <time>2018-02-04T14:08:48Z</time>
      </trkpt>
      <trkpt lat="45.60261" lon="6.88832">
        <ele>1249.12</ele>
        <time>2018-02-04T14:08:56Z</time>
      </trkpt>
      <trkpt lat="45.60261" lon="6.88828">
        <ele>1248.43</ele>
        <time>2018-02-04T14:09:10Z</time>
      </trkpt>
      <trkpt lat="45.6026" lon="6.88825">
        <ele>1247.52</ele>
        <time>2018-02-04T14:09:28Z</time>
      </trkpt>
      <trkpt lat="45.60261" lon="6.88822">
        <ele>1247.9</ele>
        <time>2018-02-04T14:09:45Z</time>
      </trkpt>
      <trkpt lat="45.60263" lon="6.8882">
        <ele>1248.39</ele>
        <time>2018-02-04T14:10:03Z</time>
      </trkpt>
    </trkseg>
  </trk>
</gpx>